
Distance (Route):
Temperature : 0°C
Humidity : 0%
Pressure : 0hPa| Receiver | Date | Latitude | Longitude | Direction | Speed | Altitude | Climb | Temperature | Humidity | Pressure | Voltage | Killtimer | Uptime | BKT | XDATA |
|---|---|---|---|---|---|---|---|---|---|---|---|---|---|---|---|
| EA3GEO | 2026-09-05 13:03:02 | 41.24438 | 2.30260 | 37° | 5km/h | 87m | -11.5m/s | 0°C | 0% | 0hPa | 0V | 00:00:00 | 00:00:00 | 00:00:00 | |
| EA3GEO | 2026-09-05 13:02:56 | 41.24433 | 2.30251 | 41° | 7km/h | 156m | -10.9m/s | 0°C | 0% | 0hPa | 0V | 00:00:00 | 00:00:00 | 00:00:00 | |
| EA3GEO | 2026-09-05 13:02:50 | 41.24427 | 2.30246 | 356° | 2km/h | 223m | -11.4m/s | 0°C | 0% | 0hPa | 0V | 00:00:00 | 00:00:00 | 00:00:00 | |
| EA3GEO | 2026-09-05 13:02:42 | 41.24417 | 2.30257 | 323° | 11km/h | 313m | -11.7m/s | 0°C | 0% | 0hPa | 0V | 00:00:00 | 00:00:00 | 00:00:00 | |
| EA3GEO | 2026-09-05 13:02:37 | 41.24405 | 2.30274 | 307° | 15km/h | 371m | -11.3m/s | 0°C | 0% | 0hPa | 0V | 00:00:00 | 00:00:00 | 00:00:00 | |
| EA3GEO | 2026-09-05 13:02:32 | 41.24390 | 2.30302 | 300° | 26km/h | 428m | -12.2m/s | 0°C | 0% | 0hPa | 0V | 00:00:00 | 00:00:00 | 00:00:00 | |
| EA3GEO | 2026-09-05 13:02:26 | 41.24366 | 2.30349 | 308° | 29km/h | 497m | -11.3m/s | 0°C | 0% | 0hPa | 0V | 00:00:00 | 00:00:00 | 00:00:00 | |
| EA3GEO | 2026-09-05 13:02:21 | 41.24344 | 2.30388 | 304° | 27km/h | 555m | -11.3m/s | 0°C | 0% | 0hPa | 0V | 00:00:00 | 00:00:00 | 00:00:00 | |
| EA3GEO | 2026-09-05 13:02:15 | 41.24310 | 2.30422 | 319° | 26km/h | 625m | -10.7m/s | 0°C | 0% | 0hPa | 0V | 00:00:00 | 00:00:00 | 00:00:00 | |
| EA3GEO | 2026-09-05 13:02:10 | 41.24288 | 2.30441 | 338° | 20km/h | 683m | -10.2m/s | 0°C | 0% | 0hPa | 0V | 00:00:00 | 00:00:00 | 00:00:00 | |
| EA3GEO | 2026-09-05 13:02:04 | 41.24266 | 2.30454 | 357° | 11km/h | 738m | -6.7m/s | 0°C | 0% | 0hPa | 0V | 00:00:00 | 00:00:00 | 00:00:00 | |
| EA3GEO | 2026-09-05 13:01:57 | 41.24244 | 2.30450 | 35° | 13km/h | 802m | -9.0m/s | 0°C | 0% | 0hPa | 0V | 00:00:00 | 00:00:00 | 00:00:00 | |
| EA3IBE | 2026-09-05 13:01:54 | 41.24235 | 2.30441 | 28° | 20km/h | 830m | -11.0m/s | 0°C | 0% | 0hPa | 0V | 00:00:00 | 00:00:00 | 00:00:00 | |
| EA3GEO | 2026-09-05 13:01:51 | 41.24225 | 2.30434 | 33° | 13km/h | 864m | -10.4m/s | 0°C | 0% | 0hPa | 0V | 00:00:00 | 00:00:00 | 00:00:00 | |
| EA3IBE | 2026-09-05 13:01:44 | 41.24205 | 2.30412 | 77° | 16km/h | 944m | -8.1m/s | 0°C | 0% | 0hPa | 0V | 00:00:00 | 00:00:00 | 00:00:00 | |
| EA3GEO | 2026-09-05 13:01:44 | 41.24205 | 2.30412 | 77° | 16km/h | 944m | -8.1m/s | 0°C | 0% | 0hPa | 0V | 00:00:00 | 00:00:00 | 00:00:00 | |
| EA3GEO | 2026-09-05 13:01:38 | 41.24192 | 2.30382 | 63° | 16km/h | 1004m | -8.8m/s | 0°C | 0% | 0hPa | 0V | 00:00:00 | 00:00:00 | 00:00:00 | |
| EA3GEO | 2026-09-05 13:01:33 | 41.24184 | 2.30357 | 84° | 15km/h | 1061m | -7.4m/s | 0°C | 0% | 0hPa | 0V | 00:00:00 | 00:00:00 | 00:00:00 | |
| EA3GEO | 2026-09-05 13:01:28 | 41.24180 | 2.30336 | 70° | 16km/h | 1111m | -9.0m/s | 0°C | 0% | 0hPa | 0V | 00:00:00 | 00:00:00 | 00:00:00 | |
| EA3IBE | 2026-09-05 13:01:27 | 41.24178 | 2.30331 | 71° | 13km/h | 1122m | -9.9m/s | 0°C | 0% | 0hPa | 0V | 00:00:00 | 00:00:00 | 00:00:00 | |
| EA3GEO | 2026-09-05 13:01:23 | 41.24171 | 2.30313 | 86° | 13km/h | 1166m | -9.1m/s | 0°C | 0% | 0hPa | 0V | 00:00:00 | 00:00:00 | 00:00:00 | |
| EA3GEO | 2026-09-05 13:01:17 | 41.24164 | 2.30285 | 80° | 16km/h | 1228m | -9.1m/s | 0°C | 0% | 0hPa | 0V | 00:00:00 | 00:00:00 | 00:00:00 | |
| EA3IBE | 2026-09-05 13:01:15 | 41.24163 | 2.30274 | 91° | 18km/h | 1248m | -7.7m/s | 0°C | 0% | 0hPa | 0V | 00:00:00 | 00:00:00 | 00:00:00 | |
| EA3GEO | 2026-09-05 13:01:11 | 41.24160 | 2.30247 | 88° | 22km/h | 1288m | -8.2m/s | 0°C | 0% | 0hPa | 0V | 00:00:00 | 00:00:00 | 00:00:00 | |
| EA3GEO | 2026-09-05 13:01:05 | 41.24154 | 2.30205 | 82° | 24km/h | 1349m | -7.9m/s | 0°C | 0% | 0hPa | 0V | 00:00:00 | 00:00:00 | 00:00:00 | |
| EA3GEO | 2026-09-05 13:00:59 | 41.24149 | 2.30156 | 92° | 18km/h | 1408m | -8.1m/s | 0°C | 0% | 0hPa | 0V | 00:00:00 | 00:00:00 | 00:00:00 | |
| EA3IBE | 2026-09-05 13:00:55 | 41.24147 | 2.30121 | 87° | 29km/h | 1447m | -8.1m/s | 0°C | 0% | 0hPa | 0V | 00:00:00 | 00:00:00 | 00:00:00 | |
| EA3GEO | 2026-09-05 13:00:53 | 41.24147 | 2.30103 | 86° | 26km/h | 1467m | -8.9m/s | 0°C | 0% | 0hPa | 0V | 00:00:00 | 00:00:00 | 00:00:00 | |
| EA3GEO | 2026-09-05 13:00:47 | 41.24143 | 2.30048 | 97° | 26km/h | 1533m | -11.7m/s | 0°C | 0% | 0hPa | 0V | 00:00:00 | 00:00:00 | 00:00:00 | |
| EA3GEO | 2026-09-05 13:00:41 | 41.24137 | 2.29995 | 82° | 22km/h | 1601m | -11.1m/s | 0°C | 0% | 0hPa | 0V | 00:00:00 | 00:00:00 | 00:00:00 | |
| EA3IBE | 2026-09-05 13:00:36 | 41.24134 | 2.29951 | 80° | 29km/h | 1658m | -8.4m/s | 0°C | 0% | 0hPa | 0V | 00:00:00 | 00:00:00 | 00:00:00 | |
| EA3GEO | 2026-09-05 13:00:36 | 41.24134 | 2.29951 | 80° | 29km/h | 1658m | -8.4m/s | 0°C | 0% | 0hPa | 0V | 00:00:00 | 00:00:00 | 00:00:00 | |
| EA3IBE | 2026-09-05 13:00:29 | 41.24131 | 2.29889 | 96° | 31km/h | 1730m | -8.3m/s | 0°C | 0% | 0hPa | 0V | 00:00:00 | 00:00:00 | 00:00:00 | |
| EA3GEO | 2026-09-05 13:00:29 | 41.24131 | 2.29889 | 96° | 31km/h | 1730m | -8.3m/s | 0°C | 0% | 0hPa | 0V | 00:00:00 | 00:00:00 | 00:00:00 | |
| EA3GEO | 2026-09-05 13:00:23 | 41.24130 | 2.29834 | 87° | 26km/h | 1788m | -8.6m/s | 0°C | 0% | 0hPa | 0V | 00:00:00 | 00:00:00 | 00:00:00 | |
| EA3IBE | 2026-09-05 13:00:22 | 41.24129 | 2.29825 | 92° | 26km/h | 1798m | -7.6m/s | 0°C | 0% | 0hPa | 0V | 00:00:00 | 00:00:00 | 00:00:00 | |
| EA3GEO | 2026-09-05 13:00:19 | 41.24132 | 2.29782 | 93° | 27km/h | 1845m | -6.5m/s | 0°C | 0% | 0hPa | 0V | 00:00:00 | 00:00:00 | 00:00:00 | |
| EA3IBE | 2026-09-05 13:00:15 | 41.24132 | 2.29762 | 96° | 29km/h | 1864m | -7.7m/s | 0°C | 0% | 0hPa | 0V | 00:00:00 | 00:00:00 | 00:00:00 | |
| EA3GEO | 2026-09-05 13:00:11 | 41.24133 | 2.29725 | 80° | 27km/h | 1900m | -11.8m/s | 0°C | 0% | 0hPa | 0V | 00:00:00 | 00:00:00 | 00:00:00 | |
| EA3IBE | 2026-09-05 13:00:09 | 41.24134 | 2.29706 | 95° | 29km/h | 1922m | -9.1m/s | 0°C | 0% | 0hPa | 0V | 00:00:00 | 00:00:00 | 00:00:00 | |
| EA3GEO | 2026-09-05 13:00:05 | 41.24137 | 2.29665 | 91° | 27km/h | 1960m | -9.5m/s | 0°C | 0% | 0hPa | 0V | 00:00:00 | 00:00:00 | 00:00:00 | |
| EA3GEO | 2026-09-05 13:00:00 | 41.24142 | 2.29617 | 99° | 26km/h | 2006m | -8.8m/s | 0°C | 0% | 0hPa | 0V | 00:00:00 | 00:00:00 | 00:00:00 | |
| EA3IBE | 2026-09-05 12:59:57 | 41.24144 | 2.29591 | 103° | 27km/h | 2036m | -8.2m/s | 0°C | 0% | 0hPa | 0V | 00:00:00 | 00:00:00 | 00:00:00 | |
| EA3GEO | 2026-09-05 12:59:55 | 41.24145 | 2.29573 | 94° | 26km/h | 2056m | -8.5m/s | 0°C | 0% | 0hPa | 0V | 00:00:00 | 00:00:00 | 00:00:00 | |
| EA3IBE | 2026-09-05 12:59:52 | 41.24146 | 2.29549 | 85° | 26km/h | 2083m | -9.9m/s | 0°C | 0% | 0hPa | 0V | 00:00:00 | 00:00:00 | 00:00:00 | |
| EA3GEO | 2026-09-05 12:59:49 | 41.24149 | 2.29524 | 101° | 29km/h | 2114m | -6.8m/s | 0°C | 0% | 0hPa | 0V | 00:00:00 | 00:00:00 | 00:00:00 | |
| EA3IBE | 2026-09-05 12:59:46 | 41.24153 | 2.29499 | 105° | 26km/h | 2138m | -5.3m/s | 0°C | 0% | 0hPa | 0V | 00:00:00 | 00:00:00 | 00:00:00 | |
| EA3GEO | 2026-09-05 12:59:44 | 41.24156 | 2.29482 | 102° | 27km/h | 2155m | -8.5m/s | 0°C | 0% | 0hPa | 0V | 00:00:00 | 00:00:00 | 00:00:00 | |
| EA3IBE | 2026-09-05 12:59:39 | 41.24167 | 2.29443 | 112° | 22km/h | 2192m | -6.2m/s | 0°C | 0% | 0hPa | 0V | 00:00:00 | 00:00:00 | 00:00:00 | |
| EA3GEO | 2026-09-05 12:59:37 | 41.24171 | 2.29429 | 110° | 24km/h | 2209m | -8.6m/s | 0°C | 0% | 0hPa | 0V | 00:00:00 | 00:00:00 | 00:00:00 | |
| EA3IBE | 2026-09-05 12:59:33 | 41.24179 | 2.29402 | 115° | 24km/h | 2248m | -8.8m/s | 0°C | 0% | 0hPa | 0V | 00:00:00 | 00:00:00 | 00:00:00 | |
| EA3GEO | 2026-09-05 12:59:31 | 41.24184 | 2.29389 | 116° | 22km/h | 2265m | -6.2m/s | 0°C | 0% | 0hPa | 0V | 00:00:00 | 00:00:00 | 00:00:00 | |
| EA3GEO | 2026-09-05 12:59:26 | 41.24198 | 2.29361 | 122° | 16km/h | 2306m | -7.9m/s | 0°C | 0% | 0hPa | 0V | 00:00:00 | 00:00:00 | 00:00:00 | |
| EA3IBE | 2026-09-05 12:59:20 | 41.24212 | 2.29334 | 102° | 13km/h | 2357m | -10.3m/s | 0°C | 0% | 0hPa | 0V | 00:00:00 | 00:00:00 | 00:00:00 | |
| EA3IBE | 2026-09-05 12:59:14 | 41.24225 | 2.29305 | 135° | 13km/h | 2415m | -6.2m/s | 0°C | 0% | 0hPa | 0V | 00:00:00 | 00:00:00 | 00:00:00 | |
| EA3GEO | 2026-09-05 12:59:09 | 41.24239 | 2.29282 | 127° | 13km/h | 2454m | -7.1m/s | 0°C | 0% | 0hPa | 0V | 00:00:00 | 00:00:00 | 00:00:00 | |
| EA3IBE | 2026-09-05 12:59:08 | 41.24241 | 2.29277 | 131° | 18km/h | 2462m | -7.5m/s | 0°C | 0% | 0hPa | 0V | 00:00:00 | 00:00:00 | 00:00:00 | |
| EA3GEO | 2026-09-05 12:59:03 | 41.24256 | 2.29255 | 142° | 16km/h | 2508m | -7.7m/s | 0°C | 0% | 0hPa | 0V | 00:00:00 | 00:00:00 | 00:00:00 | |
| EA3IBE | 2026-09-05 12:59:02 | 41.24260 | 2.29251 | 138° | 18km/h | 2516m | -7.1m/s | 0°C | 0% | 0hPa | 0V | 00:00:00 | 00:00:00 | 00:00:00 | |
| EA3GEO | 2026-09-05 12:58:57 | 41.24280 | 2.29232 | 147° | 22km/h | 2560m | -7.2m/s | 0°C | 0% | 0hPa | 0V | 00:00:00 | 00:00:00 | 00:00:00 | |
| EA3IBE | 2026-09-05 12:58:55 | 41.24288 | 2.29224 | 141° | 20km/h | 2575m | -6.2m/s | 0°C | 0% | 0hPa | 0V | 00:00:00 | 00:00:00 | 00:00:00 | |
| EA3GEO | 2026-09-05 12:58:51 | 41.24303 | 2.29208 | 148° | 20km/h | 2612m | -9.5m/s | 0°C | 0% | 0hPa | 0V | 00:00:00 | 00:00:00 | 00:00:00 | |
| EA3IBE | 2026-09-05 12:58:50 | 41.24307 | 2.29205 | 150° | 15km/h | 2622m | -9.3m/s | 0°C | 0% | 0hPa | 0V | 00:00:00 | 00:00:00 | 00:00:00 | |
| EA3GEO | 2026-09-05 12:58:44 | 41.24331 | 2.29184 | 152° | 22km/h | 2677m | -6.1m/s | 0°C | 0% | 0hPa | 0V | 00:00:00 | 00:00:00 | 00:00:00 | |
| EA3IBE | 2026-09-05 12:58:38 | 41.24361 | 2.29162 | 155° | 24km/h | 2721m | -5.3m/s | 0°C | 0% | 0hPa | 0V | 00:00:00 | 00:00:00 | 00:00:00 | |
| EA3GEO | 2026-09-05 12:58:37 | 41.24366 | 2.29158 | 149° | 22km/h | 2727m | -5.3m/s | 0°C | 0% | 0hPa | 0V | 00:00:00 | 00:00:00 | 00:00:00 | |
| EA3IBE | 2026-09-05 12:58:32 | 41.24391 | 2.29142 | 148° | 24km/h | 2775m | -10.6m/s | 0°C | 0% | 0hPa | 0V | 00:00:00 | 00:00:00 | 00:00:00 | |
| EA3GEO | 2026-09-05 12:58:31 | 41.24396 | 2.29138 | 163° | 20km/h | 2784m | -7.0m/s | 0°C | 0% | 0hPa | 0V | 00:00:00 | 00:00:00 | 00:00:00 | |
| EA3GEO | 2026-09-05 12:58:26 | 41.24422 | 2.29125 | 158° | 20km/h | 2825m | -8.5m/s | 0°C | 0% | 0hPa | 0V | 00:00:00 | 00:00:00 | 00:00:00 | |
| EA3IBE | 2026-09-05 12:58:25 | 41.24427 | 2.29123 | 160° | 20km/h | 2835m | -7.8m/s | 0°C | 0% | 0hPa | 0V | 00:00:00 | 00:00:00 | 00:00:00 | |
| EA3GEO | 2026-09-05 12:58:21 | 41.24447 | 2.29113 | 158° | 18km/h | 2875m | -8.0m/s | 0°C | 0% | 0hPa | 0V | 00:00:00 | 00:00:00 | 00:00:00 | |
| EA3IBE | 2026-09-05 12:58:20 | 41.24451 | 2.29112 | 176° | 20km/h | 2884m | -7.6m/s | 0°C | 0% | 0hPa | 0V | 00:00:00 | 00:00:00 | 00:00:00 | |
| EA3GEO | 2026-09-05 12:58:16 | 41.24469 | 2.29108 | 168° | 20km/h | 2920m | -6.9m/s | 0°C | 0% | 0hPa | 0V | 00:00:00 | 00:00:00 | 00:00:00 | |
| EA3IBE | 2026-09-05 12:58:13 | 41.24484 | 2.29104 | 166° | 20km/h | 2950m | -6.9m/s | 0°C | 0% | 0hPa | 0V | 00:00:00 | 00:00:00 | 00:00:00 | |
| EA3GEO | 2026-09-05 12:58:11 | 41.24494 | 2.29102 | 169° | 22km/h | 2966m | -4.1m/s | 0°C | 0% | 0hPa | 0V | 00:00:00 | 00:00:00 | 00:00:00 | |
| EA3IBE | 2026-09-05 12:58:06 | 41.24520 | 2.29098 | 168° | 18km/h | 3002m | -8.7m/s | 0°C | 0% | 0hPa | 0V | 00:00:00 | 00:00:00 | 00:00:00 | |
| EA3GEO | 2026-09-05 12:58:05 | 41.24524 | 2.29097 | 175° | 18km/h | 3012m | -7.9m/s | 0°C | 0% | 0hPa | 0V | 00:00:00 | 00:00:00 | 00:00:00 | |
| EA3IBE | 2026-09-05 12:58:00 | 41.24547 | 2.29094 | 177° | 16km/h | 3060m | -7.4m/s | 0°C | 0% | 0hPa | 0V | 00:00:00 | 00:00:00 | 00:00:00 | |
| EA3GEO | 2026-09-05 12:57:59 | 41.24552 | 2.29094 | 176° | 18km/h | 3068m | -6.2m/s | 0°C | 0% | 0hPa | 0V | 00:00:00 | 00:00:00 | 00:00:00 | |
| EA3IBE | 2026-09-05 12:57:55 | 41.24571 | 2.29092 | 175° | 16km/h | 3093m | -7.9m/s | 0°C | 0% | 0hPa | 0V | 00:00:00 | 00:00:00 | 00:00:00 | |
| EA3GEO | 2026-09-05 12:57:54 | 41.24575 | 2.29093 | 191° | 20km/h | 3102m | -7.3m/s | 0°C | 0% | 0hPa | 0V | 00:00:00 | 00:00:00 | 00:00:00 | |
| EA3GEO | 2026-09-05 12:57:49 | 41.24602 | 2.29098 | 185° | 22km/h | 3146m | -9.0m/s | 0°C | 0% | 0hPa | 0V | 00:00:00 | 00:00:00 | 00:00:00 | |
| EA3GEO | 2026-09-05 12:57:44 | 41.24629 | 2.29102 | 182° | 24km/h | 3191m | -8.6m/s | 0°C | 0% | 0hPa | 0V | 00:00:00 | 00:00:00 | 00:00:00 | |
| EA3IBE | 2026-09-05 12:57:38 | 41.24666 | 2.29107 | 183° | 24km/h | 3242m | -5.5m/s | 0°C | 0% | 0hPa | 0V | 00:00:00 | 00:00:00 | 00:00:00 | |
| EA3GEO | 2026-09-05 12:57:33 | 41.24696 | 2.29116 | 190° | 27km/h | 3284m | -7.7m/s | 0°C | 0% | 0hPa | 0V | 00:00:00 | 00:00:00 | 00:00:00 | |
| EA3IBE | 2026-09-05 12:57:32 | 41.24703 | 2.29118 | 199° | 26km/h | 3292m | -6.5m/s | 0°C | 0% | 0hPa | 0V | 00:00:00 | 00:00:00 | 00:00:00 | |
| EA3GEO | 2026-09-05 12:57:27 | 41.24736 | 2.29129 | 201° | 26km/h | 3335m | -4.5m/s | 0°C | 0% | 0hPa | 0V | 00:00:00 | 00:00:00 | 00:00:00 | |
| EA3IBE | 2026-09-05 12:57:26 | 41.24742 | 2.29132 | 203° | 27km/h | 3342m | -6.8m/s | 0°C | 0% | 0hPa | 0V | 00:00:00 | 00:00:00 | 00:00:00 | |
| EA3GEO | 2026-09-05 12:57:21 | 41.24777 | 2.29145 | 197° | 29km/h | 3380m | -7.8m/s | 0°C | 0% | 0hPa | 0V | 00:00:00 | 00:00:00 | 00:00:00 | |
| EA3IBE | 2026-09-05 12:57:20 | 41.24785 | 2.29147 | 190° | 29km/h | 3388m | -6.9m/s | 0°C | 0% | 0hPa | 0V | 00:00:00 | 00:00:00 | 00:00:00 | |
| EA3GEO | 2026-09-05 12:57:15 | 41.24817 | 2.29157 | 195° | 33km/h | 3425m | -5.4m/s | 0°C | 0% | 0hPa | 0V | 00:00:00 | 00:00:00 | 00:00:00 | |
| EA3IBE | 2026-09-05 12:57:14 | 41.24825 | 2.29160 | 190° | 35km/h | 3433m | -8.8m/s | 0°C | 0% | 0hPa | 0V | 00:00:00 | 00:00:00 | 00:00:00 | |
| EA3GEO | 2026-09-05 12:57:09 | 41.24864 | 2.29175 | 200° | 27km/h | 3477m | -7.1m/s | 0°C | 0% | 0hPa | 0V | 00:00:00 | 00:00:00 | 00:00:00 | |
| EA3GEO | 2026-09-05 12:57:03 | 41.24912 | 2.29191 | 194° | 33km/h | 3527m | -5.8m/s | 0°C | 0% | 0hPa | 0V | 00:00:00 | 00:00:00 | 00:00:00 | |
| EA3IBE | 2026-09-05 12:57:01 | 41.24937 | 2.29198 | 192° | 31km/h | 3554m | -7.0m/s | 0°C | 0% | 0hPa | 0V | 00:00:00 | 00:00:00 | 00:00:00 | |
| EA3GEO | 2026-09-05 12:56:58 | 41.24953 | 2.29202 | 198° | 31km/h | 3571m | -8.0m/s | 0°C | 0% | 0hPa | 0V | 00:00:00 | 00:00:00 | 00:00:00 | |
| EA3GEO | 2026-09-05 12:56:53 | 41.24995 | 2.29214 | 189° | 35km/h | 3617m | -4.3m/s | 0°C | 0% | 0hPa | 0V | 00:00:00 | 00:00:00 | 00:00:00 | |
| EA3IBE | 2026-09-05 12:56:51 | 41.25014 | 2.29218 | 191° | 38km/h | 3632m | -8.2m/s | 0°C | 0% | 0hPa | 0V | 00:00:00 | 00:00:00 | 00:00:00 | |
| EA3GEO | 2026-09-05 12:56:47 | 41.25049 | 2.29227 | 191° | 35km/h | 3665m | -8.2m/s | 0°C | 0% | 0hPa | 0V | 00:00:00 | 00:00:00 | 00:00:00 | |
| EA3IBE | 2026-09-05 12:56:43 | 41.25084 | 2.29233 | 187° | 33km/h | 3694m | -6.5m/s | 0°C | 0% | 0hPa | 0V | 00:00:00 | 00:00:00 | 00:00:00 | |
| EA3GEO | 2026-09-05 12:56:42 | 41.25093 | 2.29234 | 187° | 37km/h | 3701m | -5.8m/s | 0°C | 0% | 0hPa | 0V | 00:00:00 | 00:00:00 | 00:00:00 | |
| EA3GEO | 2026-09-05 12:56:36 | 41.25139 | 2.29241 | 186° | 29km/h | 3748m | -5.9m/s | 0°C | 0% | 0hPa | 0V | 00:00:00 | 00:00:00 | 00:00:00 | |
| EA3GEO | 2026-09-05 12:56:29 | 41.25191 | 2.29247 | 184° | 33km/h | 3801m | -6.4m/s | 0°C | 0% | 0hPa | 0V | 00:00:00 | 00:00:00 | 00:00:00 | |
| EA3GEO | 2026-09-05 12:56:23 | 41.25240 | 2.29254 | 187° | 29km/h | 3853m | -5.7m/s | 0°C | 0% | 0hPa | 0V | 00:00:00 | 00:00:00 | 00:00:00 | |
| EA3GEO | 2026-09-05 12:56:17 | 41.25286 | 2.29256 | 181° | 29km/h | 3902m | -6.8m/s | 0°C | 0% | 0hPa | 0V | 00:00:00 | 00:00:00 | 00:00:00 | |
| EA3GEO | 2026-09-05 12:56:11 | 41.25336 | 2.29258 | 182° | 33km/h | 3948m | -6.0m/s | 0°C | 0% | 0hPa | 0V | 00:00:00 | 00:00:00 | 00:00:00 | |
| EA3IBE | 2026-09-05 12:56:10 | 41.25343 | 2.29258 | 175° | 27km/h | 3956m | -7.2m/s | 0°C | 0% | 0hPa | 0V | 00:00:00 | 00:00:00 | 00:00:00 | |
| EA3GEO | 2026-09-05 12:56:04 | 41.25389 | 2.29256 | 177° | 33km/h | 4002m | -5.1m/s | 0°C | 0% | 0hPa | 0V | 00:00:00 | 00:00:00 | 00:00:00 | |
| EA3IBE | 2026-09-05 12:55:59 | 41.25432 | 2.29253 | 184° | 40km/h | 4038m | -8.8m/s | 0°C | 0% | 0hPa | 0V | 00:00:00 | 00:00:00 | 00:00:00 | |
| EA3GEO | 2026-09-05 12:55:53 | 41.25486 | 2.29247 | 171° | 33km/h | 4090m | -6.2m/s | 0°C | 0% | 0hPa | 0V | 00:00:00 | 00:00:00 | 00:00:00 | |
| EA3IBE | 2026-09-05 12:55:48 | 41.25530 | 2.29238 | 169° | 33km/h | 4134m | -8.8m/s | 0°C | 0% | 0hPa | 0V | 00:00:00 | 00:00:00 | 00:00:00 | |
| EA3GEO | 2026-09-05 12:55:47 | 41.25538 | 2.29235 | 168° | 29km/h | 4143m | -10.4m/s | 0°C | 0% | 0hPa | 0V | 00:00:00 | 00:00:00 | 00:00:00 | |
| EA3GEO | 2026-09-05 12:55:41 | 41.25585 | 2.29223 | 175° | 29km/h | 4196m | -6.9m/s | 0°C | 0% | 0hPa | 0V | 00:00:00 | 00:00:00 | 00:00:00 | |
| EA3IBE | 2026-09-05 12:55:38 | 41.25609 | 2.29216 | 169° | 31km/h | 4219m | -8.3m/s | 0°C | 0% | 0hPa | 0V | 00:00:00 | 00:00:00 | 00:00:00 | |
| EA3GEO | 2026-09-05 12:55:36 | 41.25625 | 2.29212 | 168° | 31km/h | 4237m | -8.5m/s | 0°C | 0% | 0hPa | 0V | 00:00:00 | 00:00:00 | 00:00:00 | |
| EA3IBE | 2026-09-05 12:55:31 | 41.25665 | 2.29199 | 166° | 37km/h | 4278m | -5.8m/s | 0°C | 0% | 0hPa | 0V | 00:00:00 | 00:00:00 | 00:00:00 | |
| EA3GEO | 2026-09-05 12:55:30 | 41.25674 | 2.29195 | 163° | 37km/h | 4285m | -6.8m/s | 0°C | 0% | 0hPa | 0V | 00:00:00 | 00:00:00 | 00:00:00 | |
| EA3GEO | 2026-09-05 12:55:25 | 41.25716 | 2.29179 | 164° | 31km/h | 4322m | -5.8m/s | 0°C | 0% | 0hPa | 0V | 00:00:00 | 00:00:00 | 00:00:00 | |
| EA3GEO | 2026-09-05 12:55:20 | 41.25753 | 2.29163 | 164° | 29km/h | 4360m | -4.8m/s | 0°C | 0% | 0hPa | 0V | 00:00:00 | 00:00:00 | 00:00:00 | |
| EA3GEO | 2026-09-05 12:55:14 | 41.25796 | 2.29143 | 155° | 26km/h | 4401m | -8.7m/s | 0°C | 0% | 0hPa | 0V | 00:00:00 | 00:00:00 | 00:00:00 | |
| EA3GEO | 2026-09-05 12:55:07 | 41.25842 | 2.29115 | 155° | 27km/h | 4460m | -5.8m/s | 0°C | 0% | 0hPa | 0V | 00:00:00 | 00:00:00 | 00:00:00 | |
| EA3GEO | 2026-09-05 12:55:01 | 41.25882 | 2.29093 | 160° | 29km/h | 4505m | -7.5m/s | 0°C | 0% | 0hPa | 0V | 00:00:00 | 00:00:00 | 00:00:00 | |
| EA3GEO | 2026-09-05 12:54:56 | 41.25914 | 2.29078 | 162° | 31km/h | 4546m | -5.9m/s | 0°C | 0% | 0hPa | 0V | 00:00:00 | 00:00:00 | 00:00:00 | |
| EA3GEO | 2026-09-05 12:54:50 | 41.25954 | 2.29062 | 160° | 31km/h | 4597m | -6.5m/s | 0°C | 0% | 0hPa | 0V | 00:00:00 | 00:00:00 | 00:00:00 | |
| EA3GEO | 2026-09-05 12:54:44 | 41.25998 | 2.29041 | 157° | 29km/h | 4641m | -7.3m/s | 0°C | 0% | 0hPa | 0V | 00:00:00 | 00:00:00 | 00:00:00 | |
| EA3GEO | 2026-09-05 12:54:39 | 41.26033 | 2.29022 | 149° | 31km/h | 4683m | -7.3m/s | 0°C | 0% | 0hPa | 0V | 00:00:00 | 00:00:00 | 00:00:00 | |
| EA3GEO | 2026-09-05 12:54:33 | 41.26070 | 2.28997 | 158° | 26km/h | 4735m | -8.1m/s | 0°C | 0% | 0hPa | 0V | 00:00:00 | 00:00:00 | 00:00:00 | |
| EA3GEO | 2026-09-05 12:54:28 | 41.26099 | 2.28978 | 158° | 27km/h | 4776m | -6.3m/s | 0°C | 0% | 0hPa | 0V | 00:00:00 | 00:00:00 | 00:00:00 | |
| EA3GEO | 2026-09-05 12:54:22 | 41.26136 | 2.28956 | 155° | 24km/h | 4823m | -7.1m/s | 0°C | 0% | 0hPa | 0V | 00:00:00 | 00:00:00 | 00:00:00 | |
| EA3GEO | 2026-09-05 12:54:16 | 41.26170 | 2.28934 | 153° | 29km/h | 4872m | -6.0m/s | 0°C | 0% | 0hPa | 0V | 00:00:00 | 00:00:00 | 00:00:00 | |
| EA3GEO | 2026-09-05 12:54:10 | 41.26207 | 2.28908 | 147° | 31km/h | 4920m | -6.4m/s | 0°C | 0% | 0hPa | 0V | 00:00:00 | 00:00:00 | 00:00:00 | |
| EA3GEO | 2026-09-05 12:54:04 | 41.26242 | 2.28879 | 151° | 27km/h | 4962m | -6.3m/s | 0°C | 0% | 0hPa | 0V | 00:00:00 | 00:00:00 | 00:00:00 | |
| EA3GEO | 2026-09-05 12:53:58 | 41.26274 | 2.28850 | 142° | 22km/h | 5008m | -6.0m/s | 0°C | 0% | 0hPa | 0V | 00:00:00 | 00:00:00 | 00:00:00 | |
| EA3GEO | 2026-09-05 12:53:53 | 41.26300 | 2.28827 | 147° | 24km/h | 5045m | -7.5m/s | 0°C | 0% | 0hPa | 0V | 00:00:00 | 00:00:00 | 00:00:00 | |
| EA3GEO | 2026-09-05 12:53:48 | 41.26325 | 2.28802 | 134° | 24km/h | 5086m | -6.2m/s | 0°C | 0% | 0hPa | 0V | 00:00:00 | 00:00:00 | 00:00:00 | |
| EA3GEO | 2026-09-05 12:53:42 | 41.26350 | 2.28769 | 129° | 26km/h | 5131m | -5.4m/s | 0°C | 0% | 0hPa | 0V | 00:00:00 | 00:00:00 | 00:00:00 | |
| EA3GEO | 2026-09-05 12:53:36 | 41.26373 | 2.28734 | 131° | 26km/h | 5178m | -6.8m/s | 0°C | 0% | 0hPa | 0V | 00:00:00 | 00:00:00 | 00:00:00 | |
| EA3GEO | 2026-09-05 12:53:30 | 41.26392 | 2.28696 | 109° | 20km/h | 5226m | -7.2m/s | 0°C | 0% | 0hPa | 0V | 00:00:00 | 00:00:00 | 00:00:00 | |
| EA3GEO | 2026-09-05 12:53:24 | 41.26408 | 2.28647 | 109° | 26km/h | 5273m | -8.3m/s | 0°C | 0% | 0hPa | 0V | 00:00:00 | 00:00:00 | 00:00:00 | |
| EA3GEO | 2026-09-05 12:53:18 | 41.26418 | 2.28594 | 97° | 27km/h | 5325m | -6.2m/s | 0°C | 0% | 0hPa | 0V | 00:00:00 | 00:00:00 | 00:00:00 | |
| EA3GEO | 2026-09-05 12:53:12 | 41.26422 | 2.28541 | 101° | 26km/h | 5370m | -6.6m/s | 0°C | 0% | 0hPa | 0V | 00:00:00 | 00:00:00 | 00:00:00 | |
| EA3GEO | 2026-09-05 12:53:07 | 41.26425 | 2.28493 | 93° | 29km/h | 5409m | -5.5m/s | 0°C | 0% | 0hPa | 0V | 00:00:00 | 00:00:00 | 00:00:00 | |
| EA3GEO | 2026-09-05 12:53:01 | 41.26424 | 2.28436 | 91° | 29km/h | 5455m | -6.2m/s | 0°C | 0% | 0hPa | 0V | 00:00:00 | 00:00:00 | 00:00:00 | |
| EA3GEO | 2026-09-05 12:52:55 | 41.26422 | 2.28374 | 82° | 33km/h | 5504m | -6.4m/s | 0°C | 0% | 0hPa | 0V | 00:00:00 | 00:00:00 | 00:00:00 | |
| EA3GEO | 2026-09-05 12:52:50 | 41.26418 | 2.28317 | 90° | 38km/h | 5542m | -6.4m/s | 0°C | 0% | 0hPa | 0V | 00:00:00 | 00:00:00 | 00:00:00 | |
| EA3GEO | 2026-09-05 12:52:45 | 41.26418 | 2.28256 | 87° | 38km/h | 5579m | -5.7m/s | 0°C | 0% | 0hPa | 0V | 00:00:00 | 00:00:00 | 00:00:00 | |
| EA3GEO | 2026-09-05 12:52:40 | 41.26415 | 2.28194 | 87° | 35km/h | 5619m | -8.0m/s | 0°C | 0% | 0hPa | 0V | 00:00:00 | 00:00:00 | 00:00:00 | |
| EA3GEO | 2026-09-05 12:52:34 | 41.26412 | 2.28123 | 86° | 37km/h | 5670m | -7.6m/s | 0°C | 0% | 0hPa | 0V | 00:00:00 | 00:00:00 | 00:00:00 | |
| EA3IBE | 2026-09-05 12:52:30 | 41.26412 | 2.28074 | 85° | 35km/h | 5699m | -6.6m/s | 0°C | 0% | 0hPa | 0V | 00:00:00 | 00:00:00 | 00:00:00 | |
| EA3GEO | 2026-09-05 12:52:29 | 41.26412 | 2.28062 | 87° | 37km/h | 5706m | -5.8m/s | 0°C | 0% | 0hPa | 0V | 00:00:00 | 00:00:00 | 00:00:00 | |
| EA3IBE | 2026-09-05 12:52:11 | 41.26395 | 2.27848 | 79° | 38km/h | 5848m | -7.0m/s | 0°C | 0% | 0hPa | 0V | 00:00:00 | 00:00:00 | 00:00:00 | |
| EA3IBE | 2026-09-05 12:52:04 | 41.26385 | 2.27763 | 82° | 33km/h | 5910m | -8.6m/s | 0°C | 0% | 0hPa | 0V | 00:00:00 | 00:00:00 | 00:00:00 | |
| EA3GEO | 2026-09-05 12:52:02 | 41.26384 | 2.27753 | 83° | 33km/h | 5920m | -6.3m/s | 0°C | 0% | 0hPa | 0V | 00:00:00 | 00:00:00 | 00:00:00 | |
| EA3IBE | 2026-09-05 12:51:55 | 41.26378 | 2.27686 | 93° | 29km/h | 5975m | -6.4m/s | 0°C | 0% | 0hPa | 0V | 00:00:00 | 00:00:00 | 00:00:00 | |
| EA3GEO | 2026-09-05 12:51:49 | 41.26378 | 2.27632 | 94° | 26km/h | 6018m | -7.3m/s | 0°C | 0% | 0hPa | 0V | 00:00:00 | 00:00:00 | 00:00:00 | |
| EA3IBE | 2026-09-05 12:51:45 | 41.26382 | 2.27599 | 101° | 24km/h | 6050m | -7.5m/s | 0°C | 0% | 0hPa | 0V | 00:00:00 | 00:00:00 | 00:00:00 | |
| EA3GEO | 2026-09-05 12:51:43 | 41.26384 | 2.27583 | 112° | 22km/h | 6066m | -7.9m/s | 0°C | 0% | 0hPa | 0V | 00:00:00 | 00:00:00 | 00:00:00 | |
| EA3IBE | 2026-09-05 12:51:40 | 41.26388 | 2.27562 | 109° | 24km/h | 6090m | -6.8m/s | 0°C | 0% | 0hPa | 0V | 00:00:00 | 00:00:00 | 00:00:00 | |
| EA3GEO | 2026-09-05 12:51:38 | 41.26392 | 2.27547 | 109° | 24km/h | 6104m | -5.6m/s | 0°C | 0% | 0hPa | 0V | 00:00:00 | 00:00:00 | 00:00:00 | |
| EA3GEO | 2026-09-05 12:51:33 | 41.26402 | 2.27513 | 116° | 24km/h | 6142m | -5.4m/s | 0°C | 0% | 0hPa | 0V | 00:00:00 | 00:00:00 | 00:00:00 | |
| EA3GEO | 2026-09-05 12:51:28 | 41.26413 | 2.27479 | 113° | 20km/h | 6183m | -7.8m/s | 0°C | 0% | 0hPa | 0V | 00:00:00 | 00:00:00 | 00:00:00 | |
| EA3IBE | 2026-09-05 12:51:21 | 41.26426 | 2.27433 | 101° | 18km/h | 6244m | -5.9m/s | 0°C | 0% | 0hPa | 0V | 00:00:00 | 00:00:00 | 00:00:00 | |
| EA3GEO | 2026-09-05 12:51:20 | 41.26428 | 2.27427 | 113° | 22km/h | 6252m | -6.1m/s | 0°C | 0% | 0hPa | 0V | 00:00:00 | 00:00:00 | 00:00:00 | |
| EA3GEO | 2026-09-05 12:51:15 | 41.26436 | 2.27398 | 112° | 18km/h | 6292m | -6.8m/s | 0°C | 0% | 0hPa | 0V | 00:00:00 | 00:00:00 | 00:00:00 | |
| EA3IBE | 2026-09-05 12:51:14 | 41.26438 | 2.27392 | 114° | 20km/h | 6301m | -7.4m/s | 0°C | 0% | 0hPa | 0V | 00:00:00 | 00:00:00 | 00:00:00 | |
| EA3GEO | 2026-09-05 12:51:10 | 41.26448 | 2.27369 | 109° | 22km/h | 6332m | -6.2m/s | 0°C | 0% | 0hPa | 0V | 00:00:00 | 00:00:00 | 00:00:00 | |
| EA3GEO | 2026-09-05 12:51:03 | 41.26463 | 2.27322 | 113° | 22km/h | 6386m | -7.2m/s | 0°C | 0% | 0hPa | 0V | 00:00:00 | 00:00:00 | 00:00:00 | |
| EA3IBE | 2026-09-05 12:51:01 | 41.26469 | 2.27303 | 107° | 22km/h | 6411m | -7.8m/s | 0°C | 0% | 0hPa | 0V | 00:00:00 | 00:00:00 | 00:00:00 | |
| EA3GEO | 2026-09-05 12:50:57 | 41.26475 | 2.27282 | 116° | 20km/h | 6436m | -5.4m/s | 0°C | 0% | 0hPa | 0V | 00:00:00 | 00:00:00 | 00:00:00 | |
| EA3GEO | 2026-09-05 12:50:51 | 41.26489 | 2.27243 | 118° | 22km/h | 6481m | -5.8m/s | 0°C | 0% | 0hPa | 0V | 00:00:00 | 00:00:00 | 00:00:00 | |
| EA3GEO | 2026-09-05 12:50:46 | 41.26503 | 2.27209 | 106° | 18km/h | 6517m | -7.2m/s | 0°C | 0% | 0hPa | 0V | 00:00:00 | 00:00:00 | 00:00:00 | |
| EA3GEO | 2026-09-05 12:50:40 | 41.26517 | 2.27170 | 118° | 26km/h | 6567m | -7.9m/s | 0°C | 0% | 0hPa | 0V | 00:00:00 | 00:00:00 | 00:00:00 | |
| EA3IBE | 2026-09-05 12:50:37 | 41.26524 | 2.27151 | 132° | 18km/h | 6595m | -5.7m/s | 0°C | 0% | 0hPa | 0V | 00:00:00 | 00:00:00 | 00:00:00 | |
| EA3GEO | 2026-09-05 12:50:34 | 41.26530 | 2.27132 | 115° | 24km/h | 6618m | -5.7m/s | 0°C | 0% | 0hPa | 0V | 00:00:00 | 00:00:00 | 00:00:00 | |
| EA3GEO | 2026-09-05 12:50:30 | 41.26542 | 2.27097 | 117° | 24km/h | 6655m | -7.4m/s | 0°C | 0% | 0hPa | 0V | 00:00:00 | 00:00:00 | 00:00:00 | |
| EA3IBE | 2026-09-05 12:50:26 | 41.26549 | 2.27076 | 116° | 24km/h | 6679m | -6.6m/s | 0°C | 0% | 0hPa | 0V | 00:00:00 | 00:00:00 | 00:00:00 | |
| EA3GEO | 2026-09-05 12:50:23 | 41.26558 | 2.27055 | 118° | 26km/h | 6702m | -5.6m/s | 0°C | 0% | 0hPa | 0V | 00:00:00 | 00:00:00 | 00:00:00 | |
| EA3GEO | 2026-09-05 12:50:17 | 41.26575 | 2.27011 | 120° | 26km/h | 6754m | -8.6m/s | 0°C | 0% | 0hPa | 0V | 00:00:00 | 00:00:00 | 00:00:00 | |
| EA3GEO | 2026-09-05 12:50:12 | 41.26592 | 2.26976 | 124° | 27km/h | 6798m | -6.7m/s | 0°C | 0% | 0hPa | 0V | 00:00:00 | 00:00:00 | 00:00:00 | |
| EA3GEO | 2026-09-05 12:50:06 | 41.26614 | 2.26932 | 126° | 26km/h | 6842m | -6.0m/s | 0°C | 0% | 0hPa | 0V | 00:00:00 | 00:00:00 | 00:00:00 | |
| EA3GEO | 2026-09-05 12:49:59 | 41.26641 | 2.26882 | 120° | 26km/h | 6896m | -6.5m/s | 0°C | 0% | 0hPa | 0V | 00:00:00 | 00:00:00 | 00:00:00 | |
| EA3IBE | 2026-09-05 12:49:53 | 41.26664 | 2.26840 | 138° | 24km/h | 6941m | -3.3m/s | 0°C | 0% | 0hPa | 0V | 00:00:00 | 00:00:00 | 00:00:00 | |
| EA3GEO | 2026-09-05 12:49:48 | 41.26685 | 2.26808 | 140° | 26km/h | 6974m | -6.1m/s | 0°C | 0% | 0hPa | 0V | 00:00:00 | 00:00:00 | 00:00:00 | |
| EA3GEO | 2026-09-05 12:49:43 | 41.26707 | 2.26778 | 136° | 24km/h | 7011m | -7.5m/s | 0°C | 0% | 0hPa | 0V | 00:00:00 | 00:00:00 | 00:00:00 | |
| EA3GEO | 2026-09-05 12:49:37 | 41.26734 | 2.26747 | 140° | 24km/h | 7061m | -6.3m/s | 0°C | 0% | 0hPa | 0V | 00:00:00 | 00:00:00 | 00:00:00 | |
| EA3GEO | 2026-09-05 12:49:32 | 41.26758 | 2.26725 | 153° | 26km/h | 7104m | -5.8m/s | 0°C | 0% | 0hPa | 0V | 00:00:00 | 00:00:00 | 00:00:00 | |
| EA3GEO | 2026-09-05 12:49:26 | 41.26788 | 2.26702 | 155° | 22km/h | 7158m | -5.1m/s | 0°C | 0% | 0hPa | 0V | 00:00:00 | 00:00:00 | 00:00:00 | |
| EA3GEO | 2026-09-05 12:49:20 | 41.26817 | 2.26684 | 157° | 24km/h | 7204m | -5.8m/s | 0°C | 0% | 0hPa | 0V | 00:00:00 | 00:00:00 | 00:00:00 | |
| EA3GEO | 2026-09-05 12:49:15 | 41.26848 | 2.26670 | 160° | 26km/h | 7242m | -6.0m/s | 0°C | 0% | 0hPa | 0V | 00:00:00 | 00:00:00 | 00:00:00 | |
| EA3GEO | 2026-09-05 12:49:09 | 41.26883 | 2.26657 | 167° | 26km/h | 7291m | -5.6m/s | 0°C | 0% | 0hPa | 0V | 00:00:00 | 00:00:00 | 00:00:00 | |
| EA3GEO | 2026-09-05 12:49:04 | 41.26915 | 2.26647 | 173° | 27km/h | 7330m | -5.5m/s | 0°C | 0% | 0hPa | 0V | 00:00:00 | 00:00:00 | 00:00:00 | |
| EA3GEO | 2026-09-05 12:48:59 | 41.26946 | 2.26639 | 166° | 27km/h | 7368m | -6.2m/s | 0°C | 0% | 0hPa | 0V | 00:00:00 | 00:00:00 | 00:00:00 | |
| EA3GEO | 2026-09-05 12:48:53 | 41.26983 | 2.26628 | 166° | 24km/h | 7413m | -5.8m/s | 0°C | 0% | 0hPa | 0V | 00:00:00 | 00:00:00 | 00:00:00 | |
| EA3GEO | 2026-09-05 12:48:48 | 41.27021 | 2.26611 | 162° | 24km/h | 7457m | -6.5m/s | 0°C | 0% | 0hPa | 0V | 00:00:00 | 00:00:00 | 00:00:00 | |
| EA3GEO | 2026-09-05 12:48:41 | 41.27059 | 2.26592 | 164° | 26km/h | 7503m | -6.4m/s | 0°C | 0% | 0hPa | 0V | 00:00:00 | 00:00:00 | 00:00:00 | |
| EA3IBE | 2026-09-05 12:48:37 | 41.27084 | 2.26580 | 155° | 27km/h | 7534m | -5.3m/s | 0°C | 0% | 0hPa | 0V | 00:00:00 | 00:00:00 | 00:00:00 | |
| EA3GEO | 2026-09-05 12:48:35 | 41.27095 | 2.26573 | 164° | 24km/h | 7548m | -6.9m/s | 0°C | 0% | 0hPa | 0V | 00:00:00 | 00:00:00 | 00:00:00 | |
| EA3GEO | 2026-09-05 12:48:29 | 41.27131 | 2.26553 | 151° | 31km/h | 7598m | -7.5m/s | 0°C | 0% | 0hPa | 0V | 00:00:00 | 00:00:00 | 00:00:00 | |
| EA3GEO | 2026-09-05 12:48:23 | 41.27170 | 2.26520 | 148° | 26km/h | 7647m | -7.7m/s | 0°C | 0% | 0hPa | 0V | 00:00:00 | 00:00:00 | 00:00:00 | |
| EA3GEO | 2026-09-05 12:48:18 | 41.27201 | 2.26491 | 147° | 31km/h | 7687m | -6.5m/s | 0°C | 0% | 0hPa | 0V | 00:00:00 | 00:00:00 | 00:00:00 | |
| EA3IBE | 2026-09-05 12:48:14 | 41.27228 | 2.26466 | 143° | 33km/h | 7718m | -6.4m/s | 0°C | 0% | 0hPa | 0V | 00:00:00 | 00:00:00 | 00:00:00 | |
| EA3GEO | 2026-09-05 12:48:12 | 41.27241 | 2.26453 | 145° | 29km/h | 7732m | -6.5m/s | 0°C | 0% | 0hPa | 0V | 00:00:00 | 00:00:00 | 00:00:00 | |
| EA3GEO | 2026-09-05 12:48:06 | 41.27276 | 2.26417 | 139° | 29km/h | 7778m | -8.1m/s | 0°C | 0% | 0hPa | 0V | 00:00:00 | 00:00:00 | 00:00:00 | |
| EA3GEO | 2026-09-05 12:48:00 | 41.27312 | 2.26373 | 136° | 33km/h | 7824m | -6.3m/s | 0°C | 0% | 0hPa | 0V | 00:00:00 | 00:00:00 | 00:00:00 | |
| EA3GEO | 2026-09-05 12:47:55 | 41.27342 | 2.26334 | 136° | 31km/h | 7864m | -7.7m/s | 0°C | 0% | 0hPa | 0V | 00:00:00 | 00:00:00 | 00:00:00 | |
| EA3GEO | 2026-09-05 12:47:49 | 41.27380 | 2.26283 | 133° | 35km/h | 7914m | -7.3m/s | 0°C | 0% | 0hPa | 0V | 00:00:00 | 00:00:00 | 00:00:00 | |
| EA3GEO | 2026-09-05 12:47:43 | 41.27416 | 2.26228 | 129° | 38km/h | 7959m | -6.4m/s | 0°C | 0% | 0hPa | 0V | 00:00:00 | 00:00:00 | 00:00:00 | |
| EA3GEO | 2026-09-05 12:47:39 | 41.27444 | 2.26177 | 129° | 35km/h | 8000m | -7.2m/s | 0°C | 0% | 0hPa | 0V | 00:00:00 | 00:00:00 | 00:00:00 | |
| EA3GEO | 2026-09-05 12:47:30 | 41.27492 | 2.26104 | 132° | 35km/h | 8066m | -6.7m/s | 0°C | 0% | 0hPa | 0V | 00:00:00 | 00:00:00 | 00:00:00 | |
| EA3GEO | 2026-09-05 12:47:25 | 41.27521 | 2.26060 | 132° | 33km/h | 8108m | -10.2m/s | 0°C | 0% | 0hPa | 0V | 00:00:00 | 00:00:00 | 00:00:00 | |
| EA3GEO | 2026-09-05 12:47:18 | 41.27558 | 2.25996 | 121° | 33km/h | 8171m | -7.8m/s | 0°C | 0% | 0hPa | 0V | 00:00:00 | 00:00:00 | 00:00:00 | |
| EA3GEO | 2026-09-05 12:47:13 | 41.27583 | 2.25949 | 124° | 31km/h | 8216m | -9.9m/s | 0°C | 0% | 0hPa | 0V | 00:00:00 | 00:00:00 | 00:00:00 | |
| EA3GEO | 2026-09-05 12:47:07 | 41.27613 | 2.25890 | 129° | 35km/h | 8268m | -6.7m/s | 0°C | 0% | 0hPa | 0V | 00:00:00 | 00:00:00 | 00:00:00 | |
| EA3GEO | 2026-09-05 12:47:02 | 41.27638 | 2.25846 | 126° | 31km/h | 8310m | -7.0m/s | 0°C | 0% | 0hPa | 0V | 00:00:00 | 00:00:00 | 00:00:00 | |
| EA3GEO | 2026-09-05 12:46:56 | 41.27664 | 2.25790 | 119° | 35km/h | 8359m | -6.7m/s | 0°C | 0% | 0hPa | 0V | 00:00:00 | 00:00:00 | 00:00:00 | |
| EA3GEO | 2026-09-05 12:46:51 | 41.27685 | 2.25741 | 117° | 33km/h | 8402m | -8.6m/s | 0°C | 0% | 0hPa | 0V | 00:00:00 | 00:00:00 | 00:00:00 | |
| EA3GEO | 2026-09-05 12:46:46 | 41.27703 | 2.25692 | 120° | 33km/h | 8456m | -8.1m/s | 0°C | 0% | 0hPa | 0V | 00:00:00 | 00:00:00 | 00:00:00 | |
| EA3GEO | 2026-09-05 12:46:41 | 41.27722 | 2.25642 | 116° | 35km/h | 8498m | -9.1m/s | 0°C | 0% | 0hPa | 0V | 00:00:00 | 00:00:00 | 00:00:00 | |
| EA3GEO | 2026-09-05 12:46:36 | 41.27741 | 2.25596 | 121° | 29km/h | 8544m | -7.8m/s | 0°C | 0% | 0hPa | 0V | 00:00:00 | 00:00:00 | 00:00:00 | |
| EA3GEO | 2026-09-05 12:46:30 | 41.27768 | 2.25543 | 121° | 31km/h | 8598m | -8.4m/s | 0°C | 0% | 0hPa | 0V | 00:00:00 | 00:00:00 | 00:00:00 | |
| EA3GEO | 2026-09-05 12:46:24 | 41.27795 | 2.25488 | 119° | 29km/h | 8651m | -9.3m/s | 0°C | 0% | 0hPa | 0V | 00:00:00 | 00:00:00 | 00:00:00 | |
| EA3GEO | 2026-09-05 12:46:18 | 41.27817 | 2.25437 | 126° | 29km/h | 8713m | -12.3m/s | 0°C | 0% | 0hPa | 0V | 00:00:00 | 00:00:00 | 00:00:00 | |
| EA3GEO | 2026-09-05 12:46:13 | 41.27836 | 2.25394 | 122° | 27km/h | 8765m | -7.3m/s | 0°C | 0% | 0hPa | 0V | 00:00:00 | 00:00:00 | 00:00:00 | |
| EA3GEO | 2026-09-05 12:46:07 | 41.27859 | 2.25342 | 118° | 33km/h | 8822m | -8.8m/s | 0°C | 0% | 0hPa | 0V | 00:00:00 | 00:00:00 | 00:00:00 | |
| EA3GEO | 2026-09-05 12:46:02 | 41.27880 | 2.25299 | 124° | 29km/h | 8867m | -7.3m/s | 0°C | 0% | 0hPa | 0V | 00:00:00 | 00:00:00 | 00:00:00 | |
| EA3GEO | 2026-09-05 12:45:56 | 41.27905 | 2.25249 | 121° | 26km/h | 8919m | -11.1m/s | 0°C | 0% | 0hPa | 0V | 00:00:00 | 00:00:00 | 00:00:00 | |
| EA3GEO | 2026-09-05 12:45:44 | 41.27944 | 2.25154 | 118° | 27km/h | 9034m | -8.1m/s | 0°C | 0% | 0hPa | 0V | 00:00:00 | 00:00:00 | 00:00:00 | |
| EA3GEO | 2026-09-05 12:45:38 | 41.27967 | 2.25107 | 125° | 26km/h | 9096m | -11.8m/s | 0°C | 0% | 0hPa | 0V | 00:00:00 | 00:00:00 | 00:00:00 | |
| EA3GEO | 2026-09-05 12:45:33 | 41.27984 | 2.25070 | 124° | 27km/h | 9155m | -12.5m/s | 0°C | 0% | 0hPa | 0V | 00:00:00 | 00:00:00 | 00:00:00 | |
| EA3GEO | 2026-09-05 12:45:26 | 41.28009 | 2.25024 | 130° | 16km/h | 9249m | -13.2m/s | 0°C | 0% | 0hPa | 0V | 00:00:00 | 00:00:00 | 00:00:00 | |
| EA3GEO | 2026-09-05 12:45:20 | 41.28028 | 2.24984 | 126° | 24km/h | 9315m | -8.2m/s | 0°C | 0% | 0hPa | 0V | 00:00:00 | 00:00:00 | 00:00:00 | |
| EA3GEO | 2026-09-05 12:45:14 | 41.28052 | 2.24945 | 126° | 22km/h | 9378m | -11.6m/s | 0°C | 0% | 0hPa | 0V | 00:00:00 | 00:00:00 | 00:00:00 | |
| EA3GEO | 2026-09-05 12:45:08 | 41.28074 | 2.24905 | 132° | 26km/h | 9452m | -10.3m/s | 0°C | 0% | 0hPa | 0V | 00:00:00 | 00:00:00 | 00:00:00 | |
| EA3GEO | 2026-09-05 12:44:58 | 41.28116 | 2.24838 | 130° | 24km/h | 9572m | -11.1m/s | 0°C | 0% | 0hPa | 0V | 00:00:00 | 00:00:00 | 00:00:00 | |
| EA3GEO | 2026-09-05 12:44:52 | 41.28137 | 2.24803 | 135° | 20km/h | 9640m | -12.1m/s | 0°C | 0% | 0hPa | 0V | 00:00:00 | 00:00:00 | 00:00:00 | |
| EA3GEO | 2026-09-05 12:44:45 | 41.28159 | 2.24765 | 121° | 24km/h | 9723m | -10.0m/s | 0°C | 0% | 0hPa | 0V | 00:00:00 | 00:00:00 | 00:00:00 | |
| EA3IBE | 2026-09-05 12:44:44 | 41.28163 | 2.24758 | 128° | 24km/h | 9734m | -10.8m/s | 0°C | 0% | 0hPa | 0V | 00:00:00 | 00:00:00 | 00:00:00 | |
| EA3GEO | 2026-09-05 12:44:39 | 41.28180 | 2.24727 | 130° | 18km/h | 9791m | -8.7m/s | 0°C | 0% | 0hPa | 0V | 00:00:00 | 00:00:00 | 00:00:00 | |
| EA3GEO | 2026-09-05 12:44:34 | 41.28197 | 2.24699 | 134° | 22km/h | 9856m | -12.8m/s | 0°C | 0% | 0hPa | 0V | 00:00:00 | 00:00:00 | 00:00:00 | |
| EA3GEO | 2026-09-05 12:44:29 | 41.28220 | 2.24660 | 135° | 24km/h | 9934m | -12.4m/s | 0°C | 0% | 0hPa | 0V | 00:00:00 | 00:00:00 | 00:00:00 | |
| EA3GEO | 2026-09-05 12:44:20 | 41.28252 | 2.24606 | 128° | 27km/h | 10038m | -10.9m/s | 0°C | 0% | 0hPa | 0V | 00:00:00 | 00:00:00 | 00:00:00 | |
| EA3GEO | 2026-09-05 12:44:13 | 41.28279 | 2.24554 | 128° | 26km/h | 10131m | -13.0m/s | 0°C | 0% | 0hPa | 0V | 00:00:00 | 00:00:00 | 00:00:00 | |
| EA3GEO | 2026-09-05 12:44:07 | 41.28303 | 2.24506 | 121° | 26km/h | 10210m | -12.7m/s | 0°C | 0% | 0hPa | 0V | 00:00:00 | 00:00:00 | 00:00:00 | |
| EA3GEO | 2026-09-05 12:43:59 | 41.28333 | 2.24442 | 128° | 26km/h | 10307m | -13.8m/s | 0°C | 0% | 0hPa | 0V | 00:00:00 | 00:00:00 | 00:00:00 | |
| EA3GEO | 2026-09-05 12:43:51 | 41.28369 | 2.24378 | 136° | 27km/h | 10416m | -13.5m/s | 0°C | 0% | 0hPa | 0V | 00:00:00 | 00:00:00 | 00:00:00 | |
| EA3GEO | 2026-09-05 12:43:42 | 41.28415 | 2.24309 | 135° | 31km/h | 10532m | -12.9m/s | 0°C | 0% | 0hPa | 0V | 00:00:00 | 00:00:00 | 00:00:00 | |
| EA3GEO | 2026-09-05 12:43:33 | 41.28462 | 2.24233 | 126° | 31km/h | 10641m | -11.9m/s | 0°C | 0% | 0hPa | 0V | 00:00:00 | 00:00:00 | 00:00:00 | |
| EA3GEO | 2026-09-05 12:43:23 | 41.28512 | 2.24143 | 133° | 33km/h | 10763m | -10.8m/s | 0°C | 0% | 0hPa | 0V | 00:00:00 | 00:00:00 | 00:00:00 | |
| EA3GEO | 2026-09-05 12:43:16 | 41.28549 | 2.24084 | 133° | 33km/h | 10844m | -9.4m/s | 0°C | 0% | 0hPa | 0V | 00:00:00 | 00:00:00 | 00:00:00 | |
| EA3GEO | 2026-09-05 12:43:06 | 41.28605 | 2.24007 | 131° | 33km/h | 10953m | -10.2m/s | 0°C | 0% | 0hPa | 0V | 00:00:00 | 00:00:00 | 00:00:00 | |
| EA3GEO | 2026-09-05 12:42:58 | 41.28645 | 2.23946 | 133° | 27km/h | 11041m | -10.8m/s | 0°C | 0% | 0hPa | 0V | 00:00:00 | 00:00:00 | 00:00:00 | |
| EA3GEO | 2026-09-05 12:42:51 | 41.28683 | 2.23897 | 139° | 27km/h | 11113m | -9.3m/s | 0°C | 0% | 0hPa | 0V | 00:00:00 | 00:00:00 | 00:00:00 | |
| EA3GEO | 2026-09-05 12:42:46 | 41.28708 | 2.23865 | 139° | 24km/h | 11161m | -8.2m/s | 0°C | 0% | 0hPa | 0V | 00:00:00 | 00:00:00 | 00:00:00 | |
| EA3GEO | 2026-09-05 12:42:40 | 41.28737 | 2.23828 | 138° | 22km/h | 11219m | -9.3m/s | 0°C | 0% | 0hPa | 0V | 00:00:00 | 00:00:00 | 00:00:00 | |
| EA3GEO | 2026-09-05 12:42:34 | 41.28762 | 2.23793 | 141° | 22km/h | 11281m | -8.3m/s | 0°C | 0% | 0hPa | 0V | 00:00:00 | 00:00:00 | 00:00:00 | |
| EA3GEO | 2026-09-05 12:42:27 | 41.28787 | 2.23758 | 138° | 20km/h | 11363m | -9.3m/s | 0°C | 0% | 0hPa | 0V | 00:00:00 | 00:00:00 | 00:00:00 | |
| EA3GEO | 2026-09-05 12:42:21 | 41.28807 | 2.23730 | 133° | 16km/h | 11434m | -11.8m/s | 0°C | 0% | 0hPa | 0V | 00:00:00 | 00:00:00 | 00:00:00 | |
| EA3GEO | 2026-09-05 12:42:15 | 41.28825 | 2.23697 | 122° | 16km/h | 11497m | -9.9m/s | 0°C | 0% | 0hPa | 0V | 00:00:00 | 00:00:00 | 00:00:00 | |
| EA3GEO | 2026-09-05 12:42:05 | 41.28846 | 2.23645 | 125° | 18km/h | 11599m | -12.1m/s | 0°C | 0% | 0hPa | 0V | 00:00:00 | 00:00:00 | 00:00:00 | |
| EA3GEO | 2026-09-05 12:41:55 | 41.28865 | 2.23590 | 113° | 15km/h | 11717m | -11.5m/s | 0°C | 0% | 0hPa | 0V | 00:00:00 | 00:00:00 | 00:00:00 | |
| EA3GEO | 2026-09-05 12:41:49 | 41.28881 | 2.23553 | 119° | 22km/h | 11785m | -8.8m/s | 0°C | 0% | 0hPa | 0V | 00:00:00 | 00:00:00 | 00:00:00 | |
| EA3GEO | 2026-09-05 12:41:43 | 41.28901 | 2.23513 | 128° | 22km/h | 11854m | -10.4m/s | 0°C | 0% | 0hPa | 0V | 00:00:00 | 00:00:00 | 00:00:00 | |
| EA3GEO | 2026-09-05 12:41:36 | 41.28930 | 2.23470 | 148° | 24km/h | 11925m | -9.4m/s | 0°C | 0% | 0hPa | 0V | 00:00:00 | 00:00:00 | 00:00:00 | |
| EA3GEO | 2026-09-05 12:41:24 | 41.28997 | 2.23430 | 174° | 24km/h | 12053m | -11.2m/s | 0°C | 0% | 0hPa | 0V | 00:00:00 | 00:00:00 | 00:00:00 | |
| EA3GEO | 2026-09-05 12:41:17 | 41.29035 | 2.23431 | 204° | 18km/h | 12133m | -10.9m/s | 0°C | 0% | 0hPa | 0V | 00:00:00 | 00:00:00 | 00:00:00 | |
| EA3GEO | 2026-09-05 12:41:11 | 41.29065 | 2.23444 | 206° | 20km/h | 12198m | -10.7m/s | 0°C | 0% | 0hPa | 0V | 00:00:00 | 00:00:00 | 00:00:00 | |
| EA3GEO | 2026-09-05 12:41:04 | 41.29100 | 2.23460 | 199° | 18km/h | 12276m | -10.1m/s | 0°C | 0% | 0hPa | 0V | 00:00:00 | 00:00:00 | 00:00:00 | |
| EA3GEO | 2026-09-05 12:40:57 | 41.29133 | 2.23478 | 209° | 16km/h | 12351m | -9.9m/s | 0°C | 0% | 0hPa | 0V | 00:00:00 | 00:00:00 | 00:00:00 | |
| EA3GEO | 2026-09-05 12:40:49 | 41.29162 | 2.23506 | 229° | 20km/h | 12433m | -8.6m/s | 0°C | 0% | 0hPa | 0V | 00:00:00 | 00:00:00 | 00:00:00 | |
| EA3GEO | 2026-09-05 12:40:44 | 41.29182 | 2.23527 | 206° | 15km/h | 12482m | -9.0m/s | 0°C | 0% | 0hPa | 0V | 00:00:00 | 00:00:00 | 00:00:00 | |
| EA3GEO | 2026-09-05 12:40:06 | 41.29326 | 2.23608 | 213° | 18km/h | 12824m | -7.9m/s | 0°C | 0% | 0hPa | 0V | 00:00:00 | 00:00:00 | 00:00:00 | |
| EA3GEO | 2026-09-05 12:40:01 | 41.29346 | 2.23623 | 223° | 18km/h | 12871m | -9.6m/s | 0°C | 0% | 0hPa | 0V | 00:00:00 | 00:00:00 | 00:00:00 | |
| EA3GEO | 2026-09-05 12:39:54 | 41.29380 | 2.23647 | 217° | 20km/h | 12956m | -11.6m/s | 0°C | 0% | 0hPa | 0V | 00:00:00 | 00:00:00 | 00:00:00 | |
| EA3GEO | 2026-09-05 12:39:49 | 41.29406 | 2.23669 | 222° | 26km/h | 13023m | -12.6m/s | 0°C | 0% | 0hPa | 0V | 00:00:00 | 00:00:00 | 00:00:00 | |
| EA3GEO | 2026-09-05 12:39:12 | 41.29493 | 2.23821 | 292° | 11km/h | 13498m | -8.6m/s | 0°C | 0% | 0hPa | 0V | 00:00:00 | 00:00:00 | 00:00:00 | |
| EA3GEO | 2026-09-05 12:39:04 | 41.29486 | 2.23841 | 308° | 2km/h | 13582m | -9.5m/s | 0°C | 0% | 0hPa | 0V | 00:00:00 | 00:00:00 | 00:00:00 | |
| EA3GEO | 2026-09-05 12:38:38 | 41.29449 | 2.23824 | 49° | 7km/h | 13930m | -12.7m/s | 0°C | 0% | 0hPa | 0V | 00:00:00 | 00:00:00 | 00:00:00 | |
| EA3GEO | 2026-09-05 12:38:32 | 41.29447 | 2.23805 | 96° | 13km/h | 14011m | -9.4m/s | 0°C | 0% | 0hPa | 0V | 00:00:00 | 00:00:00 | 00:00:00 | |
| EA3GEO | 2026-09-05 12:38:07 | 41.29497 | 2.23653 | 122° | 26km/h | 14344m | -13.9m/s | 0°C | 0% | 0hPa | 0V | 00:00:00 | 00:00:00 | 00:00:00 | |
| EA3GEO | 2026-09-05 12:38:00 | 41.29515 | 2.23609 | 111° | 15km/h | 14446m | -11.4m/s | 0°C | 0% | 0hPa | 0V | 00:00:00 | 00:00:00 | 00:00:00 | |
| EA3GEO | 2026-09-05 12:37:52 | 41.29530 | 2.23565 | 115° | 24km/h | 14560m | -13.3m/s | 0°C | 0% | 0hPa | 0V | 00:00:00 | 00:00:00 | 00:00:00 | |
| EA3GEO | 2026-09-05 12:37:27 | 41.29573 | 2.23382 | 94° | 22km/h | 14932m | -13.2m/s | 0°C | 0% | 0hPa | 0V | 00:00:00 | 00:00:00 | 00:00:00 | |
| EA3GEO | 2026-09-05 12:36:57 | 41.29649 | 2.23224 | 117° | 18km/h | 15395m | -14.3m/s | 0°C | 0% | 0hPa | 0V | 00:00:00 | 00:00:00 | 00:00:00 | |
| EA3GEO | 2026-09-05 12:36:46 | 41.29670 | 2.23138 | 112° | 33km/h | 15566m | -14.5m/s | 0°C | 0% | 0hPa | 0V | 00:00:00 | 00:00:00 | 00:00:00 | |
| EA3GEO | 2026-09-05 12:36:33 | 41.29713 | 2.23019 | 125° | 24km/h | 15766m | -11.8m/s | 0°C | 0% | 0hPa | 0V | 00:00:00 | 00:00:00 | 00:00:00 | |
| EA3GEO | 2026-09-05 12:36:20 | 41.29746 | 2.22905 | 108° | 24km/h | 15940m | -12.9m/s | 0°C | 0% | 0hPa | 0V | 00:00:00 | 00:00:00 | 00:00:00 | |
| EA3GEO | 2026-09-05 12:36:06 | 41.29769 | 2.22794 | 87° | 27km/h | 16133m | -11.7m/s | 0°C | 0% | 0hPa | 0V | 00:00:00 | 00:00:00 | 00:00:00 | |
| EA3GEO | 2026-09-05 12:35:58 | 41.29781 | 2.22729 | 124° | 27km/h | 16257m | -12.2m/s | 0°C | 0% | 0hPa | 0V | 00:00:00 | 00:00:00 | 00:00:00 | |
| EA3GEO | 2026-09-05 12:35:53 | 41.29796 | 2.22684 | 115° | 27km/h | 16324m | -12.2m/s | 0°C | 0% | 0hPa | 0V | 00:00:00 | 00:00:00 | 00:00:00 | |
| EA3GEO | 2026-09-05 12:35:45 | 41.29826 | 2.22607 | 124° | 31km/h | 16434m | -14.0m/s | 0°C | 0% | 0hPa | 0V | 00:00:00 | 00:00:00 | 00:00:00 | |
| EA3GEO | 2026-09-05 12:35:24 | 41.29920 | 2.22471 | 144° | 16km/h | 16763m | -13.5m/s | 0°C | 0% | 0hPa | 0V | 00:00:00 | 00:00:00 | 00:00:00 | |
| EA3GEO | 2026-09-05 12:35:19 | 41.29942 | 2.22461 | 162° | 20km/h | 16826m | -11.9m/s | 0°C | 0% | 0hPa | 0V | 00:00:00 | 00:00:00 | 00:00:00 | |
| EA3IBE | 2026-09-05 12:35:16 | 41.29956 | 2.22454 | 144° | 16km/h | 16869m | -14.2m/s | 0°C | 0% | 0hPa | 0V | 00:00:00 | 00:00:00 | 00:00:00 | |
| EA3GEO | 2026-09-05 12:35:14 | 41.29962 | 2.22449 | 135° | 13km/h | 16897m | -11.6m/s | 0°C | 0% | 0hPa | 0V | 00:00:00 | 00:00:00 | 00:00:00 | |
| EA3GEO | 2026-09-05 12:35:08 | 41.29982 | 2.22430 | 141° | 20km/h | 16979m | -14.1m/s | 0°C | 0% | 0hPa | 0V | 00:00:00 | 00:00:00 | 00:00:00 | |
| EA3GEO | 2026-09-05 12:34:57 | 41.30033 | 2.22403 | 166° | 15km/h | 17120m | -11.9m/s | 0°C | 0% | 0hPa | 0V | 00:00:00 | 00:00:00 | 00:00:00 | |
| EA3GEO | 2026-09-05 12:34:48 | 41.30062 | 2.22399 | 170° | 11km/h | 17234m | -10.5m/s | 0°C | 0% | 0hPa | 0V | 00:00:00 | 00:00:00 | 00:00:00 | |
| EA3GEO | 2026-09-05 12:34:38 | 41.30098 | 2.22395 | 192° | 15km/h | 17359m | -10.3m/s | 0°C | 0% | 0hPa | 0V | 00:00:00 | 00:00:00 | 00:00:00 | |
| EA3GEO | 2026-09-05 12:34:23 | 41.30135 | 2.22393 | 165° | 9km/h | 17542m | -11.1m/s | 0°C | 0% | 0hPa | 0V | 00:00:00 | 00:00:00 | 00:00:00 | |
| EA3IBE | 2026-09-05 12:34:07 | 41.30159 | 2.22353 | 62° | 7km/h | 17751m | -11.6m/s | 0°C | 0% | 0hPa | 0V | 00:00:00 | 00:00:00 | 00:00:00 | |
| EA3GEO | 2026-09-05 12:33:45 | 41.30115 | 2.22286 | 91° | 16km/h | 18041m | -15.7m/s | 0°C | 0% | 0hPa | 0V | 00:00:00 | 00:00:00 | 00:00:00 | |
| EA3GEO | 2026-09-05 12:33:39 | 41.30117 | 2.22251 | 114° | 18km/h | 18138m | -13.6m/s | 0°C | 0% | 0hPa | 0V | 00:00:00 | 00:00:00 | 00:00:00 | |
| EA3GEO | 2026-09-05 12:33:28 | 41.30134 | 2.22180 | 106° | 24km/h | 18314m | -16.3m/s | 0°C | 0% | 0hPa | 0V | 00:00:00 | 00:00:00 | 00:00:00 | |
| EA3GEO | 2026-09-05 12:33:13 | 41.30162 | 2.22128 | 143° | 7km/h | 18562m | -16.3m/s | 0°C | 0% | 0hPa | 0V | 00:00:00 | 00:00:00 | 00:00:00 | |
| EA3GEO | 2026-09-05 12:33:01 | 41.30195 | 2.22116 | 189° | 16km/h | 18765m | -18.9m/s | 0°C | 0% | 0hPa | 0V | 00:00:00 | 00:00:00 | 00:00:00 | |
| EA3GEO | 2026-09-05 12:31:38 | 41.30245 | 2.22131 | 225° | 9km/h | 20226m | -15.7m/s | 0°C | 0% | 0hPa | 0V | 00:00:00 | 00:00:00 | 00:00:00 | |
| EA3GEO | 2026-09-05 12:31:32 | 41.30253 | 2.22153 | 268° | 18km/h | 20320m | -13.0m/s | 0°C | 0% | 0hPa | 0V | 00:00:00 | 00:00:00 | 00:00:00 | |
| EA3GEO | 2026-09-05 12:31:16 | 41.30226 | 2.22245 | 248° | 9km/h | 20581m | -17.6m/s | 0°C | 0% | 0hPa | 0V | 00:00:00 | 00:00:00 | 00:00:00 | |
| EA3GEO | 2026-09-05 12:30:54 | 41.30231 | 2.22318 | 241° | 11km/h | 20970m | -17.1m/s | 0°C | 0% | 0hPa | 0V | 00:00:00 | 00:00:00 | 00:00:00 | |
| EA3GEO | 2026-09-05 12:30:34 | 41.30239 | 2.22394 | 273° | 13km/h | 21313m | -15.8m/s | 0°C | 0% | 0hPa | 0V | 00:00:00 | 00:00:00 | 00:00:00 | |
| EA3GEO | 2026-09-05 12:30:25 | 41.30218 | 2.22434 | 306° | 15km/h | 21473m | -15.5m/s | 0°C | 0% | 0hPa | 0V | 00:00:00 | 00:00:00 | 00:00:00 | |
| EA3GEO | 2026-09-05 12:30:20 | 41.30207 | 2.22452 | 336° | 11km/h | 21567m | -16.5m/s | 0°C | 0% | 0hPa | 0V | 00:00:00 | 00:00:00 | 00:00:00 | |
| EA3GEO | 2026-09-05 12:30:14 | 41.30194 | 2.22450 | 360° | 7km/h | 21671m | -19.0m/s | 0°C | 0% | 0hPa | 0V | 00:00:00 | 00:00:00 | 00:00:00 | |
| EA3IBE | 2026-09-05 12:30:08 | 41.30188 | 2.22444 | 112° | 7km/h | 21778m | -15.3m/s | 0°C | 0% | 0hPa | 0V | 00:00:00 | 00:00:00 | 00:00:00 | |
| EA3IBE | 2026-09-05 12:29:57 | 41.30201 | 2.22426 | 129° | 9km/h | 21937m | -12.0m/s | 0°C | 0% | 0hPa | 0V | 00:00:00 | 00:00:00 | 00:00:00 | |
| EA3IBE | 2026-09-05 12:29:51 | 41.30219 | 2.22414 | 172° | 16km/h | 22009m | -9.7m/s | 0°C | 0% | 0hPa | 0V | 00:00:00 | 00:00:00 | 00:00:00 | |
| EA3GEO | 2026-09-05 12:28:34 | 41.30229 | 2.22575 | 322° | 18km/h | 23553m | -21.2m/s | 0°C | 0% | 0hPa | 0V | 00:00:00 | 00:00:00 | 00:00:00 | |
| EA3GEO | 2026-09-05 12:28:28 | 41.30220 | 2.22604 | 276° | 20km/h | 23663m | -15.9m/s | 0°C | 0% | 0hPa | 0V | 00:00:00 | 00:00:00 | 00:00:00 | |
| EA3GEO | 2026-09-05 12:27:33 | 41.30141 | 2.22987 | 304° | 31km/h | 24831m | -24.1m/s | 0°C | 0% | 0hPa | 0V | 00:00:00 | 00:00:00 | 00:00:00 | |
| EA3IBE | 2026-09-05 12:26:45 | 41.29895 | 2.23154 | 343° | 24km/h | 25801m | -23.0m/s | 0°C | 0% | 0hPa | 0V | 00:00:00 | 00:00:00 | 00:00:00 | |
| EA3GEO | 2026-09-05 12:26:37 | 41.29844 | 2.23151 | 10° | 22km/h | 25973m | -21.7m/s | 0°C | 0% | 0hPa | 0V | 00:00:00 | 00:00:00 | 00:00:00 | |
| EA3IBE | 2026-09-05 12:25:41 | 41.29699 | 2.23117 | 351° | 26km/h | 26988m | -17.5m/s | 0°C | 0% | 0hPa | 0V | 00:00:00 | 00:00:00 | 00:00:00 | |
| EA3IBE | 2026-09-05 12:25:32 | 41.29675 | 2.23117 | 67° | 16km/h | 27145m | -18.1m/s | 0°C | 0% | 0hPa | 0V | 00:00:00 | 00:00:00 | 00:00:00 | |
| EA3IBE | 2026-09-05 12:25:20 | 41.29667 | 2.23091 | 262° | 5km/h | 27354m | -18.0m/s | 0°C | 0% | 0hPa | 0V | 00:00:00 | 00:00:00 | 00:00:00 | |
| EA3GEO | 2026-09-05 12:25:18 | 41.29665 | 2.23093 | 52° | 2km/h | 27393m | -17.4m/s | 0°C | 0% | 0hPa | 0V | 00:00:00 | 00:00:00 | 00:00:00 | |
| EA3IBE | 2026-09-05 12:25:12 | 41.29667 | 2.23092 | 217° | 11km/h | 27486m | -15.2m/s | 0°C | 0% | 0hPa | 0V | 00:00:00 | 00:00:00 | 00:00:00 | |
| EA3IBE | 2026-09-05 12:25:07 | 41.29668 | 2.23103 | 360° | 4km/h | 27572m | -15.9m/s | 0°C | 0% | 0hPa | 0V | 00:00:00 | 00:00:00 | 00:00:00 | |
| EA3GEO | 2026-09-05 12:24:59 | 41.29656 | 2.23108 | 310° | 15km/h | 27720m | -18.2m/s | 0°C | 0% | 0hPa | 0V | 00:00:00 | 00:00:00 | 00:00:00 | |
| EA3IBE | 2026-09-05 12:24:51 | 41.29644 | 2.23134 | 0° | 0km/h | 27850m | -15.6m/s | 0°C | 0% | 0hPa | 0V | 00:00:00 | 00:00:00 | 00:00:00 | |
| EA3IBE | 2026-09-05 12:24:45 | 41.29626 | 2.23151 | 329° | 26km/h | 27937m | -19.9m/s | 0°C | 0% | 0hPa | 0V | 00:00:00 | 00:00:00 | 00:00:00 | |
| EA3GEO | 2026-09-05 12:24:44 | 41.29621 | 2.23154 | 336° | 16km/h | 27958m | -22.1m/s | 0°C | 0% | 0hPa | 0V | 00:00:00 | 00:00:00 | 00:00:00 | |
| EA3IBE | 2026-09-05 12:24:38 | 41.29619 | 2.23151 | 154° | 4km/h | 28070m | -18.3m/s | 0°C | 0% | 0hPa | 0V | 00:00:00 | 00:00:00 | 00:00:00 | |
| EA3GEO | 2026-09-05 12:24:32 | 41.29604 | 2.23158 | 327° | 13km/h | 28178m | -17.0m/s | 0°C | 0% | 0hPa | 0V | 00:00:00 | 00:00:00 | 00:00:00 | |
| EA3IBE | 2026-09-05 12:24:27 | 41.29622 | 2.23169 | 191° | 37km/h | 28245m | -17.0m/s | 0°C | 0% | 0hPa | 0V | 00:00:00 | 00:00:00 | 00:00:00 | |
| EA3GEO | 2026-09-05 12:24:14 | 41.29638 | 2.23232 | 93° | 5km/h | 28280m | 5.7m/s | 0°C | 0% | 0hPa | 0V | 00:00:00 | 00:00:00 | 00:00:00 | |
| EA3IBE | 2026-09-05 12:24:10 | 41.29639 | 2.23239 | 260° | 20km/h | 28258m | 4.4m/s | 0°C | 0% | 0hPa | 0V | 00:00:00 | 00:00:00 | 00:00:00 | |
| EA3GEO | 2026-09-05 12:24:08 | 41.29639 | 2.23251 | 288° | 15km/h | 28248m | 6.1m/s | 0°C | 0% | 0hPa | 0V | 00:00:00 | 00:00:00 | 00:00:00 | |
| EA3IBE | 2026-09-05 12:24:04 | 41.29634 | 2.23252 | 134° | 5km/h | 28225m | 6.7m/s | 0°C | 0% | 0hPa | 0V | 00:00:00 | 00:00:00 | 00:00:00 | |
| EA3GEO | 2026-09-05 12:23:57 | 41.29638 | 2.23263 | 286° | 11km/h | 28184m | 5.9m/s | 0°C | 0% | 0hPa | 0V | 00:00:00 | 00:00:00 | 00:00:00 | |
| EA3IBE | 2026-09-05 12:23:52 | 41.29636 | 2.23264 | 40° | 5km/h | 28157m | 5.7m/s | 0°C | 0% | 0hPa | 0V | 00:00:00 | 00:00:00 | 00:00:00 | |
| EA3GEO | 2026-09-05 12:23:51 | 41.29636 | 2.23264 | 293° | 2km/h | 28150m | 7.0m/s | 0°C | 0% | 0hPa | 0V | 00:00:00 | 00:00:00 | 00:00:00 | |
| EA3GEO | 2026-09-05 12:23:45 | 41.29624 | 2.23270 | 48° | 24km/h | 28117m | 4.7m/s | 0°C | 0% | 0hPa | 0V | 00:00:00 | 00:00:00 | 00:00:00 | |
| EA3IBE | 2026-09-05 12:23:44 | 41.29621 | 2.23265 | 66° | 16km/h | 28111m | 7.7m/s | 0°C | 0% | 0hPa | 0V | 00:00:00 | 00:00:00 | 00:00:00 | |
| EA3GEO | 2026-09-05 12:23:38 | 41.29614 | 2.23267 | 346° | 18km/h | 28077m | 4.1m/s | 0°C | 0% | 0hPa | 0V | 00:00:00 | 00:00:00 | 00:00:00 | |
| EA3IBE | 2026-09-05 12:23:35 | 41.29608 | 2.23271 | 153° | 4km/h | 28060m | 5.7m/s | 0°C | 0% | 0hPa | 0V | 00:00:00 | 00:00:00 | 00:00:00 | |
| EA3GEO | 2026-09-05 12:23:28 | 41.29591 | 2.23269 | 282° | 18km/h | 28021m | 5.9m/s | 0°C | 0% | 0hPa | 0V | 00:00:00 | 00:00:00 | 00:00:00 | |
| EA3IBE | 2026-09-05 12:23:26 | 41.29590 | 2.23279 | 297° | 11km/h | 28012m | 5.2m/s | 0°C | 0% | 0hPa | 0V | 00:00:00 | 00:00:00 | 00:00:00 | |
| EA3IBE | 2026-09-05 12:23:17 | 41.29569 | 2.23295 | 5° | 5km/h | 27961m | 6.7m/s | 0°C | 0% | 0hPa | 0V | 00:00:00 | 00:00:00 | 00:00:00 | |
| EA3GEO | 2026-09-05 12:23:13 | 41.29555 | 2.23309 | 296° | 24km/h | 27932m | 3.8m/s | 0°C | 0% | 0hPa | 0V | 00:00:00 | 00:00:00 | 00:00:00 | |
| EA3IBE | 2026-09-05 12:23:12 | 41.29555 | 2.23309 | 296° | 24km/h | 27932m | 3.8m/s | 0°C | 0% | 0hPa | 0V | 00:00:00 | 00:00:00 | 00:00:00 | |
| EA3IBE | 2026-09-05 12:23:07 | 41.29545 | 2.23331 | 274° | 15km/h | 27904m | 6.5m/s | 0°C | 0% | 0hPa | 0V | 00:00:00 | 00:00:00 | 00:00:00 | |
| EA3IBE | 2026-09-05 12:23:02 | 41.29536 | 2.23350 | 297° | 20km/h | 27875m | 7.2m/s | 0°C | 0% | 0hPa | 0V | 00:00:00 | 00:00:00 | 00:00:00 | |
| EA3IBE | 2026-09-05 12:22:56 | 41.29523 | 2.23383 | 290° | 15km/h | 27838m | 5.8m/s | 0°C | 0% | 0hPa | 0V | 00:00:00 | 00:00:00 | 00:00:00 | |
| EA3IBE | 2026-09-05 12:22:51 | 41.29512 | 2.23399 | 323° | 16km/h | 27811m | 6.7m/s | 0°C | 0% | 0hPa | 0V | 00:00:00 | 00:00:00 | 00:00:00 | |
| EA3IBE | 2026-09-05 12:22:43 | 41.29497 | 2.23422 | 315° | 13km/h | 27764m | 4.9m/s | 0°C | 0% | 0hPa | 0V | 00:00:00 | 00:00:00 | 00:00:00 | |
| EA3IBE | 2026-09-05 12:22:38 | 41.29482 | 2.23440 | 311° | 22km/h | 27734m | 5.0m/s | 0°C | 0% | 0hPa | 0V | 00:00:00 | 00:00:00 | 00:00:00 | |
| EA3GEO | 2026-09-05 12:22:32 | 41.29469 | 2.23444 | 281° | 11km/h | 27697m | 5.6m/s | 0°C | 0% | 0hPa | 0V | 00:00:00 | 00:00:00 | 00:00:00 | |
| EA3IBE | 2026-09-05 12:22:30 | 41.29468 | 2.23452 | 277° | 13km/h | 27687m | 6.7m/s | 0°C | 0% | 0hPa | 0V | 00:00:00 | 00:00:00 | 00:00:00 | |
| EA3GEO | 2026-09-05 12:22:25 | 41.29459 | 2.23466 | 336° | 9km/h | 27658m | 5.9m/s | 0°C | 0% | 0hPa | 0V | 00:00:00 | 00:00:00 | 00:00:00 | |
| EA3IBE | 2026-09-05 12:22:22 | 41.29456 | 2.23463 | 95° | 5km/h | 27640m | 5.1m/s | 0°C | 0% | 0hPa | 0V | 00:00:00 | 00:00:00 | 00:00:00 | |
| EA3GEO | 2026-09-05 12:22:18 | 41.29458 | 2.23482 | 274° | 22km/h | 27616m | 5.4m/s | 0°C | 0% | 0hPa | 0V | 00:00:00 | 00:00:00 | 00:00:00 | |
| EA3IBE | 2026-09-05 12:22:16 | 41.29457 | 2.23490 | 13° | 4km/h | 27605m | 6.7m/s | 0°C | 0% | 0hPa | 0V | 00:00:00 | 00:00:00 | 00:00:00 | |
| EA3IBE | 2026-09-05 12:22:10 | 41.29459 | 2.23497 | 253° | 13km/h | 27569m | 5.9m/s | 0°C | 0% | 0hPa | 0V | 00:00:00 | 00:00:00 | 00:00:00 | |
| EA3IBE | 2026-09-05 12:22:05 | 41.29466 | 2.23525 | 251° | 4km/h | 27541m | 7.4m/s | 0°C | 0% | 0hPa | 0V | 00:00:00 | 00:00:00 | 00:00:00 | |
| EA3IBE | 2026-09-05 12:22:00 | 41.29469 | 2.23524 | 233° | 26km/h | 27502m | 5.2m/s | 0°C | 0% | 0hPa | 0V | 00:00:00 | 00:00:00 | 00:00:00 | |
| EA3IBE | 2026-09-05 12:21:54 | 41.29468 | 2.23543 | 338° | 7km/h | 27471m | 7.1m/s | 0°C | 0% | 0hPa | 0V | 00:00:00 | 00:00:00 | 00:00:00 | |
| EA3IBE | 2026-09-05 12:21:47 | 41.29469 | 2.23549 | 210° | 15km/h | 27427m | 5.9m/s | 0°C | 0% | 0hPa | 0V | 00:00:00 | 00:00:00 | 00:00:00 | |
| EA3GEO | 2026-09-05 12:21:41 | 41.29464 | 2.23546 | 46° | 5km/h | 27388m | 6.2m/s | 0°C | 0% | 0hPa | 0V | 00:00:00 | 00:00:00 | 00:00:00 | |
| EA3IBE | 2026-09-05 12:21:36 | 41.29461 | 2.23542 | 86° | 5km/h | 27359m | 5.5m/s | 0°C | 0% | 0hPa | 0V | 00:00:00 | 00:00:00 | 00:00:00 | |
| EA3GEO | 2026-09-05 12:21:35 | 41.29461 | 2.23541 | 138° | 5km/h | 27353m | 7.0m/s | 0°C | 0% | 0hPa | 0V | 00:00:00 | 00:00:00 | 00:00:00 | |
| EA3IBE | 2026-09-05 12:21:28 | 41.29443 | 2.23530 | 16° | 16km/h | 27315m | 6.2m/s | 0°C | 0% | 0hPa | 0V | 00:00:00 | 00:00:00 | 00:00:00 | |
| EA3GEO | 2026-09-05 12:21:27 | 41.29441 | 2.23529 | 0° | 0km/h | 27308m | 7.9m/s | 0°C | 0% | 0hPa | 0V | 00:00:00 | 00:00:00 | 00:00:00 | |
| EA3GEO | 2026-09-05 12:21:20 | 41.29438 | 2.23502 | 20° | 22km/h | 27265m | 6.3m/s | 0°C | 0% | 0hPa | 0V | 00:00:00 | 00:00:00 | 00:00:00 | |
| EA3IBE | 2026-09-05 12:21:19 | 41.29433 | 2.23500 | 25° | 16km/h | 27259m | 4.2m/s | 0°C | 0% | 0hPa | 0V | 00:00:00 | 00:00:00 | 00:00:00 | |
| EA3IBE | 2026-09-05 12:21:13 | 41.29434 | 2.23480 | 319° | 5km/h | 27225m | 5.8m/s | 0°C | 0% | 0hPa | 0V | 00:00:00 | 00:00:00 | 00:00:00 | |
| EA3IBE | 2026-09-05 12:21:07 | 41.29403 | 2.23473 | 5° | 7km/h | 27188m | 5.7m/s | 0°C | 0% | 0hPa | 0V | 00:00:00 | 00:00:00 | 00:00:00 | |
| EA3IBE | 2026-09-05 12:21:00 | 41.29396 | 2.23472 | 325° | 27km/h | 27144m | 5.3m/s | 0°C | 0% | 0hPa | 0V | 00:00:00 | 00:00:00 | 00:00:00 | |
| EA3IBE | 2026-09-05 12:20:54 | 41.29371 | 2.23473 | 286° | 9km/h | 27104m | 5.4m/s | 0°C | 0% | 0hPa | 0V | 00:00:00 | 00:00:00 | 00:00:00 | |
| EA3IBE | 2026-09-05 12:20:48 | 41.29357 | 2.23492 | 321° | 18km/h | 27067m | 6.9m/s | 0°C | 0% | 0hPa | 0V | 00:00:00 | 00:00:00 | 00:00:00 | |
| EA3GEO | 2026-09-05 12:20:44 | 41.29343 | 2.23495 | 353° | 16km/h | 27043m | 4.6m/s | 0°C | 0% | 0hPa | 0V | 00:00:00 | 00:00:00 | 00:00:00 | |
| EA3IBE | 2026-09-05 12:20:43 | 41.29340 | 2.23498 | 320° | 16km/h | 27037m | 7.4m/s | 0°C | 0% | 0hPa | 0V | 00:00:00 | 00:00:00 | 00:00:00 | |
| EA3IBE | 2026-09-05 12:20:34 | 41.29321 | 2.23534 | 324° | 16km/h | 26981m | 8.0m/s | 0°C | 0% | 0hPa | 0V | 00:00:00 | 00:00:00 | 00:00:00 | |
| EA3IBE | 2026-09-05 12:20:27 | 41.29304 | 2.23558 | 28° | 5km/h | 26936m | 7.4m/s | 0°C | 0% | 0hPa | 0V | 00:00:00 | 00:00:00 | 00:00:00 | |
| EA3IBE | 2026-09-05 12:20:11 | 41.29269 | 2.23590 | 328° | 16km/h | 26837m | 4.9m/s | 0°C | 0% | 0hPa | 0V | 00:00:00 | 00:00:00 | 00:00:00 | |
| EA3IBE | 2026-09-05 12:20:04 | 41.29251 | 2.23607 | 16° | 11km/h | 26795m | 9.6m/s | 0°C | 0% | 0hPa | 0V | 00:00:00 | 00:00:00 | 00:00:00 | |
| EA3GEO | 2026-09-05 12:20:00 | 41.29244 | 2.23607 | 289° | 15km/h | 26768m | 5.1m/s | 0°C | 0% | 0hPa | 0V | 00:00:00 | 00:00:00 | 00:00:00 | |
| EA3IBE | 2026-09-05 12:19:56 | 41.29239 | 2.23623 | 307° | 13km/h | 26745m | 6.5m/s | 0°C | 0% | 0hPa | 0V | 00:00:00 | 00:00:00 | 00:00:00 | |
| EA3IBE | 2026-09-05 12:19:50 | 41.29227 | 2.23622 | 317° | 5km/h | 26709m | 6.8m/s | 0°C | 0% | 0hPa | 0V | 00:00:00 | 00:00:00 | 00:00:00 | |
| EA3GEO | 2026-09-05 12:19:47 | 41.29223 | 2.23638 | 300° | 20km/h | 26690m | 4.1m/s | 0°C | 0% | 0hPa | 0V | 00:00:00 | 00:00:00 | 00:00:00 | |
| EA3GEO | 2026-09-05 12:19:42 | 41.29212 | 2.23632 | 41° | 13km/h | 26661m | 4.9m/s | 0°C | 0% | 0hPa | 0V | 00:00:00 | 00:00:00 | 00:00:00 | |
| EA3IBE | 2026-09-05 12:19:41 | 41.29210 | 2.23629 | 42° | 15km/h | 26655m | 6.7m/s | 0°C | 0% | 0hPa | 0V | 00:00:00 | 00:00:00 | 00:00:00 | |
| EA3GEO | 2026-09-05 12:19:37 | 41.29203 | 2.23633 | 271° | 26km/h | 26632m | 6.1m/s | 0°C | 0% | 0hPa | 0V | 00:00:00 | 00:00:00 | 00:00:00 | |
| EA3IBE | 2026-09-05 12:19:35 | 41.29204 | 2.23646 | 260° | 9km/h | 26622m | 7.1m/s | 0°C | 0% | 0hPa | 0V | 00:00:00 | 00:00:00 | 00:00:00 | |
| EA3GEO | 2026-09-05 12:19:28 | 41.29201 | 2.23632 | 304° | 16km/h | 26576m | 6.0m/s | 0°C | 0% | 0hPa | 0V | 00:00:00 | 00:00:00 | 00:00:00 | |
| EA3IBE | 2026-09-05 12:19:24 | 41.29192 | 2.23638 | 64° | 2km/h | 26555m | 5.4m/s | 0°C | 0% | 0hPa | 0V | 00:00:00 | 00:00:00 | 00:00:00 | |
| EA3IBE | 2026-09-05 12:19:12 | 41.29176 | 2.23608 | 64° | 29km/h | 26491m | 3.4m/s | 0°C | 0% | 0hPa | 0V | 00:00:00 | 00:00:00 | 00:00:00 | |
| EA3IBE | 2026-09-05 12:19:07 | 41.29169 | 2.23602 | 308° | 7km/h | 26465m | 6.8m/s | 0°C | 0% | 0hPa | 0V | 00:00:00 | 00:00:00 | 00:00:00 | |
| EA3IBE | 2026-09-05 12:19:00 | 41.29164 | 2.23559 | 46° | 24km/h | 26424m | 6.7m/s | 0°C | 0% | 0hPa | 0V | 00:00:00 | 00:00:00 | 00:00:00 | |
| EA3IBE | 2026-09-05 12:18:55 | 41.29143 | 2.23551 | 48° | 11km/h | 26395m | 5.7m/s | 0°C | 0% | 0hPa | 0V | 00:00:00 | 00:00:00 | 00:00:00 | |
| EA3GEO | 2026-09-05 12:18:54 | 41.29140 | 2.23547 | 63° | 20km/h | 26388m | 7.0m/s | 0°C | 0% | 0hPa | 0V | 00:00:00 | 00:00:00 | 00:00:00 | |
| EA3IBE | 2026-09-05 12:18:47 | 41.29110 | 2.23513 | 361° | 33km/h | 26349m | 6.9m/s | 0°C | 0% | 0hPa | 0V | 00:00:00 | 00:00:00 | 00:00:00 | |
| EA3IBE | 2026-09-05 12:18:42 | 41.29086 | 2.23496 | 76° | 13km/h | 26323m | 4.1m/s | 0°C | 0% | 0hPa | 0V | 00:00:00 | 00:00:00 | 00:00:00 | |
| EA3GEO | 2026-09-05 12:18:41 | 41.29085 | 2.23492 | 58° | 13km/h | 26318m | 4.7m/s | 0°C | 0% | 0hPa | 0V | 00:00:00 | 00:00:00 | 00:00:00 | |
| EA3GEO | 2026-09-05 12:18:36 | 41.29055 | 2.23489 | 354° | 16km/h | 26290m | 5.6m/s | 0°C | 0% | 0hPa | 0V | 00:00:00 | 00:00:00 | 00:00:00 | |
| EA3IBE | 2026-09-05 12:18:30 | 41.29036 | 2.23469 | 39° | 15km/h | 26251m | 6.3m/s | 0°C | 0% | 0hPa | 0V | 00:00:00 | 00:00:00 | 00:00:00 | |
| EA3GEO | 2026-09-05 12:18:24 | 41.29005 | 2.23475 | 334° | 18km/h | 26219m | 4.3m/s | 0°C | 0% | 0hPa | 0V | 00:00:00 | 00:00:00 | 00:00:00 | |
| EA3IBE | 2026-09-05 12:18:19 | 41.28986 | 2.23463 | 32° | 16km/h | 26191m | 5.4m/s | 0°C | 0% | 0hPa | 0V | 00:00:00 | 00:00:00 | 00:00:00 | |
| EA3GEO | 2026-09-05 12:18:18 | 41.28984 | 2.23462 | 357° | 9km/h | 26186m | 4.7m/s | 0°C | 0% | 0hPa | 0V | 00:00:00 | 00:00:00 | 00:00:00 | |
| EA3IBE | 2026-09-05 12:18:13 | 41.28953 | 2.23468 | 10° | 27km/h | 26158m | 5.9m/s | 0°C | 0% | 0hPa | 0V | 00:00:00 | 00:00:00 | 00:00:00 | |
| EA3GEO | 2026-09-05 12:18:11 | 41.28944 | 2.23463 | 43° | 16km/h | 26145m | 5.8m/s | 0°C | 0% | 0hPa | 0V | 00:00:00 | 00:00:00 | 00:00:00 | |
| EA3IBE | 2026-09-05 12:18:08 | 41.28933 | 2.23453 | 16° | 26km/h | 26127m | 4.4m/s | 0°C | 0% | 0hPa | 0V | 00:00:00 | 00:00:00 | 00:00:00 | |
| EA3GEO | 2026-09-05 12:18:05 | 41.28916 | 2.23458 | 319° | 24km/h | 26111m | 6.1m/s | 0°C | 0% | 0hPa | 0V | 00:00:00 | 00:00:00 | 00:00:00 | |
| EA3IBE | 2026-09-05 12:18:00 | 41.28888 | 2.23461 | 39° | 31km/h | 26084m | 4.2m/s | 0°C | 0% | 0hPa | 0V | 00:00:00 | 00:00:00 | 00:00:00 | |
| EA3GEO | 2026-09-05 12:17:58 | 41.28881 | 2.23449 | 38° | 13km/h | 26073m | 4.2m/s | 0°C | 0% | 0hPa | 0V | 00:00:00 | 00:00:00 | 00:00:00 | |
| EA3IBE | 2026-09-05 12:17:55 | 41.28869 | 2.23457 | 322° | 35km/h | 26055m | 6.4m/s | 0°C | 0% | 0hPa | 0V | 00:00:00 | 00:00:00 | 00:00:00 | |
| EA3GEO | 2026-09-05 12:17:52 | 41.28851 | 2.23478 | 328° | 22km/h | 26039m | 4.9m/s | 0°C | 0% | 0hPa | 0V | 00:00:00 | 00:00:00 | 00:00:00 | |
| EA3IBE | 2026-09-05 12:17:47 | 41.28822 | 2.23471 | 8° | 27km/h | 26011m | 5.2m/s | 0°C | 0% | 0hPa | 0V | 00:00:00 | 00:00:00 | 00:00:00 | |
| EA3IBE | 2026-09-05 12:17:40 | 41.28779 | 2.23506 | 346° | 20km/h | 25968m | 8.6m/s | 0°C | 0% | 0hPa | 0V | 00:00:00 | 00:00:00 | 00:00:00 | |
| EA3IBE | 2026-09-05 12:17:33 | 41.28738 | 2.23510 | 326° | 31km/h | 25930m | 5.5m/s | 0°C | 0% | 0hPa | 0V | 00:00:00 | 00:00:00 | 00:00:00 | |
| EA3GEO | 2026-09-05 12:17:30 | 41.28717 | 2.23527 | 342° | 31km/h | 25912m | 4.8m/s | 0°C | 0% | 0hPa | 0V | 00:00:00 | 00:00:00 | 00:00:00 | |
| EA3IBE | 2026-09-05 12:17:26 | 41.28702 | 2.23527 | 32° | 13km/h | 25888m | 4.7m/s | 0°C | 0% | 0hPa | 0V | 00:00:00 | 00:00:00 | 00:00:00 | |
| EA3GEO | 2026-09-05 12:17:23 | 41.28683 | 2.23527 | 344° | 40km/h | 25868m | 5.6m/s | 0°C | 0% | 0hPa | 0V | 00:00:00 | 00:00:00 | 00:00:00 | |
| EA3GEO | 2026-09-05 12:17:16 | 41.28635 | 2.23551 | 8° | 31km/h | 25823m | 6.2m/s | 0°C | 0% | 0hPa | 0V | 00:00:00 | 00:00:00 | 00:00:00 | |
| EA3GEO | 2026-09-05 12:17:09 | 41.28599 | 2.23568 | 349° | 26km/h | 25788m | 4.7m/s | 0°C | 0% | 0hPa | 0V | 00:00:00 | 00:00:00 | 00:00:00 | |
| EA3GEO | 2026-09-05 12:17:04 | 41.28569 | 2.23583 | 349° | 38km/h | 25758m | 5.5m/s | 0°C | 0% | 0hPa | 0V | 00:00:00 | 00:00:00 | 00:00:00 | |
| EA3IBE | 2026-09-05 12:17:01 | 41.28547 | 2.23593 | 340° | 26km/h | 25739m | 4.4m/s | 0°C | 0% | 0hPa | 0V | 00:00:00 | 00:00:00 | 00:00:00 | |
| EA3GEO | 2026-09-05 12:16:58 | 41.28528 | 2.23603 | 343° | 24km/h | 25723m | 4.4m/s | 0°C | 0% | 0hPa | 0V | 00:00:00 | 00:00:00 | 00:00:00 | |
| EA3IBE | 2026-09-05 12:16:56 | 41.28518 | 2.23609 | 334° | 20km/h | 25711m | 6.0m/s | 0°C | 0% | 0hPa | 0V | 00:00:00 | 00:00:00 | 00:00:00 | |
| EA3GEO | 2026-09-05 12:16:53 | 41.28506 | 2.23619 | 344° | 31km/h | 25696m | 7.0m/s | 0°C | 0% | 0hPa | 0V | 00:00:00 | 00:00:00 | 00:00:00 | |
| EA3GEO | 2026-09-05 12:16:47 | 41.28466 | 2.23646 | 304° | 7km/h | 25662m | 5.2m/s | 0°C | 0% | 0hPa | 0V | 00:00:00 | 00:00:00 | 00:00:00 | |
| EA3GEO | 2026-09-05 12:16:28 | 41.28363 | 2.23721 | 301° | 22km/h | 25543m | 7.7m/s | 0°C | 0% | 0hPa | 0V | 00:00:00 | 00:00:00 | 00:00:00 | |
| EA3IBE | 2026-09-05 12:15:41 | 41.28131 | 2.23886 | 325° | 18km/h | 25280m | 4.9m/s | 0°C | 0% | 0hPa | 0V | 00:00:00 | 00:00:00 | 00:00:00 | |
| EA3IBE | 2026-09-05 12:15:34 | 41.28096 | 2.23931 | 346° | 31km/h | 25244m | 2.8m/s | 0°C | 0% | 0hPa | 0V | 00:00:00 | 00:00:00 | 00:00:00 | |
| EA3GEO | 2026-09-05 12:15:10 | 41.28006 | 2.24044 | 317° | 24km/h | 25109m | 6.5m/s | 0°C | 0% | 0hPa | 0V | 00:00:00 | 00:00:00 | 00:00:00 | |
| EA3GEO | 2026-09-05 12:14:57 | 41.27954 | 2.24127 | 284° | 27km/h | 25034m | 5.2m/s | 0°C | 0% | 0hPa | 0V | 00:00:00 | 00:00:00 | 00:00:00 | |
| EA3IBE | 2026-09-05 12:14:47 | 41.27925 | 2.24198 | 282° | 31km/h | 24972m | 3.9m/s | 0°C | 0% | 0hPa | 0V | 00:00:00 | 00:00:00 | 00:00:00 | |
| EA3IBE | 2026-09-05 12:14:39 | 41.27895 | 2.24257 | 301° | 27km/h | 24929m | 5.7m/s | 0°C | 0% | 0hPa | 0V | 00:00:00 | 00:00:00 | 00:00:00 | |
| EA3IBE | 2026-09-05 12:14:30 | 41.27850 | 2.24325 | 298° | 37km/h | 24883m | 5.1m/s | 0°C | 0% | 0hPa | 0V | 00:00:00 | 00:00:00 | 00:00:00 | |
| EA3GEO | 2026-09-05 12:14:23 | 41.27831 | 2.24385 | 316° | 16km/h | 24848m | 3.3m/s | 0°C | 0% | 0hPa | 0V | 00:00:00 | 00:00:00 | 00:00:00 | |
| EA3IBE | 2026-09-05 12:14:18 | 41.27814 | 2.24430 | 277° | 29km/h | 24822m | 7.6m/s | 0°C | 0% | 0hPa | 0V | 00:00:00 | 00:00:00 | 00:00:00 | |
| EA3IBE | 2026-09-05 12:14:13 | 41.27808 | 2.24464 | 301° | 18km/h | 24794m | 4.9m/s | 0°C | 0% | 0hPa | 0V | 00:00:00 | 00:00:00 | 00:00:00 | |
| EA3IBE | 2026-09-05 12:14:07 | 41.27803 | 2.24503 | 277° | 24km/h | 24757m | 7.2m/s | 0°C | 0% | 0hPa | 0V | 00:00:00 | 00:00:00 | 00:00:00 | |
| EA3IBE | 2026-09-05 12:14:01 | 41.27812 | 2.24544 | 239° | 20km/h | 24719m | 7.2m/s | 0°C | 0% | 0hPa | 0V | 00:00:00 | 00:00:00 | 00:00:00 | |
| EA3IBE | 2026-09-05 12:13:54 | 41.27820 | 2.24581 | 235° | 18km/h | 24680m | 4.5m/s | 0°C | 0% | 0hPa | 0V | 00:00:00 | 00:00:00 | 00:00:00 | |
| EA3IBE | 2026-09-05 12:13:50 | 41.27828 | 2.24612 | 240° | 22km/h | 24653m | 6.6m/s | 0°C | 0% | 0hPa | 0V | 00:00:00 | 00:00:00 | 00:00:00 | |
| EA3IBE | 2026-09-05 12:13:42 | 41.27832 | 2.24640 | 222° | 5km/h | 24612m | 5.3m/s | 0°C | 0% | 0hPa | 0V | 00:00:00 | 00:00:00 | 00:00:00 | |
| EA3GEO | 2026-09-05 12:13:41 | 41.27834 | 2.24641 | 213° | 13km/h | 24607m | 4.0m/s | 0°C | 0% | 0hPa | 0V | 00:00:00 | 00:00:00 | 00:00:00 | |
| EA3IBE | 2026-09-05 12:13:37 | 41.27840 | 2.24671 | 285° | 26km/h | 24587m | 4.7m/s | 0°C | 0% | 0hPa | 0V | 00:00:00 | 00:00:00 | 00:00:00 | |
| EA3GEO | 2026-09-05 12:13:36 | 41.27838 | 2.24678 | 280° | 20km/h | 24580m | 8.2m/s | 0°C | 0% | 0hPa | 0V | 00:00:00 | 00:00:00 | 00:00:00 | |
| EA3IBE | 2026-09-05 12:13:32 | 41.27834 | 2.24696 | 297° | 18km/h | 24556m | 5.3m/s | 0°C | 0% | 0hPa | 0V | 00:00:00 | 00:00:00 | 00:00:00 | |
| EA3GEO | 2026-09-05 12:13:30 | 41.27832 | 2.24707 | 271° | 18km/h | 24545m | 5.4m/s | 0°C | 0% | 0hPa | 0V | 00:00:00 | 00:00:00 | 00:00:00 | |
| EA3IBE | 2026-09-05 12:13:26 | 41.27831 | 2.24740 | 290° | 33km/h | 24523m | 5.3m/s | 0°C | 0% | 0hPa | 0V | 00:00:00 | 00:00:00 | 00:00:00 | |
| EA3GEO | 2026-09-05 12:13:25 | 41.27829 | 2.24749 | 288° | 27km/h | 24517m | 6.7m/s | 0°C | 0% | 0hPa | 0V | 00:00:00 | 00:00:00 | 00:00:00 | |
| EA3IBE | 2026-09-05 12:13:17 | 41.27803 | 2.24795 | 251° | 26km/h | 24474m | 6.3m/s | 0°C | 0% | 0hPa | 0V | 00:00:00 | 00:00:00 | 00:00:00 | |
| EA3GEO | 2026-09-05 12:13:09 | 41.27783 | 2.24852 | 319° | 22km/h | 24430m | 5.8m/s | 0°C | 0% | 0hPa | 0V | 00:00:00 | 00:00:00 | 00:00:00 | |
| EA3IBE | 2026-09-05 12:13:04 | 41.27788 | 2.24903 | 256° | 35km/h | 24400m | 4.7m/s | 0°C | 0% | 0hPa | 0V | 00:00:00 | 00:00:00 | 00:00:00 | |
| EA3IBE | 2026-09-05 12:12:58 | 41.27773 | 2.24940 | 282° | 16km/h | 24366m | 5.0m/s | 0°C | 0% | 0hPa | 0V | 00:00:00 | 00:00:00 | 00:00:00 | |
| EA3GEO | 2026-09-05 12:12:56 | 41.27774 | 2.24958 | 262° | 37km/h | 24354m | 5.4m/s | 0°C | 0% | 0hPa | 0V | 00:00:00 | 00:00:00 | 00:00:00 | |
| EA3IBE | 2026-09-05 12:12:50 | 41.27782 | 2.24997 | 328° | 20km/h | 24322m | 5.6m/s | 0°C | 0% | 0hPa | 0V | 00:00:00 | 00:00:00 | 00:00:00 | |
| EA3GEO | 2026-09-05 12:12:46 | 41.27777 | 2.25012 | 226° | 16km/h | 24302m | 4.5m/s | 0°C | 0% | 0hPa | 0V | 00:00:00 | 00:00:00 | 00:00:00 | |
| EA3IBE | 2026-09-05 12:12:44 | 41.27781 | 2.25022 | 266° | 18km/h | 24290m | 5.3m/s | 0°C | 0% | 0hPa | 0V | 00:00:00 | 00:00:00 | 00:00:00 | |
| EA3IBE | 2026-09-05 12:12:34 | 41.27772 | 2.25065 | 240° | 9km/h | 24235m | 5.3m/s | 0°C | 0% | 0hPa | 0V | 00:00:00 | 00:00:00 | 00:00:00 | |
| EA3IBE | 2026-09-05 12:12:29 | 41.27775 | 2.25077 | 346° | 5km/h | 24209m | 4.0m/s | 0°C | 0% | 0hPa | 0V | 00:00:00 | 00:00:00 | 00:00:00 | |
| EA3IBE | 2026-09-05 12:12:22 | 41.27759 | 2.25109 | 292° | 2km/h | 24172m | 4.2m/s | 0°C | 0% | 0hPa | 0V | 00:00:00 | 00:00:00 | 00:00:00 | |
| EA3IBE | 2026-09-05 12:12:16 | 41.27749 | 2.25124 | 303° | 9km/h | 24140m | 3.8m/s | 0°C | 0% | 0hPa | 0V | 00:00:00 | 00:00:00 | 00:00:00 | |
| EA3IBE | 2026-09-05 12:12:11 | 41.27742 | 2.25136 | 0° | 0km/h | 24113m | 3.7m/s | 0°C | 0% | 0hPa | 0V | 00:00:00 | 00:00:00 | 00:00:00 | |
| EA3IBE | 2026-09-05 12:12:05 | 41.27742 | 2.25156 | 241° | 15km/h | 24078m | 4.2m/s | 0°C | 0% | 0hPa | 0V | 00:00:00 | 00:00:00 | 00:00:00 | |
| EA3IBE | 2026-09-05 12:11:57 | 41.27734 | 2.25171 | 321° | 11km/h | 24033m | 4.7m/s | 0°C | 0% | 0hPa | 0V | 00:00:00 | 00:00:00 | 00:00:00 | |
| EA3IBE | 2026-09-05 12:11:51 | 41.27734 | 2.25195 | 324° | 13km/h | 24001m | 4.9m/s | 0°C | 0% | 0hPa | 0V | 00:00:00 | 00:00:00 | 00:00:00 | |
| EA3IBE | 2026-09-05 12:11:45 | 41.27727 | 2.25202 | 270° | 15km/h | 23968m | 2.3m/s | 0°C | 0% | 0hPa | 0V | 00:00:00 | 00:00:00 | 00:00:00 | |
| EA3IBE | 2026-09-05 12:11:40 | 41.27734 | 2.25223 | 317° | 11km/h | 23940m | 5.5m/s | 0°C | 0% | 0hPa | 0V | 00:00:00 | 00:00:00 | 00:00:00 | |
| EA3IBE | 2026-09-05 12:11:33 | 41.27731 | 2.25236 | 263° | 18km/h | 23899m | 3.7m/s | 0°C | 0% | 0hPa | 0V | 00:00:00 | 00:00:00 | 00:00:00 | |
| EA3IBE | 2026-09-05 12:11:27 | 41.27723 | 2.25243 | 30° | 16km/h | 23867m | 3.9m/s | 0°C | 0% | 0hPa | 0V | 00:00:00 | 00:00:00 | 00:00:00 | |
| EA3GEO | 2026-09-05 12:11:23 | 41.27717 | 2.25246 | 298° | 16km/h | 23847m | 6.6m/s | 0°C | 0% | 0hPa | 0V | 00:00:00 | 00:00:00 | 00:00:00 | |
| EA3IBE | 2026-09-05 12:11:20 | 41.27714 | 2.25259 | 252° | 7km/h | 23830m | 6.5m/s | 0°C | 0% | 0hPa | 0V | 00:00:00 | 00:00:00 | 00:00:00 | |
| EA3IBE | 2026-09-05 12:10:47 | 41.27690 | 2.25365 | 307° | 11km/h | 23646m | 4.9m/s | 0°C | 0% | 0hPa | 0V | 00:00:00 | 00:00:00 | 00:00:00 | |
| EA3GEO | 2026-09-05 12:10:46 | 41.27689 | 2.25368 | 295° | 7km/h | 23641m | 6.3m/s | 0°C | 0% | 0hPa | 0V | 00:00:00 | 00:00:00 | 00:00:00 | |
| EA3GEO | 2026-09-05 12:10:39 | 41.27671 | 2.25383 | 290° | 15km/h | 23603m | 5.6m/s | 0°C | 0% | 0hPa | 0V | 00:00:00 | 00:00:00 | 00:00:00 | |
| EA3GEO | 2026-09-05 12:10:32 | 41.27672 | 2.25397 | 281° | 5km/h | 23564m | 5.8m/s | 0°C | 0% | 0hPa | 0V | 00:00:00 | 00:00:00 | 00:00:00 | |
| EA3IBE | 2026-09-05 12:10:26 | 41.27665 | 2.25419 | 261° | 11km/h | 23533m | 4.7m/s | 0°C | 0% | 0hPa | 0V | 00:00:00 | 00:00:00 | 00:00:00 | |
| EA3IBE | 2026-09-05 12:10:20 | 41.27664 | 2.25426 | 273° | 16km/h | 23503m | 5.7m/s | 0°C | 0% | 0hPa | 0V | 00:00:00 | 00:00:00 | 00:00:00 | |
| EA3IBE | 2026-09-05 12:10:14 | 41.27662 | 2.25460 | 242° | 18km/h | 23470m | 3.2m/s | 0°C | 0% | 0hPa | 0V | 00:00:00 | 00:00:00 | 00:00:00 | |
| EA3IBE | 2026-09-05 12:10:07 | 41.27662 | 2.25498 | 267° | 22km/h | 23432m | 5.5m/s | 0°C | 0% | 0hPa | 0V | 00:00:00 | 00:00:00 | 00:00:00 | |
| EA3IBE | 2026-09-05 12:10:02 | 41.27670 | 2.25513 | 226° | 11km/h | 23405m | 4.3m/s | 0°C | 0% | 0hPa | 0V | 00:00:00 | 00:00:00 | 00:00:00 | |
| EA3GEO | 2026-09-05 12:09:57 | 41.27666 | 2.25541 | 260° | 26km/h | 23378m | 6.3m/s | 0°C | 0% | 0hPa | 0V | 00:00:00 | 00:00:00 | 00:00:00 | |
| EA3IBE | 2026-09-05 12:09:55 | 41.27671 | 2.25553 | 230° | 16km/h | 23365m | 6.6m/s | 0°C | 0% | 0hPa | 0V | 00:00:00 | 00:00:00 | 00:00:00 | |
| EA3IBE | 2026-09-05 12:09:49 | 41.27668 | 2.25577 | 306° | 24km/h | 23332m | 5.8m/s | 0°C | 0% | 0hPa | 0V | 00:00:00 | 00:00:00 | 00:00:00 | |
| EA3IBE | 2026-09-05 12:09:44 | 41.27664 | 2.25600 | 213° | 11km/h | 23305m | 6.0m/s | 0°C | 0% | 0hPa | 0V | 00:00:00 | 00:00:00 | 00:00:00 | |
| EA3GEO | 2026-09-05 12:09:38 | 41.27662 | 2.25620 | 279° | 26km/h | 23271m | 5.5m/s | 0°C | 0% | 0hPa | 0V | 00:00:00 | 00:00:00 | 00:00:00 | |
| EA3IBE | 2026-09-05 12:09:36 | 41.27660 | 2.25632 | 274° | 13km/h | 23259m | 5.5m/s | 0°C | 0% | 0hPa | 0V | 00:00:00 | 00:00:00 | 00:00:00 | |
| EA3GEO | 2026-09-05 12:09:31 | 41.27661 | 2.25649 | 305° | 13km/h | 23232m | 3.2m/s | 0°C | 0% | 0hPa | 0V | 00:00:00 | 00:00:00 | 00:00:00 | |
| EA3IBE | 2026-09-05 12:09:25 | 41.27660 | 2.25695 | 251° | 24km/h | 23197m | 7.4m/s | 0°C | 0% | 0hPa | 0V | 00:00:00 | 00:00:00 | 00:00:00 | |
| EA3IBE | 2026-09-05 12:09:20 | 41.27668 | 2.25717 | 253° | 13km/h | 23168m | 8.0m/s | 0°C | 0% | 0hPa | 0V | 00:00:00 | 00:00:00 | 00:00:00 | |
| EA3GEO | 2026-09-05 12:09:17 | 41.27672 | 2.25737 | 262° | 18km/h | 23149m | 5.4m/s | 0°C | 0% | 0hPa | 0V | 00:00:00 | 00:00:00 | 00:00:00 | |
| EA3IBE | 2026-09-05 12:09:14 | 41.27679 | 2.25753 | 221° | 20km/h | 23134m | 5.4m/s | 0°C | 0% | 0hPa | 0V | 00:00:00 | 00:00:00 | 00:00:00 | |
| EA3IBE | 2026-09-05 12:09:08 | 41.27681 | 2.25773 | 270° | 13km/h | 23102m | 5.1m/s | 0°C | 0% | 0hPa | 0V | 00:00:00 | 00:00:00 | 00:00:00 | |
| EA3GEO | 2026-09-05 12:09:04 | 41.27687 | 2.25793 | 236° | 20km/h | 23080m | 6.9m/s | 0°C | 0% | 0hPa | 0V | 00:00:00 | 00:00:00 | 00:00:00 | |
| EA3IBE | 2026-09-05 12:09:02 | 41.27692 | 2.25803 | 265° | 15km/h | 23071m | 3.5m/s | 0°C | 0% | 0hPa | 0V | 00:00:00 | 00:00:00 | 00:00:00 | |
| EA3GEO | 2026-09-05 12:08:58 | 41.27682 | 2.25808 | 26° | 4km/h | 23050m | 5.8m/s | 0°C | 0% | 0hPa | 0V | 00:00:00 | 00:00:00 | 00:00:00 | |
| EA3IBE | 2026-09-05 12:08:57 | 41.27683 | 2.25808 | 203° | 7km/h | 23044m | 4.7m/s | 0°C | 0% | 0hPa | 0V | 00:00:00 | 00:00:00 | 00:00:00 | |
| EA3GEO | 2026-09-05 12:08:53 | 41.27693 | 2.25813 | 204° | 4km/h | 23023m | 5.3m/s | 0°C | 0% | 0hPa | 0V | 00:00:00 | 00:00:00 | 00:00:00 | |
| EA3IBE | 2026-09-05 12:08:52 | 41.27693 | 2.25814 | 230° | 5km/h | 23018m | 6.5m/s | 0°C | 0% | 0hPa | 0V | 00:00:00 | 00:00:00 | 00:00:00 | |
| EA3IBE | 2026-09-05 12:08:46 | 41.27695 | 2.25833 | 233° | 11km/h | 22987m | 6.4m/s | 0°C | 0% | 0hPa | 0V | 00:00:00 | 00:00:00 | 00:00:00 | |
| EA3GEO | 2026-09-05 12:08:45 | 41.27699 | 2.25835 | 197° | 18km/h | 22981m | 5.3m/s | 0°C | 0% | 0hPa | 0V | 00:00:00 | 00:00:00 | 00:00:00 | |
| EA3GEO | 2026-09-05 12:08:40 | 41.27715 | 2.25832 | 235° | 5km/h | 22954m | 6.0m/s | 0°C | 0% | 0hPa | 0V | 00:00:00 | 00:00:00 | 00:00:00 | |
| EA3IBE | 2026-09-05 12:08:35 | 41.27712 | 2.25846 | 227° | 13km/h | 22926m | 6.5m/s | 0°C | 0% | 0hPa | 0V | 00:00:00 | 00:00:00 | 00:00:00 | |
| EA3GEO | 2026-09-05 12:08:34 | 41.27716 | 2.25848 | 200° | 16km/h | 22920m | 4.6m/s | 0°C | 0% | 0hPa | 0V | 00:00:00 | 00:00:00 | 00:00:00 | |
| EA3IBE | 2026-09-05 12:08:30 | 41.27728 | 2.25842 | 122° | 11km/h | 22899m | 4.3m/s | 0°C | 0% | 0hPa | 0V | 00:00:00 | 00:00:00 | 00:00:00 | |
| EA3GEO | 2026-09-05 12:08:23 | 41.27733 | 2.25827 | 136° | 13km/h | 22863m | 6.8m/s | 0°C | 0% | 0hPa | 0V | 00:00:00 | 00:00:00 | 00:00:00 | |
| EA3IBE | 2026-09-05 12:08:22 | 41.27736 | 2.25824 | 156° | 22km/h | 22857m | 5.5m/s | 0°C | 0% | 0hPa | 0V | 00:00:00 | 00:00:00 | 00:00:00 | |
| EA3GEO | 2026-09-05 12:08:18 | 41.27751 | 2.25806 | 103° | 13km/h | 22837m | 5.4m/s | 0°C | 0% | 0hPa | 0V | 00:00:00 | 00:00:00 | 00:00:00 | |
| EA3IBE | 2026-09-05 12:08:17 | 41.27751 | 2.25803 | 113° | 5km/h | 22830m | 7.0m/s | 0°C | 0% | 0hPa | 0V | 00:00:00 | 00:00:00 | 00:00:00 | |
| EA3GEO | 2026-09-05 12:08:12 | 41.27753 | 2.25793 | 143° | 13km/h | 22801m | 7.3m/s | 0°C | 0% | 0hPa | 0V | 00:00:00 | 00:00:00 | 00:00:00 | |
| EA3IBE | 2026-09-05 12:08:11 | 41.27757 | 2.25791 | 166° | 18km/h | 22795m | 4.9m/s | 0°C | 0% | 0hPa | 0V | 00:00:00 | 00:00:00 | 00:00:00 | |
| EA3GEO | 2026-09-05 12:08:07 | 41.27766 | 2.25779 | 54° | 7km/h | 22777m | 4.6m/s | 0°C | 0% | 0hPa | 0V | 00:00:00 | 00:00:00 | 00:00:00 | |
| EA3IBE | 2026-09-05 12:08:05 | 41.27763 | 2.25780 | 303° | 11km/h | 22764m | 5.2m/s | 0°C | 0% | 0hPa | 0V | 00:00:00 | 00:00:00 | 00:00:00 | |
| EA3IBE | 2026-09-05 12:08:00 | 41.27768 | 2.25780 | 166° | 18km/h | 22737m | 4.9m/s | 0°C | 0% | 0hPa | 0V | 00:00:00 | 00:00:00 | 00:00:00 | |
| EA3IBE | 2026-09-05 12:07:53 | 41.27767 | 2.25760 | 175° | 7km/h | 22700m | 4.8m/s | 0°C | 0% | 0hPa | 0V | 00:00:00 | 00:00:00 | 00:00:00 | |
| EA3IBE | 2026-09-05 12:07:48 | 41.27768 | 2.25745 | 41° | 11km/h | 22671m | 6.2m/s | 0°C | 0% | 0hPa | 0V | 00:00:00 | 00:00:00 | 00:00:00 | |
| EA3GEO | 2026-09-05 12:07:42 | 41.27757 | 2.25739 | 180° | 7km/h | 22639m | 4.2m/s | 0°C | 0% | 0hPa | 0V | 00:00:00 | 00:00:00 | 00:00:00 | |
| EA3IBE | 2026-09-05 12:07:41 | 41.27759 | 2.25738 | 157° | 11km/h | 22634m | 5.8m/s | 0°C | 0% | 0hPa | 0V | 00:00:00 | 00:00:00 | 00:00:00 | |
| EA3IBE | 2026-09-05 12:07:36 | 41.27756 | 2.25725 | 19° | 13km/h | 22598m | 5.6m/s | 0°C | 0% | 0hPa | 0V | 00:00:00 | 00:00:00 | 00:00:00 | |
| EA3IBE | 2026-09-05 12:07:29 | 41.27752 | 2.25719 | 101° | 16km/h | 22564m | 4.9m/s | 0°C | 0% | 0hPa | 0V | 00:00:00 | 00:00:00 | 00:00:00 | |
| EA3IBE | 2026-09-05 12:07:17 | 41.27737 | 2.25700 | 89° | 16km/h | 22502m | 5.3m/s | 0°C | 0% | 0hPa | 0V | 00:00:00 | 00:00:00 | 00:00:00 | |
| EA3IBE | 2026-09-05 12:07:12 | 41.27731 | 2.25692 | 33° | 16km/h | 22474m | 5.9m/s | 0°C | 0% | 0hPa | 0V | 00:00:00 | 00:00:00 | 00:00:00 | |
| EA3IBE | 2026-09-05 12:07:07 | 41.27717 | 2.25681 | 50° | 16km/h | 22443m | 5.0m/s | 0°C | 0% | 0hPa | 0V | 00:00:00 | 00:00:00 | 00:00:00 | |
| EA3IBE | 2026-09-05 12:07:01 | 41.27700 | 2.25677 | 3° | 15km/h | 22408m | 5.0m/s | 0°C | 0% | 0hPa | 0V | 00:00:00 | 00:00:00 | 00:00:00 | |
| EA3IBE | 2026-09-05 12:06:55 | 41.27669 | 2.25676 | 5° | 18km/h | 22376m | 5.9m/s | 0°C | 0% | 0hPa | 0V | 00:00:00 | 00:00:00 | 00:00:00 | |
| EA3GEO | 2026-09-05 12:06:52 | 41.27661 | 2.25681 | 329° | 9km/h | 22359m | 6.0m/s | 0°C | 0% | 0hPa | 0V | 00:00:00 | 00:00:00 | 00:00:00 | |
| EA3IBE | 2026-09-05 12:06:50 | 41.27656 | 2.25680 | 12° | 13km/h | 22348m | 4.8m/s | 0°C | 0% | 0hPa | 0V | 00:00:00 | 00:00:00 | 00:00:00 | |
| EA3IBE | 2026-09-05 12:06:44 | 41.27629 | 2.25682 | 8° | 18km/h | 22318m | 6.9m/s | 0°C | 0% | 0hPa | 0V | 00:00:00 | 00:00:00 | 00:00:00 | |
| EA3GEO | 2026-09-05 12:06:42 | 41.27620 | 2.25684 | 335° | 13km/h | 22306m | 4.4m/s | 0°C | 0% | 0hPa | 0V | 00:00:00 | 00:00:00 | 00:00:00 | |
| EA3GEO | 2026-09-05 12:06:36 | 41.27607 | 2.25697 | 345° | 16km/h | 22271m | 7.2m/s | 0°C | 0% | 0hPa | 0V | 00:00:00 | 00:00:00 | 00:00:00 | |
| EA3GEO | 2026-09-05 12:06:30 | 41.27589 | 2.25708 | 219° | 5km/h | 22238m | 6.2m/s | 0°C | 0% | 0hPa | 0V | 00:00:00 | 00:00:00 | 00:00:00 | |
| EA3GEO | 2026-09-05 12:06:25 | 41.27587 | 2.25726 | 321° | 22km/h | 22209m | 6.9m/s | 0°C | 0% | 0hPa | 0V | 00:00:00 | 00:00:00 | 00:00:00 | |
| EA3IBE | 2026-09-05 12:06:20 | 41.27579 | 2.25739 | 216° | 7km/h | 22182m | 7.2m/s | 0°C | 0% | 0hPa | 0V | 00:00:00 | 00:00:00 | 00:00:00 | |
| EA3GEO | 2026-09-05 12:06:19 | 41.27580 | 2.25740 | 216° | 7km/h | 22176m | 4.4m/s | 0°C | 0% | 0hPa | 0V | 00:00:00 | 00:00:00 | 00:00:00 | |
| EA3IBE | 2026-09-05 12:06:15 | 41.27580 | 2.25759 | 294° | 16km/h | 22153m | 7.1m/s | 0°C | 0% | 0hPa | 0V | 00:00:00 | 00:00:00 | 00:00:00 | |
| EA3GEO | 2026-09-05 12:06:13 | 41.27577 | 2.25765 | 302° | 9km/h | 22141m | 5.6m/s | 0°C | 0% | 0hPa | 0V | 00:00:00 | 00:00:00 | 00:00:00 | |
| EA3IBE | 2026-09-05 12:05:59 | 41.27594 | 2.25804 | 212° | 9km/h | 22061m | 6.5m/s | 0°C | 0% | 0hPa | 0V | 00:00:00 | 00:00:00 | 00:00:00 | |
| EA3IBE | 2026-09-05 12:05:44 | 41.27630 | 2.25833 | 228° | 15km/h | 21975m | 4.7m/s | 0°C | 0% | 0hPa | 0V | 00:00:00 | 00:00:00 | 00:00:00 | |
| EA3GEO | 2026-09-05 12:05:41 | 41.27631 | 2.25839 | 270° | 5km/h | 21959m | 5.8m/s | 0°C | 0% | 0hPa | 0V | 00:00:00 | 00:00:00 | 00:00:00 | |
| EA3IBE | 2026-09-05 12:05:39 | 41.27636 | 2.25844 | 212° | 16km/h | 21948m | 3.8m/s | 0°C | 0% | 0hPa | 0V | 00:00:00 | 00:00:00 | 00:00:00 | |
| EA3IBE | 2026-09-05 12:05:34 | 41.27652 | 2.25850 | 237° | 15km/h | 21921m | 4.4m/s | 0°C | 0% | 0hPa | 0V | 00:00:00 | 00:00:00 | 00:00:00 | |
| EA3IBE | 2026-09-05 12:05:28 | 41.27667 | 2.25864 | 192° | 15km/h | 21890m | 6.5m/s | 0°C | 0% | 0hPa | 0V | 00:00:00 | 00:00:00 | 00:00:00 | |
| EA3GEO | 2026-09-05 12:05:26 | 41.27673 | 2.25864 | 181° | 11km/h | 21877m | 5.7m/s | 0°C | 0% | 0hPa | 0V | 00:00:00 | 00:00:00 | 00:00:00 | |
| EA3IBE | 2026-09-05 12:05:22 | 41.27683 | 2.25868 | 213° | 7km/h | 21854m | 4.0m/s | 0°C | 0% | 0hPa | 0V | 00:00:00 | 00:00:00 | 00:00:00 | |
| EA3IBE | 2026-09-05 12:05:17 | 41.27700 | 2.25874 | 185° | 11km/h | 21825m | 4.8m/s | 0°C | 0% | 0hPa | 0V | 00:00:00 | 00:00:00 | 00:00:00 | |
| EA3IBE | 2026-09-05 12:05:11 | 41.27710 | 2.25867 | 141° | 9km/h | 21792m | 5.9m/s | 0°C | 0% | 0hPa | 0V | 00:00:00 | 00:00:00 | 00:00:00 | |
| EA3IBE | 2026-09-05 12:05:00 | 41.27726 | 2.25865 | 12° | 4km/h | 21735m | 6.0m/s | 0°C | 0% | 0hPa | 0V | 00:00:00 | 00:00:00 | 00:00:00 | |
| EA3IBE | 2026-09-05 12:04:55 | 41.27726 | 2.25874 | 259° | 5km/h | 21707m | 6.3m/s | 0°C | 0% | 0hPa | 0V | 00:00:00 | 00:00:00 | 00:00:00 | |
| EA3IBE | 2026-09-05 12:04:49 | 41.27726 | 2.25870 | 322° | 7km/h | 21675m | 7.3m/s | 0°C | 0% | 0hPa | 0V | 00:00:00 | 00:00:00 | 00:00:00 | |
| EA3GEO | 2026-09-05 12:04:48 | 41.27725 | 2.25873 | 290° | 13km/h | 21669m | 4.7m/s | 0°C | 0% | 0hPa | 0V | 00:00:00 | 00:00:00 | 00:00:00 | |
| EA3IBE | 2026-09-05 12:04:43 | 41.27719 | 2.25880 | 104° | 7km/h | 21641m | 5.6m/s | 0°C | 0% | 0hPa | 0V | 00:00:00 | 00:00:00 | 00:00:00 | |
| EA3GEO | 2026-09-05 12:04:41 | 41.27718 | 2.25873 | 55° | 18km/h | 21629m | 5.5m/s | 0°C | 0% | 0hPa | 0V | 00:00:00 | 00:00:00 | 00:00:00 | |
| EA3IBE | 2026-09-05 12:04:38 | 41.27710 | 2.25868 | 319° | 11km/h | 21613m | 6.1m/s | 0°C | 0% | 0hPa | 0V | 00:00:00 | 00:00:00 | 00:00:00 | |
| EA3GEO | 2026-09-05 12:04:35 | 41.27703 | 2.25878 | 331° | 15km/h | 21595m | 5.0m/s | 0°C | 0% | 0hPa | 0V | 00:00:00 | 00:00:00 | 00:00:00 | |
| EA3IBE | 2026-09-05 12:04:33 | 41.27698 | 2.25882 | 328° | 11km/h | 21584m | 5.8m/s | 0°C | 0% | 0hPa | 0V | 00:00:00 | 00:00:00 | 00:00:00 | |
| EA3GEO | 2026-09-05 12:04:29 | 41.27682 | 2.25890 | 350° | 22km/h | 21560m | 3.5m/s | 0°C | 0% | 0hPa | 0V | 00:00:00 | 00:00:00 | 00:00:00 | |
| EA3IBE | 2026-09-05 12:04:28 | 41.27677 | 2.25892 | 338° | 18km/h | 21556m | 4.0m/s | 0°C | 0% | 0hPa | 0V | 00:00:00 | 00:00:00 | 00:00:00 | |
| EA3IBE | 2026-09-05 12:04:22 | 41.27661 | 2.25916 | 340° | 16km/h | 21525m | 5.6m/s | 0°C | 0% | 0hPa | 0V | 00:00:00 | 00:00:00 | 00:00:00 | |
| EA3IBE | 2026-09-05 12:04:16 | 41.27636 | 2.25932 | 310° | 27km/h | 21494m | 6.8m/s | 0°C | 0% | 0hPa | 0V | 00:00:00 | 00:00:00 | 00:00:00 | |
| EA3IBE | 2026-09-05 12:04:10 | 41.27618 | 2.25964 | 354° | 13km/h | 21461m | 5.7m/s | 0°C | 0% | 0hPa | 0V | 00:00:00 | 00:00:00 | 00:00:00 | |
| EA3IBE | 2026-09-05 12:04:04 | 41.27595 | 2.25995 | 298° | 33km/h | 21430m | 7.1m/s | 0°C | 0% | 0hPa | 0V | 00:00:00 | 00:00:00 | 00:00:00 | |
| EA3GEO | 2026-09-05 12:03:58 | 41.27574 | 2.26034 | 327° | 20km/h | 21399m | 5.3m/s | 0°C | 0% | 0hPa | 0V | 00:00:00 | 00:00:00 | 00:00:00 | |
| EA3IBE | 2026-09-05 12:03:53 | 41.27549 | 2.26064 | 308° | 37km/h | 21372m | 6.4m/s | 0°C | 0% | 0hPa | 0V | 00:00:00 | 00:00:00 | 00:00:00 | |
| EA3GEO | 2026-09-05 12:03:48 | 41.27527 | 2.26106 | 320° | 22km/h | 21344m | 5.5m/s | 0°C | 0% | 0hPa | 0V | 00:00:00 | 00:00:00 | 00:00:00 | |
| EA3IBE | 2026-09-05 12:03:47 | 41.27523 | 2.26110 | 309° | 16km/h | 21338m | 6.2m/s | 0°C | 0% | 0hPa | 0V | 00:00:00 | 00:00:00 | 00:00:00 | |
| EA3GEO | 2026-09-05 12:03:42 | 41.27501 | 2.26148 | 308° | 38km/h | 21311m | 7.2m/s | 0°C | 0% | 0hPa | 0V | 00:00:00 | 00:00:00 | 00:00:00 | |
| EA3IBE | 2026-09-05 12:03:38 | 41.27486 | 2.26189 | 298° | 31km/h | 21288m | 4.1m/s | 0°C | 0% | 0hPa | 0V | 00:00:00 | 00:00:00 | 00:00:00 | |
| EA3GEO | 2026-09-05 12:03:36 | 41.27480 | 2.26206 | 294° | 26km/h | 21279m | 3.9m/s | 0°C | 0% | 0hPa | 0V | 00:00:00 | 00:00:00 | 00:00:00 | |
| EA3IBE | 2026-09-05 12:03:33 | 41.27467 | 2.26230 | 310° | 38km/h | 21264m | 4.0m/s | 0°C | 0% | 0hPa | 0V | 00:00:00 | 00:00:00 | 00:00:00 | |
| EA3GEO | 2026-09-05 12:03:31 | 41.27459 | 2.26251 | 290° | 31km/h | 21253m | 5.7m/s | 0°C | 0% | 0hPa | 0V | 00:00:00 | 00:00:00 | 00:00:00 | |
| EA3IBE | 2026-09-05 12:03:27 | 41.27452 | 2.26278 | 295° | 16km/h | 21231m | 5.8m/s | 0°C | 0% | 0hPa | 0V | 00:00:00 | 00:00:00 | 00:00:00 | |
| EA3IBE | 2026-09-05 12:03:21 | 41.27438 | 2.26321 | 291° | 22km/h | 21200m | 6.7m/s | 0°C | 0% | 0hPa | 0V | 00:00:00 | 00:00:00 | 00:00:00 | |
| EA3IBE | 2026-09-05 12:03:15 | 41.27433 | 2.26356 | 288° | 22km/h | 21168m | 6.2m/s | 0°C | 0% | 0hPa | 0V | 00:00:00 | 00:00:00 | 00:00:00 | |
| EA3GEO | 2026-09-05 12:03:14 | 41.27431 | 2.26363 | 282° | 26km/h | 21162m | 6.2m/s | 0°C | 0% | 0hPa | 0V | 00:00:00 | 00:00:00 | 00:00:00 | |
| EA3IBE | 2026-09-05 12:03:10 | 41.27424 | 2.26396 | 284° | 18km/h | 21142m | 6.8m/s | 0°C | 0% | 0hPa | 0V | 00:00:00 | 00:00:00 | 00:00:00 | |
| EA3GEO | 2026-09-05 12:03:09 | 41.27424 | 2.26401 | 273° | 11km/h | 21136m | 5.8m/s | 0°C | 0% | 0hPa | 0V | 00:00:00 | 00:00:00 | 00:00:00 | |
| EA3GEO | 2026-09-05 12:03:04 | 41.27417 | 2.26424 | 283° | 29km/h | 21109m | 7.0m/s | 0°C | 0% | 0hPa | 0V | 00:00:00 | 00:00:00 | 00:00:00 | |
| EA3IBE | 2026-09-05 12:02:59 | 41.27407 | 2.26458 | 276° | 9km/h | 21085m | 5.7m/s | 0°C | 0% | 0hPa | 0V | 00:00:00 | 00:00:00 | 00:00:00 | |
| EA3GEO | 2026-09-05 12:02:58 | 41.27407 | 2.26461 | 263° | 13km/h | 21079m | 4.8m/s | 0°C | 0% | 0hPa | 0V | 00:00:00 | 00:00:00 | 00:00:00 | |
| EA3IBE | 2026-09-05 12:02:49 | 41.27405 | 2.26514 | 259° | 20km/h | 21034m | 5.0m/s | 0°C | 0% | 0hPa | 0V | 00:00:00 | 00:00:00 | 00:00:00 | |
| EA3IBE | 2026-09-05 12:02:43 | 41.27405 | 2.26535 | 273° | 18km/h | 21002m | 7.2m/s | 0°C | 0% | 0hPa | 0V | 00:00:00 | 00:00:00 | 00:00:00 | |
| EA3GEO | 2026-09-05 12:02:42 | 41.27405 | 2.26543 | 268° | 27km/h | 20995m | 5.8m/s | 0°C | 0% | 0hPa | 0V | 00:00:00 | 00:00:00 | 00:00:00 | |
| EA3IBE | 2026-09-05 12:02:38 | 41.27405 | 2.26581 | 238° | 11km/h | 20967m | 5.5m/s | 0°C | 0% | 0hPa | 0V | 00:00:00 | 00:00:00 | 00:00:00 | |
| EA3GEO | 2026-09-05 12:02:33 | 41.27402 | 2.26592 | 301° | 22km/h | 20948m | 5.2m/s | 0°C | 0% | 0hPa | 0V | 00:00:00 | 00:00:00 | 00:00:00 | |
| EA3IBE | 2026-09-05 12:02:32 | 41.27400 | 2.26599 | 280° | 22km/h | 20942m | 6.1m/s | 0°C | 0% | 0hPa | 0V | 00:00:00 | 00:00:00 | 00:00:00 | |
| EA3IBE | 2026-09-05 12:02:25 | 41.27404 | 2.26635 | 246° | 11km/h | 20906m | 5.8m/s | 0°C | 0% | 0hPa | 0V | 00:00:00 | 00:00:00 | 00:00:00 | |
| EA3IBE | 2026-09-05 12:02:19 | 41.27401 | 2.26660 | 281° | 20km/h | 20873m | 6.2m/s | 0°C | 0% | 0hPa | 0V | 00:00:00 | 00:00:00 | 00:00:00 | |
| EA3GEO | 2026-09-05 12:02:16 | 41.27401 | 2.26678 | 261° | 16km/h | 20856m | 4.1m/s | 0°C | 0% | 0hPa | 0V | 00:00:00 | 00:00:00 | 00:00:00 | |
| EA3IBE | 2026-09-05 12:02:14 | 41.27402 | 2.26691 | 258° | 22km/h | 20845m | 5.3m/s | 0°C | 0% | 0hPa | 0V | 00:00:00 | 00:00:00 | 00:00:00 | |
| EA3IBE | 2026-09-05 12:02:08 | 41.27399 | 2.26730 | 277° | 26km/h | 20813m | 6.0m/s | 0°C | 0% | 0hPa | 0V | 00:00:00 | 00:00:00 | 00:00:00 | |
| EA3GEO | 2026-09-05 12:02:04 | 41.27393 | 2.26757 | 270° | 22km/h | 20792m | 6.8m/s | 0°C | 0% | 0hPa | 0V | 00:00:00 | 00:00:00 | 00:00:00 | |
| EA3IBE | 2026-09-05 12:02:03 | 41.27394 | 2.26765 | 260° | 27km/h | 20786m | 5.0m/s | 0°C | 0% | 0hPa | 0V | 00:00:00 | 00:00:00 | 00:00:00 | |
| EA3GEO | 2026-09-05 12:01:59 | 41.27393 | 2.26803 | 284° | 31km/h | 20766m | 6.5m/s | 0°C | 0% | 0hPa | 0V | 00:00:00 | 00:00:00 | 00:00:00 | |
| EA3GEO | 2026-09-05 12:01:53 | 41.27390 | 2.26843 | 250° | 15km/h | 20735m | 6.0m/s | 0°C | 0% | 0hPa | 0V | 00:00:00 | 00:00:00 | 00:00:00 | |
| EA3IBE | 2026-09-05 12:01:48 | 41.27394 | 2.26887 | 284° | 27km/h | 20709m | 4.7m/s | 0°C | 0% | 0hPa | 0V | 00:00:00 | 00:00:00 | 00:00:00 | |
| EA3GEO | 2026-09-05 12:01:46 | 41.27392 | 2.26902 | 264° | 18km/h | 20699m | 4.3m/s | 0°C | 0% | 0hPa | 0V | 00:00:00 | 00:00:00 | 00:00:00 | |
| EA3IBE | 2026-09-05 12:01:43 | 41.27393 | 2.26911 | 222° | 5km/h | 20684m | 4.7m/s | 0°C | 0% | 0hPa | 0V | 00:00:00 | 00:00:00 | 00:00:00 | |
| EA3GEO | 2026-09-05 12:01:40 | 41.27400 | 2.26924 | 251° | 26km/h | 20668m | 4.5m/s | 0°C | 0% | 0hPa | 0V | 00:00:00 | 00:00:00 | 00:00:00 | |
| EA3IBE | 2026-09-05 12:01:37 | 41.27400 | 2.26948 | 290° | 22km/h | 20653m | 4.7m/s | 0°C | 0% | 0hPa | 0V | 00:00:00 | 00:00:00 | 00:00:00 | |
| EA3GEO | 2026-09-05 12:01:34 | 41.27398 | 2.26965 | 276° | 9km/h | 20636m | 6.0m/s | 0°C | 0% | 0hPa | 0V | 00:00:00 | 00:00:00 | 00:00:00 | |
| EA3GEO | 2026-09-05 12:01:28 | 41.27398 | 2.26988 | 291° | 22km/h | 20604m | 6.0m/s | 0°C | 0% | 0hPa | 0V | 00:00:00 | 00:00:00 | 00:00:00 | |
| EA3IBE | 2026-09-05 12:01:24 | 41.27393 | 2.27015 | 281° | 15km/h | 20582m | 6.0m/s | 0°C | 0% | 0hPa | 0V | 00:00:00 | 00:00:00 | 00:00:00 | |
| EA3GEO | 2026-09-05 12:01:23 | 41.27393 | 2.27020 | 273° | 15km/h | 20577m | 2.9m/s | 0°C | 0% | 0hPa | 0V | 00:00:00 | 00:00:00 | 00:00:00 | |
| EA3IBE | 2026-09-05 12:01:19 | 41.27394 | 2.27043 | 286° | 22km/h | 20556m | 5.7m/s | 0°C | 0% | 0hPa | 0V | 00:00:00 | 00:00:00 | 00:00:00 | |
| EA3GEO | 2026-09-05 12:01:17 | 41.27391 | 2.27060 | 277° | 29km/h | 20546m | 6.0m/s | 0°C | 0% | 0hPa | 0V | 00:00:00 | 00:00:00 | 00:00:00 | |
| EA3IBE | 2026-09-05 12:01:14 | 41.27392 | 2.27087 | 272° | 22km/h | 20530m | 5.2m/s | 0°C | 0% | 0hPa | 0V | 00:00:00 | 00:00:00 | 00:00:00 | |
| EA3GEO | 2026-09-05 12:01:13 | 41.27392 | 2.27103 | 264° | 26km/h | 20520m | 5.9m/s | 0°C | 0% | 0hPa | 0V | 00:00:00 | 00:00:00 | 00:00:00 | |
| EA3GEO | 2026-09-05 12:01:07 | 41.27392 | 2.27157 | 265° | 33km/h | 20496m | 5.6m/s | 0°C | 0% | 0hPa | 0V | 00:00:00 | 00:00:00 | 00:00:00 | |
| EA3IBE | 2026-09-05 12:01:06 | 41.27394 | 2.27168 | 247° | 31km/h | 20490m | 5.0m/s | 0°C | 0% | 0hPa | 0V | 00:00:00 | 00:00:00 | 00:00:00 | |
| EA3GEO | 2026-09-05 12:01:01 | 41.27401 | 2.27197 | 265° | 15km/h | 20465m | 5.8m/s | 0°C | 0% | 0hPa | 0V | 00:00:00 | 00:00:00 | 00:00:00 | |
| EA3GEO | 2026-09-05 12:00:55 | 41.27408 | 2.27249 | 260° | 18km/h | 20434m | 4.9m/s | 0°C | 0% | 0hPa | 0V | 00:00:00 | 00:00:00 | 00:00:00 | |
| EA3IBE | 2026-09-05 12:00:53 | 41.27414 | 2.27261 | 226° | 24km/h | 20423m | 4.5m/s | 0°C | 0% | 0hPa | 0V | 00:00:00 | 00:00:00 | 00:00:00 | |
| EA3GEO | 2026-09-05 12:00:48 | 41.27428 | 2.27288 | 242° | 22km/h | 20397m | 6.3m/s | 0°C | 0% | 0hPa | 0V | 00:00:00 | 00:00:00 | 00:00:00 | |
| EA3IBE | 2026-09-05 12:00:47 | 41.27430 | 2.27295 | 237° | 24km/h | 20392m | 3.8m/s | 0°C | 0% | 0hPa | 0V | 00:00:00 | 00:00:00 | 00:00:00 | |
| EA3GEO | 2026-09-05 12:00:43 | 41.27445 | 2.27316 | 211° | 26km/h | 20371m | 5.9m/s | 0°C | 0% | 0hPa | 0V | 00:00:00 | 00:00:00 | 00:00:00 | |
| EA3GEO | 2026-09-05 12:00:38 | 41.27469 | 2.27341 | 229° | 26km/h | 20345m | 4.4m/s | 0°C | 0% | 0hPa | 0V | 00:00:00 | 00:00:00 | 00:00:00 | |
| EA3IBE | 2026-09-05 12:00:37 | 41.27473 | 2.27347 | 235° | 22km/h | 20340m | 5.1m/s | 0°C | 0% | 0hPa | 0V | 00:00:00 | 00:00:00 | 00:00:00 | |
| EA3IBE | 2026-09-05 12:00:32 | 41.27492 | 2.27361 | 202° | 26km/h | 20315m | 4.7m/s | 0°C | 0% | 0hPa | 0V | 00:00:00 | 00:00:00 | 00:00:00 | |
| EA3IBE | 2026-09-05 12:00:27 | 41.27510 | 2.27380 | 220° | 16km/h | 20289m | 4.9m/s | 0°C | 0% | 0hPa | 0V | 00:00:00 | 00:00:00 | 00:00:00 | |
| EA3IBE | 2026-09-05 12:00:19 | 41.27533 | 2.27403 | 227° | 15km/h | 20248m | 4.6m/s | 0°C | 0% | 0hPa | 0V | 00:00:00 | 00:00:00 | 00:00:00 | |
| EA3IBE | 2026-09-05 12:00:14 | 41.27549 | 2.27406 | 141° | 11km/h | 20222m | 4.5m/s | 0°C | 0% | 0hPa | 0V | 00:00:00 | 00:00:00 | 00:00:00 | |
| EA3IBE | 2026-09-05 12:00:00 | 41.27595 | 2.27408 | 182° | 15km/h | 20153m | 4.3m/s | 0°C | 0% | 0hPa | 0V | 00:00:00 | 00:00:00 | 00:00:00 | |
| EA3IBE | 2026-09-05 11:59:54 | 41.27615 | 2.27404 | 165° | 13km/h | 20123m | 6.7m/s | 0°C | 0% | 0hPa | 0V | 00:00:00 | 00:00:00 | 00:00:00 | |
| EA3GEO | 2026-09-05 11:59:53 | 41.27618 | 2.27403 | 189° | 9km/h | 20117m | 4.8m/s | 0°C | 0% | 0hPa | 0V | 00:00:00 | 00:00:00 | 00:00:00 | |
| EA3IBE | 2026-09-05 11:59:47 | 41.27625 | 2.27403 | 136° | 4km/h | 20088m | 5.4m/s | 0°C | 0% | 0hPa | 0V | 00:00:00 | 00:00:00 | 00:00:00 | |
| EA3IBE | 2026-09-05 11:59:37 | 41.27628 | 2.27377 | 323° | 4km/h | 20038m | 3.8m/s | 0°C | 0% | 0hPa | 0V | 00:00:00 | 00:00:00 | 00:00:00 | |
| EA3GEO | 2026-09-05 11:59:27 | 41.27629 | 2.27360 | 293° | 7km/h | 19988m | 4.5m/s | 0°C | 0% | 0hPa | 0V | 00:00:00 | 00:00:00 | 00:00:00 | |
| EA3GEO | 2026-09-05 11:58:39 | 41.27610 | 2.27330 | 273° | 4km/h | 19746m | 5.8m/s | 0°C | 0% | 0hPa | 0V | 00:00:00 | 00:00:00 | 00:00:00 | |
| EA3GEO | 2026-09-05 11:58:20 | 41.27621 | 2.27348 | 267° | 15km/h | 19650m | 4.8m/s | 0°C | 0% | 0hPa | 0V | 00:00:00 | 00:00:00 | 00:00:00 | |
| EA3GEO | 2026-09-05 11:58:15 | 41.27625 | 2.27362 | 293° | 5km/h | 19623m | 4.0m/s | 0°C | 0% | 0hPa | 0V | 00:00:00 | 00:00:00 | 00:00:00 | |
| EA3IBE | 2026-09-05 11:58:11 | 41.27631 | 2.27370 | 215° | 13km/h | 19603m | 6.1m/s | 0°C | 0% | 0hPa | 0V | 00:00:00 | 00:00:00 | 00:00:00 | |
| EA3GEO | 2026-09-05 11:58:07 | 41.27640 | 2.27382 | 244° | 15km/h | 19582m | 4.8m/s | 0°C | 0% | 0hPa | 0V | 00:00:00 | 00:00:00 | 00:00:00 | |
| EA3IBE | 2026-09-05 11:58:03 | 41.27646 | 2.27397 | 206° | 18km/h | 19563m | 6.1m/s | 0°C | 0% | 0hPa | 0V | 00:00:00 | 00:00:00 | 00:00:00 | |
| EA3GEO | 2026-09-05 11:58:00 | 41.27657 | 2.27402 | 227° | 9km/h | 19548m | 4.9m/s | 0°C | 0% | 0hPa | 0V | 00:00:00 | 00:00:00 | 00:00:00 | |
| EA3GEO | 2026-09-05 11:57:53 | 41.27671 | 2.27431 | 214° | 18km/h | 19512m | 7.1m/s | 0°C | 0% | 0hPa | 0V | 00:00:00 | 00:00:00 | 00:00:00 | |
| EA3IBE | 2026-09-05 11:57:52 | 41.27675 | 2.27434 | 192° | 22km/h | 19506m | 5.4m/s | 0°C | 0% | 0hPa | 0V | 00:00:00 | 00:00:00 | 00:00:00 | |
| EA3GEO | 2026-09-05 11:57:47 | 41.27696 | 2.27442 | 223° | 20km/h | 19480m | 3.8m/s | 0°C | 0% | 0hPa | 0V | 00:00:00 | 00:00:00 | 00:00:00 | |
| EA3IBE | 2026-09-05 11:57:42 | 41.27714 | 2.27466 | 196° | 27km/h | 19455m | 4.7m/s | 0°C | 0% | 0hPa | 0V | 00:00:00 | 00:00:00 | 00:00:00 | |
| EA3IBE | 2026-09-05 11:57:37 | 41.27736 | 2.27484 | 232° | 20km/h | 19430m | 5.1m/s | 0°C | 0% | 0hPa | 0V | 00:00:00 | 00:00:00 | 00:00:00 | |
| EA3IBE | 2026-09-05 11:57:23 | 41.27811 | 2.27503 | 188° | 26km/h | 19357m | 3.7m/s | 0°C | 0% | 0hPa | 0V | 00:00:00 | 00:00:00 | 00:00:00 | |
| EA3IBE | 2026-09-05 11:57:14 | 41.27859 | 2.27506 | 156° | 20km/h | 19312m | 5.2m/s | 0°C | 0% | 0hPa | 0V | 00:00:00 | 00:00:00 | 00:00:00 | |
| EA3GEO | 2026-09-05 11:57:13 | 41.27864 | 2.27504 | 173° | 22km/h | 19306m | 6.0m/s | 0°C | 0% | 0hPa | 0V | 00:00:00 | 00:00:00 | 00:00:00 | |
| EA3IBE | 2026-09-05 11:57:08 | 41.27890 | 2.27503 | 167° | 20km/h | 19281m | 3.9m/s | 0°C | 0% | 0hPa | 0V | 00:00:00 | 00:00:00 | 00:00:00 | |
| EA3GEO | 2026-09-05 11:57:06 | 41.27902 | 2.27501 | 173° | 26km/h | 19271m | 4.1m/s | 0°C | 0% | 0hPa | 0V | 00:00:00 | 00:00:00 | 00:00:00 | |
| EA3IBE | 2026-09-05 11:57:00 | 41.27934 | 2.27484 | 152° | 18km/h | 19240m | 5.3m/s | 0°C | 0% | 0hPa | 0V | 00:00:00 | 00:00:00 | 00:00:00 | |
| EA3GEO | 2026-09-05 11:56:57 | 41.27946 | 2.27477 | 179° | 22km/h | 19224m | 5.7m/s | 0°C | 0% | 0hPa | 0V | 00:00:00 | 00:00:00 | 00:00:00 | |
| EA3IBE | 2026-09-05 11:56:52 | 41.27971 | 2.27466 | 149° | 18km/h | 19201m | 5.8m/s | 0°C | 0% | 0hPa | 0V | 00:00:00 | 00:00:00 | 00:00:00 | |
| EA3GEO | 2026-09-05 11:56:51 | 41.27975 | 2.27464 | 160° | 16km/h | 19196m | 5.1m/s | 0°C | 0% | 0hPa | 0V | 00:00:00 | 00:00:00 | 00:00:00 | |
| EA3GEO | 2026-09-05 11:56:46 | 41.27999 | 2.27453 | 179° | 26km/h | 19170m | 2.9m/s | 0°C | 0% | 0hPa | 0V | 00:00:00 | 00:00:00 | 00:00:00 | |
| EA3IBE | 2026-09-05 11:56:45 | 41.28005 | 2.27452 | 169° | 26km/h | 19166m | 5.7m/s | 0°C | 0% | 0hPa | 0V | 00:00:00 | 00:00:00 | 00:00:00 | |
| EA3IBE | 2026-09-05 11:56:40 | 41.28030 | 2.27440 | 165° | 16km/h | 19139m | 5.1m/s | 0°C | 0% | 0hPa | 0V | 00:00:00 | 00:00:00 | 00:00:00 | |
| EA3GEO | 2026-09-05 11:56:39 | 41.28034 | 2.27438 | 157° | 20km/h | 19134m | 5.7m/s | 0°C | 0% | 0hPa | 0V | 00:00:00 | 00:00:00 | 00:00:00 | |
| EA3GEO | 2026-09-05 11:56:34 | 41.28062 | 2.27430 | 170° | 18km/h | 19106m | 4.4m/s | 0°C | 0% | 0hPa | 0V | 00:00:00 | 00:00:00 | 00:00:00 | |
| EA3GEO | 2026-09-05 11:56:29 | 41.28082 | 2.27426 | 164° | 20km/h | 19080m | 3.8m/s | 0°C | 0% | 0hPa | 0V | 00:00:00 | 00:00:00 | 00:00:00 | |
| EA3IBE | 2026-09-05 11:56:28 | 41.28086 | 2.27425 | 176° | 20km/h | 19075m | 6.3m/s | 0°C | 0% | 0hPa | 0V | 00:00:00 | 00:00:00 | 00:00:00 | |
| EA3GEO | 2026-09-05 11:56:23 | 41.28113 | 2.27419 | 171° | 15km/h | 19049m | 5.7m/s | 0°C | 0% | 0hPa | 0V | 00:00:00 | 00:00:00 | 00:00:00 | |
| EA3GEO | 2026-09-05 11:56:17 | 41.28133 | 2.27409 | 175° | 20km/h | 19017m | 4.8m/s | 0°C | 0% | 0hPa | 0V | 00:00:00 | 00:00:00 | 00:00:00 | |
| EA3IBE | 2026-09-05 11:56:14 | 41.28146 | 2.27403 | 170° | 16km/h | 19002m | 5.7m/s | 0°C | 0% | 0hPa | 0V | 00:00:00 | 00:00:00 | 00:00:00 | |
| EA3GEO | 2026-09-05 11:56:12 | 41.28152 | 2.27400 | 138° | 11km/h | 18992m | 5.6m/s | 0°C | 0% | 0hPa | 0V | 00:00:00 | 00:00:00 | 00:00:00 | |
| EA3GEO | 2026-09-05 11:56:06 | 41.28175 | 2.27382 | 162° | 18km/h | 18959m | 4.7m/s | 0°C | 0% | 0hPa | 0V | 00:00:00 | 00:00:00 | 00:00:00 | |
| EA3IBE | 2026-09-05 11:56:03 | 41.28184 | 2.27380 | 188° | 4km/h | 18944m | 4.5m/s | 0°C | 0% | 0hPa | 0V | 00:00:00 | 00:00:00 | 00:00:00 | |
| EA3GEO | 2026-09-05 11:56:01 | 41.28186 | 2.27378 | 151° | 11km/h | 18934m | 4.2m/s | 0°C | 0% | 0hPa | 0V | 00:00:00 | 00:00:00 | 00:00:00 | |
| EA3IBE | 2026-09-05 11:55:57 | 41.28204 | 2.27377 | 177° | 20km/h | 18917m | 4.4m/s | 0°C | 0% | 0hPa | 0V | 00:00:00 | 00:00:00 | 00:00:00 | |
| EA3GEO | 2026-09-05 11:55:55 | 41.28212 | 2.27373 | 151° | 16km/h | 18908m | 4.0m/s | 0°C | 0% | 0hPa | 0V | 00:00:00 | 00:00:00 | 00:00:00 | |
| EA3IBE | 2026-09-05 11:55:47 | 41.28240 | 2.27369 | 156° | 22km/h | 18867m | 5.9m/s | 0°C | 0% | 0hPa | 0V | 00:00:00 | 00:00:00 | 00:00:00 | |
| EA3GEO | 2026-09-05 11:55:27 | 41.28318 | 2.27318 | 134° | 20km/h | 18768m | 4.8m/s | 0°C | 0% | 0hPa | 0V | 00:00:00 | 00:00:00 | 00:00:00 | |
| EA3GEO | 2026-09-05 11:55:21 | 41.28337 | 2.27303 | 155° | 11km/h | 18738m | 5.0m/s | 0°C | 0% | 0hPa | 0V | 00:00:00 | 00:00:00 | 00:00:00 | |
| EA3GEO | 2026-09-05 11:55:16 | 41.28352 | 2.27288 | 146° | 16km/h | 18710m | 4.6m/s | 0°C | 0% | 0hPa | 0V | 00:00:00 | 00:00:00 | 00:00:00 | |
| EA3GEO | 2026-09-05 11:55:09 | 41.28370 | 2.27279 | 157° | 15km/h | 18683m | 6.9m/s | 0°C | 0% | 0hPa | 0V | 00:00:00 | 00:00:00 | 00:00:00 | |
| EA3GEO | 2026-09-05 11:55:03 | 41.28384 | 2.27264 | 148° | 16km/h | 18652m | 4.0m/s | 0°C | 0% | 0hPa | 0V | 00:00:00 | 00:00:00 | 00:00:00 | |
| EA3GEO | 2026-09-05 11:54:58 | 41.28399 | 2.27250 | 148° | 18km/h | 18627m | 5.7m/s | 0°C | 0% | 0hPa | 0V | 00:00:00 | 00:00:00 | 00:00:00 | |
| EA3GEO | 2026-09-05 11:54:52 | 41.28414 | 2.27231 | 110° | 7km/h | 18597m | 4.1m/s | 0°C | 0% | 0hPa | 0V | 00:00:00 | 00:00:00 | 00:00:00 | |
| EA3GEO | 2026-09-05 11:54:46 | 41.28426 | 2.27217 | 144° | 16km/h | 18568m | 6.3m/s | 0°C | 0% | 0hPa | 0V | 00:00:00 | 00:00:00 | 00:00:00 | |
| EA3GEO | 2026-09-05 11:54:40 | 41.28439 | 2.27203 | 157° | 5km/h | 18537m | 4.5m/s | 0°C | 0% | 0hPa | 0V | 00:00:00 | 00:00:00 | 00:00:00 | |
| EA3GEO | 2026-09-05 11:54:34 | 41.28446 | 2.27185 | 110° | 9km/h | 18507m | 5.8m/s | 0°C | 0% | 0hPa | 0V | 00:00:00 | 00:00:00 | 00:00:00 | |
| EA3GEO | 2026-09-05 11:54:28 | 41.28455 | 2.27168 | 117° | 16km/h | 18476m | 5.0m/s | 0°C | 0% | 0hPa | 0V | 00:00:00 | 00:00:00 | 00:00:00 | |
| EA3GEO | 2026-09-05 11:54:22 | 41.28469 | 2.27135 | 132° | 15km/h | 18444m | 5.0m/s | 0°C | 0% | 0hPa | 0V | 00:00:00 | 00:00:00 | 00:00:00 | |
| EA3GEO | 2026-09-05 11:54:17 | 41.28478 | 2.27107 | 108° | 26km/h | 18419m | 4.0m/s | 0°C | 0% | 0hPa | 0V | 00:00:00 | 00:00:00 | 00:00:00 | |
| EA3GEO | 2026-09-05 11:54:06 | 41.28493 | 2.27015 | 94° | 35km/h | 18365m | 5.8m/s | 0°C | 0% | 0hPa | 0V | 00:00:00 | 00:00:00 | 00:00:00 | |
| EA3GEO | 2026-09-05 11:54:01 | 41.28490 | 2.26953 | 82° | 27km/h | 18340m | 4.9m/s | 0°C | 0% | 0hPa | 0V | 00:00:00 | 00:00:00 | 00:00:00 | |
| EA3GEO | 2026-09-05 11:53:25 | 41.28509 | 2.26654 | 88° | 29km/h | 18167m | 3.8m/s | 0°C | 0% | 0hPa | 0V | 00:00:00 | 00:00:00 | 00:00:00 | |
| EA3GEO | 2026-09-05 11:53:19 | 41.28499 | 2.26620 | 70° | 24km/h | 18139m | 4.8m/s | 0°C | 0% | 0hPa | 0V | 00:00:00 | 00:00:00 | 00:00:00 | |
| EA3GEO | 2026-09-05 11:53:13 | 41.28496 | 2.26571 | 91° | 16km/h | 18110m | 6.4m/s | 0°C | 0% | 0hPa | 0V | 00:00:00 | 00:00:00 | 00:00:00 | |
| EA3GEO | 2026-09-05 11:53:08 | 41.28490 | 2.26545 | 85° | 18km/h | 18084m | 3.6m/s | 0°C | 0% | 0hPa | 0V | 00:00:00 | 00:00:00 | 00:00:00 | |
| EA3GEO | 2026-09-05 11:53:02 | 41.28482 | 2.26510 | 104° | 13km/h | 18054m | 3.2m/s | 0°C | 0% | 0hPa | 0V | 00:00:00 | 00:00:00 | 00:00:00 | |
| EA3GEO | 2026-09-05 11:52:57 | 41.28478 | 2.26484 | 56° | 15km/h | 18031m | 4.2m/s | 0°C | 0% | 0hPa | 0V | 00:00:00 | 00:00:00 | 00:00:00 | |
| EA3GEO | 2026-09-05 11:52:52 | 41.28471 | 2.26451 | 111° | 13km/h | 18006m | 6.9m/s | 0°C | 0% | 0hPa | 0V | 00:00:00 | 00:00:00 | 00:00:00 | |
| EA3GEO | 2026-09-05 11:52:46 | 41.28460 | 2.26431 | 40° | 20km/h | 17976m | 7.1m/s | 0°C | 0% | 0hPa | 0V | 00:00:00 | 00:00:00 | 00:00:00 | |
| EA3GEO | 2026-09-05 11:52:41 | 41.28447 | 2.26414 | 29° | 9km/h | 17951m | 6.3m/s | 0°C | 0% | 0hPa | 0V | 00:00:00 | 00:00:00 | 00:00:00 | |
| EA3IBE | 2026-09-05 11:52:39 | 41.28440 | 2.26411 | 24° | 16km/h | 17941m | 5.7m/s | 0°C | 0% | 0hPa | 0V | 00:00:00 | 00:00:00 | 00:00:00 | |
| EA3GEO | 2026-09-05 11:52:35 | 41.28421 | 2.26402 | 11° | 22km/h | 17922m | 4.6m/s | 0°C | 0% | 0hPa | 0V | 00:00:00 | 00:00:00 | 00:00:00 | |
| EA3GEO | 2026-09-05 11:52:30 | 41.28400 | 2.26391 | 11° | 15km/h | 17897m | 5.1m/s | 0°C | 0% | 0hPa | 0V | 00:00:00 | 00:00:00 | 00:00:00 | |
| EA3GEO | 2026-09-05 11:52:24 | 41.28379 | 2.26390 | 7° | 18km/h | 17867m | 6.4m/s | 0°C | 0% | 0hPa | 0V | 00:00:00 | 00:00:00 | 00:00:00 | |
| EA3GEO | 2026-09-05 11:52:19 | 41.28361 | 2.26379 | 32° | 13km/h | 17840m | 5.5m/s | 0°C | 0% | 0hPa | 0V | 00:00:00 | 00:00:00 | 00:00:00 | |
| EA3GEO | 2026-09-05 11:52:13 | 41.28344 | 2.26374 | 15° | 9km/h | 17808m | 7.1m/s | 0°C | 0% | 0hPa | 0V | 00:00:00 | 00:00:00 | 00:00:00 | |
| EA3GEO | 2026-09-05 11:52:07 | 41.28329 | 2.26360 | 9° | 9km/h | 17779m | 4.1m/s | 0°C | 0% | 0hPa | 0V | 00:00:00 | 00:00:00 | 00:00:00 | |
| EA3GEO | 2026-09-05 11:52:01 | 41.28322 | 2.26349 | 63° | 11km/h | 17750m | 5.7m/s | 0°C | 0% | 0hPa | 0V | 00:00:00 | 00:00:00 | 00:00:00 | |
| EA3GEO | 2026-09-05 11:51:55 | 41.28316 | 2.26343 | 118° | 7km/h | 17719m | 6.6m/s | 0°C | 0% | 0hPa | 0V | 00:00:00 | 00:00:00 | 00:00:00 | |
| EA3IBE | 2026-09-05 11:51:53 | 41.28316 | 2.26335 | 92° | 16km/h | 17710m | 6.0m/s | 0°C | 0% | 0hPa | 0V | 00:00:00 | 00:00:00 | 00:00:00 | |
| EA3GEO | 2026-09-05 11:51:50 | 41.28313 | 2.26319 | 58° | 15km/h | 17694m | 4.7m/s | 0°C | 0% | 0hPa | 0V | 00:00:00 | 00:00:00 | 00:00:00 | |
| EA3GEO | 2026-09-05 11:51:45 | 41.28312 | 2.26306 | 108° | 7km/h | 17668m | 4.6m/s | 0°C | 0% | 0hPa | 0V | 00:00:00 | 00:00:00 | 00:00:00 | |
| EA3IBE | 2026-09-05 11:51:41 | 41.28313 | 2.26294 | 64° | 11km/h | 17649m | 3.0m/s | 0°C | 0% | 0hPa | 0V | 00:00:00 | 00:00:00 | 00:00:00 | |
| EA3GEO | 2026-09-05 11:51:39 | 41.28312 | 2.26286 | 112° | 13km/h | 17640m | 5.8m/s | 0°C | 0% | 0hPa | 0V | 00:00:00 | 00:00:00 | 00:00:00 | |
| EA3GEO | 2026-09-05 11:51:34 | 41.28318 | 2.26277 | 156° | 11km/h | 17614m | 4.1m/s | 0°C | 0% | 0hPa | 0V | 00:00:00 | 00:00:00 | 00:00:00 | |
| EA3IBE | 2026-09-05 11:51:31 | 41.28321 | 2.26266 | 85° | 16km/h | 17601m | 3.7m/s | 0°C | 0% | 0hPa | 0V | 00:00:00 | 00:00:00 | 00:00:00 | |
| EA3GEO | 2026-09-05 11:51:28 | 41.28325 | 2.26249 | 127° | 20km/h | 17588m | 3.8m/s | 0°C | 0% | 0hPa | 0V | 00:00:00 | 00:00:00 | 00:00:00 | |
| EA3IBE | 2026-09-05 11:51:23 | 41.28330 | 2.26234 | 94° | 5km/h | 17564m | 5.1m/s | 0°C | 0% | 0hPa | 0V | 00:00:00 | 00:00:00 | 00:00:00 | |
| EA3GEO | 2026-09-05 11:51:22 | 41.28330 | 2.26232 | 88° | 7km/h | 17559m | 4.3m/s | 0°C | 0% | 0hPa | 0V | 00:00:00 | 00:00:00 | 00:00:00 | |
| EA3IBE | 2026-09-05 11:51:17 | 41.28335 | 2.26220 | 128° | 7km/h | 17536m | 4.0m/s | 0°C | 0% | 0hPa | 0V | 00:00:00 | 00:00:00 | 00:00:00 | |
| EA3GEO | 2026-09-05 11:51:16 | 41.28336 | 2.26219 | 139° | 5km/h | 17531m | 6.0m/s | 0°C | 0% | 0hPa | 0V | 00:00:00 | 00:00:00 | 00:00:00 | |
| EA3GEO | 2026-09-05 11:51:11 | 41.28340 | 2.26211 | 139° | 9km/h | 17506m | 4.7m/s | 0°C | 0% | 0hPa | 0V | 00:00:00 | 00:00:00 | 00:00:00 | |
| EA3IBE | 2026-09-05 11:51:06 | 41.28345 | 2.26198 | 140° | 5km/h | 17481m | 3.6m/s | 0°C | 0% | 0hPa | 0V | 00:00:00 | 00:00:00 | 00:00:00 | |
| EA3GEO | 2026-09-05 11:51:04 | 41.28345 | 2.26196 | 83° | 5km/h | 17471m | 5.7m/s | 0°C | 0% | 0hPa | 0V | 00:00:00 | 00:00:00 | 00:00:00 | |
| EA3IBE | 2026-09-05 11:51:00 | 41.28351 | 2.26190 | 140° | 15km/h | 17452m | 4.9m/s | 0°C | 0% | 0hPa | 0V | 00:00:00 | 00:00:00 | 00:00:00 | |
| EA3GEO | 2026-09-05 11:50:58 | 41.28357 | 2.26182 | 151° | 15km/h | 17444m | 4.3m/s | 0°C | 0% | 0hPa | 0V | 00:00:00 | 00:00:00 | 00:00:00 | |
| EA3IBE | 2026-09-05 11:50:53 | 41.28370 | 2.26179 | 178° | 7km/h | 17419m | 5.0m/s | 0°C | 0% | 0hPa | 0V | 00:00:00 | 00:00:00 | 00:00:00 | |
| EA3GEO | 2026-09-05 11:50:50 | 41.28379 | 2.26173 | 148° | 18km/h | 17405m | 3.8m/s | 0°C | 0% | 0hPa | 0V | 00:00:00 | 00:00:00 | 00:00:00 | |
| EA3GEO | 2026-09-05 11:50:44 | 41.28399 | 2.26164 | 188° | 7km/h | 17375m | 5.0m/s | 0°C | 0% | 0hPa | 0V | 00:00:00 | 00:00:00 | 00:00:00 | |
| EA3GEO | 2026-09-05 11:50:36 | 41.28414 | 2.26152 | 56° | 5km/h | 17336m | 3.6m/s | 0°C | 0% | 0hPa | 0V | 00:00:00 | 00:00:00 | 00:00:00 | |
| EA3GEO | 2026-09-05 11:50:31 | 41.28418 | 2.26142 | 149° | 18km/h | 17313m | 3.1m/s | 0°C | 0% | 0hPa | 0V | 00:00:00 | 00:00:00 | 00:00:00 | |
| EA3GEO | 2026-09-05 11:50:25 | 41.28427 | 2.26134 | 43° | 4km/h | 17285m | 4.2m/s | 0°C | 0% | 0hPa | 0V | 00:00:00 | 00:00:00 | 00:00:00 | |
| EA3GEO | 2026-09-05 11:50:20 | 41.28436 | 2.26123 | 164° | 20km/h | 17261m | 6.1m/s | 0°C | 0% | 0hPa | 0V | 00:00:00 | 00:00:00 | 00:00:00 | |
| EA3GEO | 2026-09-05 11:50:14 | 41.28451 | 2.26113 | 134° | 11km/h | 17233m | 5.6m/s | 0°C | 0% | 0hPa | 0V | 00:00:00 | 00:00:00 | 00:00:00 | |
| EA3GEO | 2026-09-05 11:50:10 | 41.28469 | 2.26108 | 163° | 20km/h | 17210m | 4.5m/s | 0°C | 0% | 0hPa | 0V | 00:00:00 | 00:00:00 | 00:00:00 | |
| EA3GEO | 2026-09-05 11:50:03 | 41.28489 | 2.26097 | 159° | 11km/h | 17181m | 5.8m/s | 0°C | 0% | 0hPa | 0V | 00:00:00 | 00:00:00 | 00:00:00 | |
| EA3GEO | 2026-09-05 11:49:57 | 41.28512 | 2.26088 | 141° | 13km/h | 17154m | 3.8m/s | 0°C | 0% | 0hPa | 0V | 00:00:00 | 00:00:00 | 00:00:00 | |
| EA3GEO | 2026-09-05 11:49:51 | 41.28538 | 2.26068 | 160° | 24km/h | 17126m | 4.6m/s | 0°C | 0% | 0hPa | 0V | 00:00:00 | 00:00:00 | 00:00:00 | |
| EA3GEO | 2026-09-05 11:49:46 | 41.28564 | 2.26054 | 133° | 20km/h | 17102m | 3.4m/s | 0°C | 0% | 0hPa | 0V | 00:00:00 | 00:00:00 | 00:00:00 | |
| EA3IBE | 2026-09-05 11:49:45 | 41.28568 | 2.26049 | 135° | 20km/h | 17098m | 5.2m/s | 0°C | 0% | 0hPa | 0V | 00:00:00 | 00:00:00 | 00:00:00 | |
| EA3GEO | 2026-09-05 11:49:39 | 41.28596 | 2.26019 | 153° | 16km/h | 17069m | 3.8m/s | 0°C | 0% | 0hPa | 0V | 00:00:00 | 00:00:00 | 00:00:00 | |
| EA3IBE | 2026-09-05 11:49:37 | 41.28603 | 2.26012 | 132° | 20km/h | 17061m | 4.5m/s | 0°C | 0% | 0hPa | 0V | 00:00:00 | 00:00:00 | 00:00:00 | |
| EA3GEO | 2026-09-05 11:49:33 | 41.28624 | 2.25990 | 135° | 27km/h | 17044m | 6.3m/s | 0°C | 0% | 0hPa | 0V | 00:00:00 | 00:00:00 | 00:00:00 | |
| EA3GEO | 2026-09-05 11:49:28 | 41.28635 | 2.25961 | 117° | 22km/h | 17018m | 5.5m/s | 0°C | 0% | 0hPa | 0V | 00:00:00 | 00:00:00 | 00:00:00 | |
| EA3IBE | 2026-09-05 11:49:26 | 41.28643 | 2.25951 | 157° | 24km/h | 17009m | 5.8m/s | 0°C | 0% | 0hPa | 0V | 00:00:00 | 00:00:00 | 00:00:00 | |
| EA3GEO | 2026-09-05 11:49:22 | 41.28668 | 2.25933 | 134° | 22km/h | 16990m | 3.8m/s | 0°C | 0% | 0hPa | 0V | 00:00:00 | 00:00:00 | 00:00:00 | |
| EA3IBE | 2026-09-05 11:49:20 | 41.28674 | 2.25925 | 143° | 13km/h | 16979m | 5.2m/s | 0°C | 0% | 0hPa | 0V | 00:00:00 | 00:00:00 | 00:00:00 | |
| EA3GEO | 2026-09-05 11:49:16 | 41.28690 | 2.25913 | 153° | 29km/h | 16960m | 5.7m/s | 0°C | 0% | 0hPa | 0V | 00:00:00 | 00:00:00 | 00:00:00 | |
| EA3IBE | 2026-09-05 11:49:15 | 41.28696 | 2.25909 | 158° | 29km/h | 16955m | 5.6m/s | 0°C | 0% | 0hPa | 0V | 00:00:00 | 00:00:00 | 00:00:00 | |
| EA3GEO | 2026-09-05 11:49:11 | 41.28720 | 2.25892 | 156° | 16km/h | 16936m | 5.8m/s | 0°C | 0% | 0hPa | 0V | 00:00:00 | 00:00:00 | 00:00:00 | |
| EA3GEO | 2026-09-05 11:49:05 | 41.28744 | 2.25868 | 142° | 22km/h | 16909m | 3.8m/s | 0°C | 0% | 0hPa | 0V | 00:00:00 | 00:00:00 | 00:00:00 | |
| EA3IBE | 2026-09-05 11:49:04 | 41.28747 | 2.25863 | 133° | 20km/h | 16905m | 5.2m/s | 0°C | 0% | 0hPa | 0V | 00:00:00 | 00:00:00 | 00:00:00 | |
| EA3GEO | 2026-09-05 11:48:59 | 41.28765 | 2.25846 | 144° | 18km/h | 16881m | 6.6m/s | 0°C | 0% | 0hPa | 0V | 00:00:00 | 00:00:00 | 00:00:00 | |
| EA3IBE | 2026-09-05 11:48:56 | 41.28777 | 2.25832 | 139° | 20km/h | 16866m | 3.7m/s | 0°C | 0% | 0hPa | 0V | 00:00:00 | 00:00:00 | 00:00:00 | |
| EA3GEO | 2026-09-05 11:48:54 | 41.28782 | 2.25823 | 117° | 15km/h | 16856m | 4.3m/s | 0°C | 0% | 0hPa | 0V | 00:00:00 | 00:00:00 | 00:00:00 | |
| EA3IBE | 2026-09-05 11:48:50 | 41.28793 | 2.25810 | 143° | 22km/h | 16837m | 6.2m/s | 0°C | 0% | 0hPa | 0V | 00:00:00 | 00:00:00 | 00:00:00 | |
| EA3GEO | 2026-09-05 11:48:48 | 41.28802 | 2.25802 | 154° | 22km/h | 16825m | 4.5m/s | 0°C | 0% | 0hPa | 0V | 00:00:00 | 00:00:00 | 00:00:00 | |
| EA3IBE | 2026-09-05 11:48:44 | 41.28818 | 2.25784 | 134° | 24km/h | 16806m | 5.2m/s | 0°C | 0% | 0hPa | 0V | 00:00:00 | 00:00:00 | 00:00:00 | |
| EA3GEO | 2026-09-05 11:48:42 | 41.28824 | 2.25772 | 123° | 24km/h | 16796m | 6.0m/s | 0°C | 0% | 0hPa | 0V | 00:00:00 | 00:00:00 | 00:00:00 | |
| EA3GEO | 2026-09-05 11:48:36 | 41.28849 | 2.25744 | 137° | 22km/h | 16767m | 6.0m/s | 0°C | 0% | 0hPa | 0V | 00:00:00 | 00:00:00 | 00:00:00 | |
| EA3IBE | 2026-09-05 11:48:32 | 41.28862 | 2.25719 | 126° | 22km/h | 16748m | 4.8m/s | 0°C | 0% | 0hPa | 0V | 00:00:00 | 00:00:00 | 00:00:00 | |
| EA3GEO | 2026-09-05 11:48:30 | 41.28870 | 2.25707 | 142° | 24km/h | 16739m | 2.8m/s | 0°C | 0% | 0hPa | 0V | 00:00:00 | 00:00:00 | 00:00:00 | |
| EA3GEO | 2026-09-05 11:48:25 | 41.28892 | 2.25676 | 127° | 26km/h | 16716m | 5.9m/s | 0°C | 0% | 0hPa | 0V | 00:00:00 | 00:00:00 | 00:00:00 | |
| EA3IBE | 2026-09-05 11:48:23 | 41.28898 | 2.25662 | 109° | 24km/h | 16706m | 4.0m/s | 0°C | 0% | 0hPa | 0V | 00:00:00 | 00:00:00 | 00:00:00 | |
| EA3GEO | 2026-09-05 11:48:19 | 41.28912 | 2.25631 | 130° | 27km/h | 16685m | 6.5m/s | 0°C | 0% | 0hPa | 0V | 00:00:00 | 00:00:00 | 00:00:00 | |
| EA3IBE | 2026-09-05 11:48:18 | 41.28917 | 2.25624 | 139° | 24km/h | 16679m | 5.6m/s | 0°C | 0% | 0hPa | 0V | 00:00:00 | 00:00:00 | 00:00:00 | |
| EA3GEO | 2026-09-05 11:48:13 | 41.28936 | 2.25591 | 118° | 33km/h | 16656m | 5.4m/s | 0°C | 0% | 0hPa | 0V | 00:00:00 | 00:00:00 | 00:00:00 | |
| EA3IBE | 2026-09-05 11:48:11 | 41.28946 | 2.25572 | 131° | 38km/h | 16647m | 3.2m/s | 0°C | 0% | 0hPa | 0V | 00:00:00 | 00:00:00 | 00:00:00 | |
| EA3GEO | 2026-09-05 11:48:07 | 41.28959 | 2.25540 | 112° | 26km/h | 16630m | 5.2m/s | 0°C | 0% | 0hPa | 0V | 00:00:00 | 00:00:00 | 00:00:00 | |
| EA3GEO | 2026-09-05 11:48:02 | 41.28983 | 2.25484 | 125° | 37km/h | 16603m | 6.0m/s | 0°C | 0% | 0hPa | 0V | 00:00:00 | 00:00:00 | 00:00:00 | |
| EA3IBE | 2026-09-05 11:48:01 | 41.28983 | 2.25484 | 125° | 37km/h | 16603m | 6.0m/s | 0°C | 0% | 0hPa | 0V | 00:00:00 | 00:00:00 | 00:00:00 | |
| EA3IBE | 2026-09-05 11:47:56 | 41.29007 | 2.25442 | 141° | 29km/h | 16577m | 3.7m/s | 0°C | 0% | 0hPa | 0V | 00:00:00 | 00:00:00 | 00:00:00 | |
| EA3IBE | 2026-09-05 11:47:51 | 41.29031 | 2.25408 | 141° | 31km/h | 16554m | 3.5m/s | 0°C | 0% | 0hPa | 0V | 00:00:00 | 00:00:00 | 00:00:00 | |
| EA3GEO | 2026-09-05 11:47:50 | 41.29037 | 2.25401 | 137° | 33km/h | 16550m | 4.6m/s | 0°C | 0% | 0hPa | 0V | 00:00:00 | 00:00:00 | 00:00:00 | |
| EA3IBE | 2026-09-05 11:47:46 | 41.29061 | 2.25362 | 135° | 40km/h | 16532m | 4.9m/s | 0°C | 0% | 0hPa | 0V | 00:00:00 | 00:00:00 | 00:00:00 | |
| EA3GEO | 2026-09-05 11:47:44 | 41.29074 | 2.25344 | 136° | 31km/h | 16521m | 3.1m/s | 0°C | 0% | 0hPa | 0V | 00:00:00 | 00:00:00 | 00:00:00 | |
| EA3GEO | 2026-09-05 11:47:38 | 41.29107 | 2.25294 | 130° | 38km/h | 16494m | 4.0m/s | 0°C | 0% | 0hPa | 0V | 00:00:00 | 00:00:00 | 00:00:00 | |
| EA3IBE | 2026-09-05 11:47:35 | 41.29124 | 2.25265 | 134° | 33km/h | 16480m | 5.4m/s | 0°C | 0% | 0hPa | 0V | 00:00:00 | 00:00:00 | 00:00:00 | |
| EA3GEO | 2026-09-05 11:47:34 | 41.29136 | 2.25250 | 137° | 31km/h | 16470m | 5.4m/s | 0°C | 0% | 0hPa | 0V | 00:00:00 | 00:00:00 | 00:00:00 | |
| EA3GEO | 2026-09-05 11:47:26 | 41.29171 | 2.25181 | 127° | 29km/h | 16435m | 5.4m/s | 0°C | 0% | 0hPa | 0V | 00:00:00 | 00:00:00 | 00:00:00 | |
| EA3IBE | 2026-09-05 11:47:22 | 41.29185 | 2.25149 | 124° | 27km/h | 16418m | 4.8m/s | 0°C | 0% | 0hPa | 0V | 00:00:00 | 00:00:00 | 00:00:00 | |
| EA3GEO | 2026-09-05 11:47:19 | 41.29198 | 2.25122 | 119° | 35km/h | 16405m | 5.6m/s | 0°C | 0% | 0hPa | 0V | 00:00:00 | 00:00:00 | 00:00:00 | |
| EA3IBE | 2026-09-05 11:47:15 | 41.29214 | 2.25083 | 112° | 31km/h | 16386m | 6.1m/s | 0°C | 0% | 0hPa | 0V | 00:00:00 | 00:00:00 | 00:00:00 | |
| EA3GEO | 2026-09-05 11:47:13 | 41.29218 | 2.25064 | 109° | 27km/h | 16377m | 3.2m/s | 0°C | 0% | 0hPa | 0V | 00:00:00 | 00:00:00 | 00:00:00 | |
| EA3IBE | 2026-09-05 11:47:10 | 41.29227 | 2.25038 | 119° | 31km/h | 16363m | 5.6m/s | 0°C | 0% | 0hPa | 0V | 00:00:00 | 00:00:00 | 00:00:00 | |
| EA3GEO | 2026-09-05 11:47:08 | 41.29234 | 2.25017 | 109° | 38km/h | 16353m | 3.9m/s | 0°C | 0% | 0hPa | 0V | 00:00:00 | 00:00:00 | 00:00:00 | |
| EA3IBE | 2026-09-05 11:47:03 | 41.29249 | 2.24970 | 123° | 24km/h | 16331m | 6.8m/s | 0°C | 0% | 0hPa | 0V | 00:00:00 | 00:00:00 | 00:00:00 | |
| EA3GEO | 2026-09-05 11:47:02 | 41.29253 | 2.24964 | 131° | 22km/h | 16326m | 4.6m/s | 0°C | 0% | 0hPa | 0V | 00:00:00 | 00:00:00 | 00:00:00 | |
| EA3IBE | 2026-09-05 11:46:57 | 41.29271 | 2.24928 | 125° | 26km/h | 16301m | 4.3m/s | 0°C | 0% | 0hPa | 0V | 00:00:00 | 00:00:00 | 00:00:00 | |
| EA3GEO | 2026-09-05 11:46:56 | 41.29275 | 2.24921 | 125° | 29km/h | 16296m | 5.4m/s | 0°C | 0% | 0hPa | 0V | 00:00:00 | 00:00:00 | 00:00:00 | |
| EA3IBE | 2026-09-05 11:46:51 | 41.29294 | 2.24883 | 123° | 24km/h | 16272m | 3.1m/s | 0°C | 0% | 0hPa | 0V | 00:00:00 | 00:00:00 | 00:00:00 | |
| EA3GEO | 2026-09-05 11:46:50 | 41.29297 | 2.24876 | 123° | 24km/h | 16268m | 5.7m/s | 0°C | 0% | 0hPa | 0V | 00:00:00 | 00:00:00 | 00:00:00 | |
| EA3IBE | 2026-09-05 11:46:46 | 41.29308 | 2.24851 | 110° | 24km/h | 16249m | 5.3m/s | 0°C | 0% | 0hPa | 0V | 00:00:00 | 00:00:00 | 00:00:00 | |
| EA3GEO | 2026-09-05 11:46:44 | 41.29312 | 2.24837 | 112° | 22km/h | 16239m | 5.5m/s | 0°C | 0% | 0hPa | 0V | 00:00:00 | 00:00:00 | 00:00:00 | |
| EA3IBE | 2026-09-05 11:46:41 | 41.29319 | 2.24814 | 115° | 20km/h | 16225m | 5.1m/s | 0°C | 0% | 0hPa | 0V | 00:00:00 | 00:00:00 | 00:00:00 | |
| EA3GEO | 2026-09-05 11:46:38 | 41.29322 | 2.24796 | 95° | 18km/h | 16211m | 5.3m/s | 0°C | 0% | 0hPa | 0V | 00:00:00 | 00:00:00 | 00:00:00 | |
| EA3IBE | 2026-09-05 11:46:34 | 41.29327 | 2.24768 | 101° | 26km/h | 16193m | 5.1m/s | 0°C | 0% | 0hPa | 0V | 00:00:00 | 00:00:00 | 00:00:00 | |
| EA3GEO | 2026-09-05 11:46:32 | 41.29329 | 2.24755 | 117° | 16km/h | 16184m | 5.3m/s | 0°C | 0% | 0hPa | 0V | 00:00:00 | 00:00:00 | 00:00:00 | |
| EA3IBE | 2026-09-05 11:46:29 | 41.29332 | 2.24739 | 82° | 22km/h | 16170m | 4.7m/s | 0°C | 0% | 0hPa | 0V | 00:00:00 | 00:00:00 | 00:00:00 | |
| EA3GEO | 2026-09-05 11:46:26 | 41.29331 | 2.24715 | 98° | 27km/h | 16156m | 3.8m/s | 0°C | 0% | 0hPa | 0V | 00:00:00 | 00:00:00 | 00:00:00 | |
| EA3IBE | 2026-09-05 11:46:22 | 41.29334 | 2.24686 | 122° | 15km/h | 16138m | 6.0m/s | 0°C | 0% | 0hPa | 0V | 00:00:00 | 00:00:00 | 00:00:00 | |
| EA3GEO | 2026-09-05 11:46:21 | 41.29335 | 2.24682 | 97° | 11km/h | 16133m | 3.5m/s | 0°C | 0% | 0hPa | 0V | 00:00:00 | 00:00:00 | 00:00:00 | |
| EA3IBE | 2026-09-05 11:46:16 | 41.29330 | 2.24647 | 93° | 29km/h | 16112m | 4.7m/s | 0°C | 0% | 0hPa | 0V | 00:00:00 | 00:00:00 | 00:00:00 | |
| EA3GEO | 2026-09-05 11:46:15 | 41.29330 | 2.24638 | 101° | 27km/h | 16108m | 3.0m/s | 0°C | 0% | 0hPa | 0V | 00:00:00 | 00:00:00 | 00:00:00 | |
| EA3IBE | 2026-09-05 11:46:11 | 41.29334 | 2.24613 | 141° | 13km/h | 16088m | 4.1m/s | 0°C | 0% | 0hPa | 0V | 00:00:00 | 00:00:00 | 00:00:00 | |
| EA3GEO | 2026-09-05 11:46:09 | 41.29339 | 2.24606 | 106° | 13km/h | 16081m | 6.4m/s | 0°C | 0% | 0hPa | 0V | 00:00:00 | 00:00:00 | 00:00:00 | |
| EA3GEO | 2026-09-05 11:46:04 | 41.29343 | 2.24572 | 99° | 27km/h | 16058m | 6.2m/s | 0°C | 0% | 0hPa | 0V | 00:00:00 | 00:00:00 | 00:00:00 | |
| EA3IBE | 2026-09-05 11:45:59 | 41.29353 | 2.24537 | 125° | 16km/h | 16031m | 5.6m/s | 0°C | 0% | 0hPa | 0V | 00:00:00 | 00:00:00 | 00:00:00 | |
| EA3GEO | 2026-09-05 11:45:58 | 41.29355 | 2.24532 | 132° | 15km/h | 16027m | 2.7m/s | 0°C | 0% | 0hPa | 0V | 00:00:00 | 00:00:00 | 00:00:00 | |
| EA3IBE | 2026-09-05 11:45:53 | 41.29367 | 2.24496 | 106° | 20km/h | 16004m | 5.1m/s | 0°C | 0% | 0hPa | 0V | 00:00:00 | 00:00:00 | 00:00:00 | |
| EA3GEO | 2026-09-05 11:45:52 | 41.29368 | 2.24490 | 107° | 18km/h | 15999m | 4.9m/s | 0°C | 0% | 0hPa | 0V | 00:00:00 | 00:00:00 | 00:00:00 | |
| EA3IBE | 2026-09-05 11:45:47 | 41.29384 | 2.24461 | 151° | 22km/h | 15974m | 4.3m/s | 0°C | 0% | 0hPa | 0V | 00:00:00 | 00:00:00 | 00:00:00 | |
| EA3GEO | 2026-09-05 11:45:46 | 41.29389 | 2.24457 | 149° | 24km/h | 15969m | 5.7m/s | 0°C | 0% | 0hPa | 0V | 00:00:00 | 00:00:00 | 00:00:00 | |
| EA3IBE | 2026-09-05 11:45:41 | 41.29408 | 2.24432 | 117° | 20km/h | 15947m | 3.4m/s | 0°C | 0% | 0hPa | 0V | 00:00:00 | 00:00:00 | 00:00:00 | |
| EA3GEO | 2026-09-05 11:45:40 | 41.29410 | 2.24426 | 107° | 22km/h | 15942m | 6.6m/s | 0°C | 0% | 0hPa | 0V | 00:00:00 | 00:00:00 | 00:00:00 | |
| EA3GEO | 2026-09-05 11:45:35 | 41.29424 | 2.24384 | 118° | 33km/h | 15916m | 4.8m/s | 0°C | 0% | 0hPa | 0V | 00:00:00 | 00:00:00 | 00:00:00 | |
| EA3IBE | 2026-09-05 11:45:29 | 41.29441 | 2.24339 | 117° | 20km/h | 15888m | 5.7m/s | 0°C | 0% | 0hPa | 0V | 00:00:00 | 00:00:00 | 00:00:00 | |
| EA3IBE | 2026-09-05 11:45:24 | 41.29464 | 2.24301 | 136° | 38km/h | 15864m | 4.2m/s | 0°C | 0% | 0hPa | 0V | 00:00:00 | 00:00:00 | 00:00:00 | |
| EA3IBE | 2026-09-05 11:45:18 | 41.29492 | 2.24250 | 127° | 29km/h | 15829m | 5.9m/s | 0°C | 0% | 0hPa | 0V | 00:00:00 | 00:00:00 | 00:00:00 | |
| EA3GEO | 2026-09-05 11:45:12 | 41.29517 | 2.24216 | 130° | 24km/h | 15805m | 4.1m/s | 0°C | 0% | 0hPa | 0V | 00:00:00 | 00:00:00 | 00:00:00 | |
| EA3IBE | 2026-09-05 11:45:11 | 41.29520 | 2.24208 | 111° | 27km/h | 15801m | 4.7m/s | 0°C | 0% | 0hPa | 0V | 00:00:00 | 00:00:00 | 00:00:00 | |
| EA3IBE | 2026-09-05 11:45:06 | 41.29531 | 2.24168 | 121° | 27km/h | 15775m | 4.8m/s | 0°C | 0% | 0hPa | 0V | 00:00:00 | 00:00:00 | 00:00:00 | |
| EA3IBE | 2026-09-05 11:44:56 | 41.29567 | 2.24092 | 116° | 26km/h | 15727m | 5.2m/s | 0°C | 0% | 0hPa | 0V | 00:00:00 | 00:00:00 | 00:00:00 | |
| EA3GEO | 2026-09-05 11:44:50 | 41.29588 | 2.24036 | 128° | 22km/h | 15697m | 5.4m/s | 0°C | 0% | 0hPa | 0V | 00:00:00 | 00:00:00 | 00:00:00 | |
| EA3GEO | 2026-09-05 11:44:44 | 41.29603 | 2.24003 | 121° | 29km/h | 15667m | 5.6m/s | 0°C | 0% | 0hPa | 0V | 00:00:00 | 00:00:00 | 00:00:00 | |
| EA3IBE | 2026-09-05 11:44:43 | 41.29607 | 2.23995 | 130° | 31km/h | 15663m | 4.3m/s | 0°C | 0% | 0hPa | 0V | 00:00:00 | 00:00:00 | 00:00:00 | |
| EA3GEO | 2026-09-05 11:44:38 | 41.29630 | 2.23964 | 118° | 20km/h | 15639m | 6.2m/s | 0°C | 0% | 0hPa | 0V | 00:00:00 | 00:00:00 | 00:00:00 | |
| EA3IBE | 2026-09-05 11:44:37 | 41.29633 | 2.23959 | 131° | 20km/h | 15633m | 6.5m/s | 0°C | 0% | 0hPa | 0V | 00:00:00 | 00:00:00 | 00:00:00 | |
| EA3GEO | 2026-09-05 11:44:32 | 41.29653 | 2.23918 | 132° | 37km/h | 15606m | 3.2m/s | 0°C | 0% | 0hPa | 0V | 00:00:00 | 00:00:00 | 00:00:00 | |
| EA3IBE | 2026-09-05 11:44:31 | 41.29658 | 2.23910 | 131° | 33km/h | 15602m | 5.5m/s | 0°C | 0% | 0hPa | 0V | 00:00:00 | 00:00:00 | 00:00:00 | |
| EA3GEO | 2026-09-05 11:44:27 | 41.29674 | 2.23878 | 135° | 29km/h | 15582m | 5.2m/s | 0°C | 0% | 0hPa | 0V | 00:00:00 | 00:00:00 | 00:00:00 | |
| EA3IBE | 2026-09-05 11:44:24 | 41.29689 | 2.23849 | 111° | 40km/h | 15569m | 5.5m/s | 0°C | 0% | 0hPa | 0V | 00:00:00 | 00:00:00 | 00:00:00 | |
| EA3GEO | 2026-09-05 11:44:21 | 41.29699 | 2.23812 | 107° | 40km/h | 15554m | 5.4m/s | 0°C | 0% | 0hPa | 0V | 00:00:00 | 00:00:00 | 00:00:00 | |
| EA3IBE | 2026-09-05 11:44:19 | 41.29705 | 2.23788 | 113° | 37km/h | 15543m | 6.5m/s | 0°C | 0% | 0hPa | 0V | 00:00:00 | 00:00:00 | 00:00:00 | |
| EA3GEO | 2026-09-05 11:44:15 | 41.29723 | 2.23748 | 130° | 37km/h | 15524m | 5.7m/s | 0°C | 0% | 0hPa | 0V | 00:00:00 | 00:00:00 | 00:00:00 | |
| EA3IBE | 2026-09-05 11:44:14 | 41.29728 | 2.23739 | 133° | 35km/h | 15520m | 3.2m/s | 0°C | 0% | 0hPa | 0V | 00:00:00 | 00:00:00 | 00:00:00 | |
| EA3IBE | 2026-09-05 11:44:09 | 41.29744 | 2.23689 | 116° | 29km/h | 15495m | 3.2m/s | 0°C | 0% | 0hPa | 0V | 00:00:00 | 00:00:00 | 00:00:00 | |
| EA3GEO | 2026-09-05 11:44:05 | 41.29759 | 2.23641 | 115° | 33km/h | 15470m | 5.4m/s | 0°C | 0% | 0hPa | 0V | 00:00:00 | 00:00:00 | 00:00:00 | |
| EA3IBE | 2026-09-05 11:44:02 | 41.29764 | 2.23621 | 107° | 29km/h | 15460m | 5.9m/s | 0°C | 0% | 0hPa | 0V | 00:00:00 | 00:00:00 | 00:00:00 | |
| EA3GEO | 2026-09-05 11:43:59 | 41.29769 | 2.23597 | 99° | 24km/h | 15446m | 5.8m/s | 0°C | 0% | 0hPa | 0V | 00:00:00 | 00:00:00 | 00:00:00 | |
| EA3IBE | 2026-09-05 11:43:56 | 41.29774 | 2.23574 | 119° | 20km/h | 15431m | 6.1m/s | 0°C | 0% | 0hPa | 0V | 00:00:00 | 00:00:00 | 00:00:00 | |
| EA3GEO | 2026-09-05 11:43:53 | 41.29777 | 2.23556 | 97° | 18km/h | 15415m | 5.7m/s | 0°C | 0% | 0hPa | 0V | 00:00:00 | 00:00:00 | 00:00:00 | |
| EA3IBE | 2026-09-05 11:43:51 | 41.29777 | 2.23543 | 97° | 24km/h | 15405m | 4.7m/s | 0°C | 0% | 0hPa | 0V | 00:00:00 | 00:00:00 | 00:00:00 | |
| EA3GEO | 2026-09-05 11:43:48 | 41.29784 | 2.23517 | 127° | 26km/h | 15389m | 6.9m/s | 0°C | 0% | 0hPa | 0V | 00:00:00 | 00:00:00 | 00:00:00 | |
| EA3IBE | 2026-09-05 11:43:45 | 41.29793 | 2.23503 | 123° | 13km/h | 15374m | 4.0m/s | 0°C | 0% | 0hPa | 0V | 00:00:00 | 00:00:00 | 00:00:00 | |
| EA3GEO | 2026-09-05 11:43:42 | 41.29797 | 2.23490 | 94° | 20km/h | 15358m | 5.3m/s | 0°C | 0% | 0hPa | 0V | 00:00:00 | 00:00:00 | 00:00:00 | |
| EA3IBE | 2026-09-05 11:43:39 | 41.29803 | 2.23468 | 125° | 24km/h | 15343m | 5.1m/s | 0°C | 0% | 0hPa | 0V | 00:00:00 | 00:00:00 | 00:00:00 | |
| EA3GEO | 2026-09-05 11:43:36 | 41.29814 | 2.23452 | 147° | 16km/h | 15328m | 5.6m/s | 0°C | 0% | 0hPa | 0V | 00:00:00 | 00:00:00 | 00:00:00 | |
| EA3IBE | 2026-09-05 11:43:33 | 41.29818 | 2.23444 | 88° | 13km/h | 15314m | 2.4m/s | 0°C | 0% | 0hPa | 0V | 00:00:00 | 00:00:00 | 00:00:00 | |
| EA3GEO | 2026-09-05 11:43:30 | 41.29824 | 2.23427 | 141° | 26km/h | 15300m | 6.0m/s | 0°C | 0% | 0hPa | 0V | 00:00:00 | 00:00:00 | 00:00:00 | |
| EA3IBE | 2026-09-05 11:43:27 | 41.29838 | 2.23414 | 144° | 16km/h | 15284m | 6.3m/s | 0°C | 0% | 0hPa | 0V | 00:00:00 | 00:00:00 | 00:00:00 | |
| EA3GEO | 2026-09-05 11:43:24 | 41.29844 | 2.23401 | 106° | 15km/h | 15268m | 7.8m/s | 0°C | 0% | 0hPa | 0V | 00:00:00 | 00:00:00 | 00:00:00 | |
| EA3IBE | 2026-09-05 11:43:21 | 41.29846 | 2.23386 | 115° | 24km/h | 15251m | 6.2m/s | 0°C | 0% | 0hPa | 0V | 00:00:00 | 00:00:00 | 00:00:00 | |
| EA3GEO | 2026-09-05 11:43:18 | 41.29856 | 2.23371 | 162° | 20km/h | 15238m | 4.5m/s | 0°C | 0% | 0hPa | 0V | 00:00:00 | 00:00:00 | 00:00:00 | |
| EA3IBE | 2026-09-05 11:43:16 | 41.29866 | 2.23366 | 147° | 18km/h | 15228m | 5.1m/s | 0°C | 0% | 0hPa | 0V | 00:00:00 | 00:00:00 | 00:00:00 | |
| EA3GEO | 2026-09-05 11:43:13 | 41.29879 | 2.23353 | 149° | 26km/h | 15214m | 3.3m/s | 0°C | 0% | 0hPa | 0V | 00:00:00 | 00:00:00 | 00:00:00 | |
| EA3IBE | 2026-09-05 11:43:12 | 41.29893 | 2.23338 | 145° | 22km/h | 15200m | 5.4m/s | 0°C | 0% | 0hPa | 0V | 00:00:00 | 00:00:00 | 00:00:00 | |
| EA3GEO | 2026-09-05 11:43:09 | 41.29908 | 2.23324 | 134° | 22km/h | 15185m | 6.1m/s | 0°C | 0% | 0hPa | 0V | 00:00:00 | 00:00:00 | 00:00:00 | |
| EA3IBE | 2026-09-05 11:43:06 | 41.29915 | 2.23313 | 134° | 22km/h | 15173m | 6.9m/s | 0°C | 0% | 0hPa | 0V | 00:00:00 | 00:00:00 | 00:00:00 | |
| EA3GEO | 2026-09-05 11:43:02 | 41.29925 | 2.23300 | 128° | 13km/h | 15157m | 4.6m/s | 0°C | 0% | 0hPa | 0V | 00:00:00 | 00:00:00 | 00:00:00 | |
| EA3IBE | 2026-09-05 11:42:58 | 41.29935 | 2.23278 | 122° | 20km/h | 15135m | 4.6m/s | 0°C | 0% | 0hPa | 0V | 00:00:00 | 00:00:00 | 00:00:00 | |
| EA3GEO | 2026-09-05 11:42:56 | 41.29943 | 2.23266 | 135° | 26km/h | 15124m | 4.2m/s | 0°C | 0% | 0hPa | 0V | 00:00:00 | 00:00:00 | 00:00:00 | |
| EA3IBE | 2026-09-05 11:42:52 | 41.29958 | 2.23242 | 133° | 18km/h | 15103m | 5.6m/s | 0°C | 0% | 0hPa | 0V | 00:00:00 | 00:00:00 | 00:00:00 | |
| EA3GEO | 2026-09-05 11:42:50 | 41.29962 | 2.23234 | 128° | 13km/h | 15094m | 3.6m/s | 0°C | 0% | 0hPa | 0V | 00:00:00 | 00:00:00 | 00:00:00 | |
| EA3IBE | 2026-09-05 11:42:46 | 41.29977 | 2.23220 | 135° | 18km/h | 15076m | 4.3m/s | 0°C | 0% | 0hPa | 0V | 00:00:00 | 00:00:00 | 00:00:00 | |
| EA3GEO | 2026-09-05 11:42:45 | 41.29980 | 2.23214 | 126° | 24km/h | 15072m | 4.4m/s | 0°C | 0% | 0hPa | 0V | 00:00:00 | 00:00:00 | 00:00:00 | |
| EA3IBE | 2026-09-05 11:42:41 | 41.29997 | 2.23187 | 129° | 22km/h | 15053m | 3.4m/s | 0°C | 0% | 0hPa | 0V | 00:00:00 | 00:00:00 | 00:00:00 | |
| EA3GEO | 2026-09-05 11:42:39 | 41.30006 | 2.23177 | 146° | 20km/h | 15043m | 3.8m/s | 0°C | 0% | 0hPa | 0V | 00:00:00 | 00:00:00 | 00:00:00 | |
| EA3IBE | 2026-09-05 11:42:35 | 41.30016 | 2.23154 | 122° | 29km/h | 15024m | 2.5m/s | 0°C | 0% | 0hPa | 0V | 00:00:00 | 00:00:00 | 00:00:00 | |
| EA3GEO | 2026-09-05 11:42:34 | 41.30020 | 2.23146 | 118° | 26km/h | 15020m | 6.2m/s | 0°C | 0% | 0hPa | 0V | 00:00:00 | 00:00:00 | 00:00:00 | |
| EA3IBE | 2026-09-05 11:42:30 | 41.30032 | 2.23122 | 127° | 13km/h | 15000m | 6.6m/s | 0°C | 0% | 0hPa | 0V | 00:00:00 | 00:00:00 | 00:00:00 | |
| EA3GEO | 2026-09-05 11:42:28 | 41.30034 | 2.23113 | 112° | 15km/h | 14991m | 5.3m/s | 0°C | 0% | 0hPa | 0V | 00:00:00 | 00:00:00 | 00:00:00 | |
| EA3IBE | 2026-09-05 11:42:23 | 41.30046 | 2.23078 | 109° | 27km/h | 14968m | 5.7m/s | 0°C | 0% | 0hPa | 0V | 00:00:00 | 00:00:00 | 00:00:00 | |
| EA3GEO | 2026-09-05 11:42:18 | 41.30060 | 2.23030 | 117° | 26km/h | 14938m | 4.8m/s | 0°C | 0% | 0hPa | 0V | 00:00:00 | 00:00:00 | 00:00:00 | |
| EA3IBE | 2026-09-05 11:42:16 | 41.30062 | 2.23022 | 105° | 22km/h | 14933m | 6.6m/s | 0°C | 0% | 0hPa | 0V | 00:00:00 | 00:00:00 | 00:00:00 | |
| EA3GEO | 2026-09-05 11:42:11 | 41.30066 | 2.22980 | 98° | 20km/h | 14908m | 5.3m/s | 0°C | 0% | 0hPa | 0V | 00:00:00 | 00:00:00 | 00:00:00 | |
| EA3IBE | 2026-09-05 11:42:10 | 41.30066 | 2.22973 | 96° | 20km/h | 14903m | 6.7m/s | 0°C | 0% | 0hPa | 0V | 00:00:00 | 00:00:00 | 00:00:00 | |
| EA3GEO | 2026-09-05 11:42:06 | 41.30065 | 2.22949 | 73° | 22km/h | 14881m | 7.6m/s | 0°C | 0% | 0hPa | 0V | 00:00:00 | 00:00:00 | 00:00:00 | |
| EA3IBE | 2026-09-05 11:42:04 | 41.30064 | 2.22934 | 84° | 22km/h | 14870m | 5.8m/s | 0°C | 0% | 0hPa | 0V | 00:00:00 | 00:00:00 | 00:00:00 | |
| EA3GEO | 2026-09-05 11:42:00 | 41.30064 | 2.22906 | 102° | 15km/h | 14853m | 4.0m/s | 0°C | 0% | 0hPa | 0V | 00:00:00 | 00:00:00 | 00:00:00 | |
| EA3IBE | 2026-09-05 11:41:58 | 41.30065 | 2.22898 | 99° | 15km/h | 14847m | 7.1m/s | 0°C | 0% | 0hPa | 0V | 00:00:00 | 00:00:00 | 00:00:00 | |
| EA3GEO | 2026-09-05 11:41:54 | 41.30062 | 2.22875 | 90° | 20km/h | 14826m | 7.4m/s | 0°C | 0% | 0hPa | 0V | 00:00:00 | 00:00:00 | 00:00:00 | |
| EA3IBE | 2026-09-05 11:41:53 | 41.30062 | 2.22869 | 93° | 18km/h | 14820m | 4.9m/s | 0°C | 0% | 0hPa | 0V | 00:00:00 | 00:00:00 | 00:00:00 | |
| EA3GEO | 2026-09-05 11:41:49 | 41.30064 | 2.22850 | 124° | 9km/h | 14799m | 4.0m/s | 0°C | 0% | 0hPa | 0V | 00:00:00 | 00:00:00 | 00:00:00 | |
| EA3IBE | 2026-09-05 11:41:47 | 41.30066 | 2.22840 | 94° | 15km/h | 14786m | 4.5m/s | 0°C | 0% | 0hPa | 0V | 00:00:00 | 00:00:00 | 00:00:00 | |
| EA3GEO | 2026-09-05 11:41:43 | 41.30069 | 2.22822 | 91° | 16km/h | 14772m | 5.7m/s | 0°C | 0% | 0hPa | 0V | 00:00:00 | 00:00:00 | 00:00:00 | |
| EA3IBE | 2026-09-05 11:41:41 | 41.30069 | 2.22811 | 86° | 16km/h | 14761m | 5.6m/s | 0°C | 0% | 0hPa | 0V | 00:00:00 | 00:00:00 | 00:00:00 | |
| EA3GEO | 2026-09-05 11:41:37 | 41.30072 | 2.22793 | 134° | 11km/h | 14743m | 4.5m/s | 0°C | 0% | 0hPa | 0V | 00:00:00 | 00:00:00 | 00:00:00 | |
| EA3IBE | 2026-09-05 11:41:36 | 41.30073 | 2.22790 | 123° | 11km/h | 14739m | 5.1m/s | 0°C | 0% | 0hPa | 0V | 00:00:00 | 00:00:00 | 00:00:00 | |
| EA3GEO | 2026-09-05 11:41:31 | 41.30077 | 2.22767 | 108° | 16km/h | 14715m | 4.3m/s | 0°C | 0% | 0hPa | 0V | 00:00:00 | 00:00:00 | 00:00:00 | |
| EA3IBE | 2026-09-05 11:41:28 | 41.30083 | 2.22754 | 142° | 16km/h | 14701m | 5.8m/s | 0°C | 0% | 0hPa | 0V | 00:00:00 | 00:00:00 | 00:00:00 | |
| EA3GEO | 2026-09-05 11:41:25 | 41.30090 | 2.22745 | 107° | 11km/h | 14686m | 3.8m/s | 0°C | 0% | 0hPa | 0V | 00:00:00 | 00:00:00 | 00:00:00 | |
| EA3GEO | 2026-09-05 11:41:19 | 41.30097 | 2.22700 | 115° | 22km/h | 14660m | 5.1m/s | 0°C | 0% | 0hPa | 0V | 00:00:00 | 00:00:00 | 00:00:00 | |
| EA3IBE | 2026-09-05 11:41:17 | 41.30106 | 2.22687 | 141° | 26km/h | 14649m | 3.9m/s | 0°C | 0% | 0hPa | 0V | 00:00:00 | 00:00:00 | 00:00:00 | |
| EA3GEO | 2026-09-05 11:41:14 | 41.30116 | 2.22670 | 118° | 22km/h | 14634m | 3.3m/s | 0°C | 0% | 0hPa | 0V | 00:00:00 | 00:00:00 | 00:00:00 | |
| EA3IBE | 2026-09-05 11:41:11 | 41.30126 | 2.22649 | 128° | 27km/h | 14622m | 5.2m/s | 0°C | 0% | 0hPa | 0V | 00:00:00 | 00:00:00 | 00:00:00 | |
| EA3GEO | 2026-09-05 11:41:08 | 41.30136 | 2.22624 | 114° | 29km/h | 14606m | 4.7m/s | 0°C | 0% | 0hPa | 0V | 00:00:00 | 00:00:00 | 00:00:00 | |
| EA3GEO | 2026-09-05 11:41:02 | 41.30166 | 2.22579 | 128° | 31km/h | 14576m | 5.0m/s | 0°C | 0% | 0hPa | 0V | 00:00:00 | 00:00:00 | 00:00:00 | |
| EA3GEO | 2026-09-05 11:40:56 | 41.30181 | 2.22528 | 138° | 24km/h | 14549m | 5.6m/s | 0°C | 0% | 0hPa | 0V | 00:00:00 | 00:00:00 | 00:00:00 | |
| EA3GEO | 2026-09-05 11:40:50 | 41.30206 | 2.22484 | 106° | 29km/h | 14520m | 5.8m/s | 0°C | 0% | 0hPa | 0V | 00:00:00 | 00:00:00 | 00:00:00 | |
| EA3GEO | 2026-09-05 11:40:45 | 41.30214 | 2.22435 | 120° | 26km/h | 14489m | 4.4m/s | 0°C | 0% | 0hPa | 0V | 00:00:00 | 00:00:00 | 00:00:00 | |
| EA3GEO | 2026-09-05 11:40:39 | 41.30218 | 2.22397 | 85° | 27km/h | 14466m | 5.3m/s | 0°C | 0% | 0hPa | 0V | 00:00:00 | 00:00:00 | 00:00:00 | |
| EA3GEO | 2026-09-05 11:40:34 | 41.30220 | 2.22364 | 87° | 16km/h | 14441m | 4.6m/s | 0°C | 0% | 0hPa | 0V | 00:00:00 | 00:00:00 | 00:00:00 | |
| EA3IBE | 2026-09-05 11:40:33 | 41.30219 | 2.22358 | 74° | 18km/h | 14437m | 4.1m/s | 0°C | 0% | 0hPa | 0V | 00:00:00 | 00:00:00 | 00:00:00 | |
| EA3GEO | 2026-09-05 11:40:28 | 41.30224 | 2.22327 | 100° | 20km/h | 14416m | 6.1m/s | 0°C | 0% | 0hPa | 0V | 00:00:00 | 00:00:00 | 00:00:00 | |
| EA3GEO | 2026-09-05 11:40:23 | 41.30220 | 2.22292 | 77° | 22km/h | 14390m | 4.1m/s | 0°C | 0% | 0hPa | 0V | 00:00:00 | 00:00:00 | 00:00:00 | |
| EA3GEO | 2026-09-05 11:40:18 | 41.30227 | 2.22269 | 103° | 20km/h | 14366m | 4.4m/s | 0°C | 0% | 0hPa | 0V | 00:00:00 | 00:00:00 | 00:00:00 | |
| EA3GEO | 2026-09-05 11:40:12 | 41.30230 | 2.22226 | 73° | 13km/h | 14338m | 3.2m/s | 0°C | 0% | 0hPa | 0V | 00:00:00 | 00:00:00 | 00:00:00 | |
| EA3GEO | 2026-09-05 11:40:06 | 41.30244 | 2.22201 | 124° | 22km/h | 14307m | 8.6m/s | 0°C | 0% | 0hPa | 0V | 00:00:00 | 00:00:00 | 00:00:00 | |
| EA3IBE | 2026-09-05 11:40:01 | 41.30261 | 2.22180 | 118° | 18km/h | 14277m | 7.3m/s | 0°C | 0% | 0hPa | 0V | 00:00:00 | 00:00:00 | 00:00:00 | |
| EA3GEO | 2026-09-05 11:39:55 | 41.30276 | 2.22145 | 162° | 24km/h | 14250m | 4.1m/s | 0°C | 0% | 0hPa | 0V | 00:00:00 | 00:00:00 | 00:00:00 | |
| EA3GEO | 2026-09-05 11:39:49 | 41.30303 | 2.22109 | 141° | 38km/h | 14220m | 4.9m/s | 0°C | 0% | 0hPa | 0V | 00:00:00 | 00:00:00 | 00:00:00 | |
| EA3GEO | 2026-09-05 11:39:43 | 41.30338 | 2.22065 | 123° | 26km/h | 14191m | 3.3m/s | 0°C | 0% | 0hPa | 0V | 00:00:00 | 00:00:00 | 00:00:00 | |
| EA3GEO | 2026-09-05 11:39:38 | 41.30361 | 2.22032 | 139° | 33km/h | 14171m | 4.2m/s | 0°C | 0% | 0hPa | 0V | 00:00:00 | 00:00:00 | 00:00:00 | |
| EA3GEO | 2026-09-05 11:39:32 | 41.30385 | 2.21988 | 132° | 22km/h | 14141m | 5.3m/s | 0°C | 0% | 0hPa | 0V | 00:00:00 | 00:00:00 | 00:00:00 | |
| EA3IBE | 2026-09-05 11:39:31 | 41.30388 | 2.21982 | 133° | 26km/h | 14136m | 4.8m/s | 0°C | 0% | 0hPa | 0V | 00:00:00 | 00:00:00 | 00:00:00 | |
| EA3GEO | 2026-09-05 11:39:26 | 41.30415 | 2.21947 | 113° | 29km/h | 14114m | 3.6m/s | 0°C | 0% | 0hPa | 0V | 00:00:00 | 00:00:00 | 00:00:00 | |
| EA3GEO | 2026-09-05 11:39:20 | 41.30429 | 2.21908 | 139° | 22km/h | 14084m | 7.1m/s | 0°C | 0% | 0hPa | 0V | 00:00:00 | 00:00:00 | 00:00:00 | |
| EA3GEO | 2026-09-05 11:39:08 | 41.30470 | 2.21839 | 126° | 16km/h | 14025m | 3.5m/s | 0°C | 0% | 0hPa | 0V | 00:00:00 | 00:00:00 | 00:00:00 | |
| EA3GEO | 2026-09-05 11:39:03 | 41.30487 | 2.21811 | 124° | 24km/h | 14002m | 3.2m/s | 0°C | 0% | 0hPa | 0V | 00:00:00 | 00:00:00 | 00:00:00 | |
| EA3GEO | 2026-09-05 11:38:57 | 41.30501 | 2.21796 | 166° | 22km/h | 13972m | 3.3m/s | 0°C | 0% | 0hPa | 0V | 00:00:00 | 00:00:00 | 00:00:00 | |
| EA3GEO | 2026-09-05 11:38:52 | 41.30517 | 2.21777 | 132° | 11km/h | 13948m | 6.4m/s | 0°C | 0% | 0hPa | 0V | 00:00:00 | 00:00:00 | 00:00:00 | |
| EA3GEO | 2026-09-05 11:38:46 | 41.30529 | 2.21771 | 180° | 7km/h | 13919m | 4.5m/s | 0°C | 0% | 0hPa | 0V | 00:00:00 | 00:00:00 | 00:00:00 | |
| EA3GEO | 2026-09-05 11:38:40 | 41.30532 | 2.21760 | 113° | 2km/h | 13890m | 5.8m/s | 0°C | 0% | 0hPa | 0V | 00:00:00 | 00:00:00 | 00:00:00 | |
| EA3GEO | 2026-09-05 11:38:34 | 41.30532 | 2.21762 | 225° | 5km/h | 13860m | 6.7m/s | 0°C | 0% | 0hPa | 0V | 00:00:00 | 00:00:00 | 00:00:00 | |
| EA3GEO | 2026-09-05 11:38:29 | 41.30538 | 2.21764 | 186° | 7km/h | 13836m | 3.6m/s | 0°C | 0% | 0hPa | 0V | 00:00:00 | 00:00:00 | 00:00:00 | |
| EA3GEO | 2026-09-05 11:38:24 | 41.30541 | 2.21774 | 248° | 9km/h | 13812m | 4.7m/s | 0°C | 0% | 0hPa | 0V | 00:00:00 | 00:00:00 | 00:00:00 | |
| EA3GEO | 2026-09-05 11:38:18 | 41.30547 | 2.21784 | 141° | 4km/h | 13785m | 5.2m/s | 0°C | 0% | 0hPa | 0V | 00:00:00 | 00:00:00 | 00:00:00 | |
| EA3GEO | 2026-09-05 11:38:12 | 41.30546 | 2.21790 | 258° | 4km/h | 13757m | 4.3m/s | 0°C | 0% | 0hPa | 0V | 00:00:00 | 00:00:00 | 00:00:00 | |
| EA3GEO | 2026-09-05 11:38:06 | 41.30544 | 2.21789 | 25° | 4km/h | 13726m | 3.8m/s | 0°C | 0% | 0hPa | 0V | 00:00:00 | 00:00:00 | 00:00:00 | |
| EA3GEO | 2026-09-05 11:38:00 | 41.30540 | 2.21792 | 71° | 5km/h | 13697m | 3.2m/s | 0°C | 0% | 0hPa | 0V | 00:00:00 | 00:00:00 | 00:00:00 | |
| EA3IBE | 2026-09-05 11:37:57 | 41.30540 | 2.21784 | 111° | 13km/h | 13682m | 4.1m/s | 0°C | 0% | 0hPa | 0V | 00:00:00 | 00:00:00 | 00:00:00 | |
| EA3GEO | 2026-09-05 11:37:55 | 41.30541 | 2.21778 | 63° | 7km/h | 13674m | 5.7m/s | 0°C | 0% | 0hPa | 0V | 00:00:00 | 00:00:00 | 00:00:00 | |
| EA3IBE | 2026-09-05 11:37:50 | 41.30536 | 2.21772 | 100° | 5km/h | 13651m | 6.0m/s | 0°C | 0% | 0hPa | 0V | 00:00:00 | 00:00:00 | 00:00:00 | |
| EA3GEO | 2026-09-05 11:37:49 | 41.30536 | 2.21770 | 57° | 7km/h | 13646m | 5.5m/s | 0°C | 0% | 0hPa | 0V | 00:00:00 | 00:00:00 | 00:00:00 | |
| EA3IBE | 2026-09-05 11:37:45 | 41.30531 | 2.21764 | 3° | 7km/h | 13626m | 4.9m/s | 0°C | 0% | 0hPa | 0V | 00:00:00 | 00:00:00 | 00:00:00 | |
| EA3GEO | 2026-09-05 11:37:43 | 41.30530 | 2.21766 | 267° | 5km/h | 13616m | 3.1m/s | 0°C | 0% | 0hPa | 0V | 00:00:00 | 00:00:00 | 00:00:00 | |
| EA3IBE | 2026-09-05 11:37:40 | 41.30529 | 2.21771 | 0° | 0km/h | 13599m | 5.0m/s | 0°C | 0% | 0hPa | 0V | 00:00:00 | 00:00:00 | 00:00:00 | |
| EA3GEO | 2026-09-05 11:37:37 | 41.30526 | 2.21769 | 340° | 7km/h | 13584m | 5.2m/s | 0°C | 0% | 0hPa | 0V | 00:00:00 | 00:00:00 | 00:00:00 | |
| EA3IBE | 2026-09-05 11:37:33 | 41.30525 | 2.21781 | 256° | 18km/h | 13565m | 3.9m/s | 0°C | 0% | 0hPa | 0V | 00:00:00 | 00:00:00 | 00:00:00 | |
| EA3GEO | 2026-09-05 11:37:32 | 41.30527 | 2.21786 | 240° | 15km/h | 13560m | 5.5m/s | 0°C | 0% | 0hPa | 0V | 00:00:00 | 00:00:00 | 00:00:00 | |
| EA3GEO | 2026-09-05 11:37:26 | 41.30532 | 2.21790 | 179° | 5km/h | 13532m | 5.5m/s | 0°C | 0% | 0hPa | 0V | 00:00:00 | 00:00:00 | 00:00:00 | |
| EA3GEO | 2026-09-05 11:37:20 | 41.30540 | 2.21818 | 239° | 18km/h | 13503m | 4.7m/s | 0°C | 0% | 0hPa | 0V | 00:00:00 | 00:00:00 | 00:00:00 | |
| EA3GEO | 2026-09-05 11:37:15 | 41.30556 | 2.21838 | 243° | 9km/h | 13480m | 4.0m/s | 0°C | 0% | 0hPa | 0V | 00:00:00 | 00:00:00 | 00:00:00 | |
| EA3GEO | 2026-09-05 11:37:09 | 41.30556 | 2.21871 | 242° | 22km/h | 13452m | 4.4m/s | 0°C | 0% | 0hPa | 0V | 00:00:00 | 00:00:00 | 00:00:00 | |
| EA3IBE | 2026-09-05 11:37:08 | 41.30559 | 2.21876 | 232° | 16km/h | 13447m | 5.6m/s | 0°C | 0% | 0hPa | 0V | 00:00:00 | 00:00:00 | 00:00:00 | |
| EA3GEO | 2026-09-05 11:37:04 | 41.30568 | 2.21890 | 251° | 13km/h | 13429m | 5.2m/s | 0°C | 0% | 0hPa | 0V | 00:00:00 | 00:00:00 | 00:00:00 | |
| EA3GEO | 2026-09-05 11:36:59 | 41.30575 | 2.21910 | 233° | 13km/h | 13404m | 4.9m/s | 0°C | 0% | 0hPa | 0V | 00:00:00 | 00:00:00 | 00:00:00 | |
| EA3IBE | 2026-09-05 11:36:57 | 41.30580 | 2.21918 | 228° | 20km/h | 13392m | 3.2m/s | 0°C | 0% | 0hPa | 0V | 00:00:00 | 00:00:00 | 00:00:00 | |
| EA3GEO | 2026-09-05 11:36:53 | 41.30588 | 2.21931 | 231° | 7km/h | 13372m | 2.5m/s | 0°C | 0% | 0hPa | 0V | 00:00:00 | 00:00:00 | 00:00:00 | |
| EA3IBE | 2026-09-05 11:36:48 | 41.30594 | 2.21945 | 219° | 13km/h | 13349m | 6.0m/s | 0°C | 0% | 0hPa | 0V | 00:00:00 | 00:00:00 | 00:00:00 | |
| EA3GEO | 2026-09-05 11:36:47 | 41.30596 | 2.21947 | 220° | 15km/h | 13344m | 3.6m/s | 0°C | 0% | 0hPa | 0V | 00:00:00 | 00:00:00 | 00:00:00 | |
| EA3GEO | 2026-09-05 11:36:41 | 41.30608 | 2.21958 | 201° | 9km/h | 13318m | 4.4m/s | 0°C | 0% | 0hPa | 0V | 00:00:00 | 00:00:00 | 00:00:00 | |
| EA3IBE | 2026-09-05 11:36:39 | 41.30611 | 2.21960 | 208° | 7km/h | 13308m | 5.8m/s | 0°C | 0% | 0hPa | 0V | 00:00:00 | 00:00:00 | 00:00:00 | |
| EA3GEO | 2026-09-05 11:36:35 | 41.30620 | 2.21964 | 188° | 11km/h | 13290m | 5.4m/s | 0°C | 0% | 0hPa | 0V | 00:00:00 | 00:00:00 | 00:00:00 | |
| EA3IBE | 2026-09-05 11:36:33 | 41.30626 | 2.21964 | 184° | 11km/h | 13281m | 5.9m/s | 0°C | 0% | 0hPa | 0V | 00:00:00 | 00:00:00 | 00:00:00 | |
| EA3GEO | 2026-09-05 11:36:30 | 41.30635 | 2.21965 | 181° | 15km/h | 13266m | 3.3m/s | 0°C | 0% | 0hPa | 0V | 00:00:00 | 00:00:00 | 00:00:00 | |
| EA3IBE | 2026-09-05 11:36:28 | 41.30641 | 2.21966 | 207° | 9km/h | 13257m | 3.8m/s | 0°C | 0% | 0hPa | 0V | 00:00:00 | 00:00:00 | 00:00:00 | |
| EA3GEO | 2026-09-05 11:36:25 | 41.30647 | 2.21971 | 226° | 9km/h | 13242m | 6.1m/s | 0°C | 0% | 0hPa | 0V | 00:00:00 | 00:00:00 | 00:00:00 | |
| EA3IBE | 2026-09-05 11:36:23 | 41.30650 | 2.21975 | 212° | 13km/h | 13231m | 5.4m/s | 0°C | 0% | 0hPa | 0V | 00:00:00 | 00:00:00 | 00:00:00 | |
| EA3GEO | 2026-09-05 11:36:19 | 41.30664 | 2.21991 | 207° | 18km/h | 13211m | 3.8m/s | 0°C | 0% | 0hPa | 0V | 00:00:00 | 00:00:00 | 00:00:00 | |
| EA3IBE | 2026-09-05 11:36:18 | 41.30669 | 2.21994 | 209° | 24km/h | 13207m | 3.1m/s | 0°C | 0% | 0hPa | 0V | 00:00:00 | 00:00:00 | 00:00:00 | |
| EA3GEO | 2026-09-05 11:36:14 | 41.30688 | 2.22006 | 201° | 20km/h | 13189m | 4.4m/s | 0°C | 0% | 0hPa | 0V | 00:00:00 | 00:00:00 | 00:00:00 | |
| EA3IBE | 2026-09-05 11:36:12 | 41.30698 | 2.22012 | 217° | 24km/h | 13179m | 5.0m/s | 0°C | 0% | 0hPa | 0V | 00:00:00 | 00:00:00 | 00:00:00 | |
| EA3GEO | 2026-09-05 11:36:08 | 41.30718 | 2.22028 | 204° | 22km/h | 13159m | 6.5m/s | 0°C | 0% | 0hPa | 0V | 00:00:00 | 00:00:00 | 00:00:00 | |
| EA3IBE | 2026-09-05 11:36:06 | 41.30727 | 2.22032 | 197° | 15km/h | 13149m | 4.2m/s | 0°C | 0% | 0hPa | 0V | 00:00:00 | 00:00:00 | 00:00:00 | |
| EA3GEO | 2026-09-05 11:36:03 | 41.30738 | 2.22040 | 211° | 18km/h | 13134m | 4.9m/s | 0°C | 0% | 0hPa | 0V | 00:00:00 | 00:00:00 | 00:00:00 | |
| EA3IBE | 2026-09-05 11:36:00 | 41.30754 | 2.22049 | 201° | 26km/h | 13119m | 5.9m/s | 0°C | 0% | 0hPa | 0V | 00:00:00 | 00:00:00 | 00:00:00 | |
| EA3GEO | 2026-09-05 11:35:57 | 41.30771 | 2.22055 | 203° | 22km/h | 13104m | 4.1m/s | 0°C | 0% | 0hPa | 0V | 00:00:00 | 00:00:00 | 00:00:00 | |
| EA3IBE | 2026-09-05 11:35:55 | 41.30779 | 2.22057 | 191° | 11km/h | 13095m | 1.9m/s | 0°C | 0% | 0hPa | 0V | 00:00:00 | 00:00:00 | 00:00:00 | |
| EA3GEO | 2026-09-05 11:35:51 | 41.30799 | 2.22059 | 182° | 24km/h | 13077m | 4.9m/s | 0°C | 0% | 0hPa | 0V | 00:00:00 | 00:00:00 | 00:00:00 | |
| EA3IBE | 2026-09-05 11:35:50 | 41.30805 | 2.22059 | 183° | 26km/h | 13074m | 1.6m/s | 0°C | 0% | 0hPa | 0V | 00:00:00 | 00:00:00 | 00:00:00 | |
| EA3GEO | 2026-09-05 11:35:46 | 41.30828 | 2.22072 | 206° | 22km/h | 13056m | 5.9m/s | 0°C | 0% | 0hPa | 0V | 00:00:00 | 00:00:00 | 00:00:00 | |
| EA3IBE | 2026-09-05 11:35:44 | 41.30836 | 2.22073 | 171° | 15km/h | 13047m | 4.8m/s | 0°C | 0% | 0hPa | 0V | 00:00:00 | 00:00:00 | 00:00:00 | |
| EA3GEO | 2026-09-05 11:35:40 | 41.30856 | 2.22076 | 191° | 20km/h | 13028m | 5.0m/s | 0°C | 0% | 0hPa | 0V | 00:00:00 | 00:00:00 | 00:00:00 | |
| EA3IBE | 2026-09-05 11:35:39 | 41.30861 | 2.22076 | 172° | 24km/h | 13023m | 5.2m/s | 0°C | 0% | 0hPa | 0V | 00:00:00 | 00:00:00 | 00:00:00 | |
| EA3GEO | 2026-09-05 11:35:34 | 41.30887 | 2.22081 | 208° | 22km/h | 12998m | 4.2m/s | 0°C | 0% | 0hPa | 0V | 00:00:00 | 00:00:00 | 00:00:00 | |
| EA3IBE | 2026-09-05 11:35:33 | 41.30892 | 2.22085 | 205° | 26km/h | 12993m | 6.2m/s | 0°C | 0% | 0hPa | 0V | 00:00:00 | 00:00:00 | 00:00:00 | |
| EA3IBE | 2026-09-05 11:35:28 | 41.30919 | 2.22078 | 148° | 20km/h | 12971m | 3.4m/s | 0°C | 0% | 0hPa | 0V | 00:00:00 | 00:00:00 | 00:00:00 | |
| EA3GEO | 2026-09-05 11:35:23 | 41.30945 | 2.22080 | 200° | 35km/h | 12949m | 4.8m/s | 0°C | 0% | 0hPa | 0V | 00:00:00 | 00:00:00 | 00:00:00 | |
| EA3IBE | 2026-09-05 11:35:22 | 41.30953 | 2.22082 | 182° | 29km/h | 12945m | 4.2m/s | 0°C | 0% | 0hPa | 0V | 00:00:00 | 00:00:00 | 00:00:00 | |
| EA3GEO | 2026-09-05 11:35:17 | 41.30983 | 2.22069 | 176° | 18km/h | 12919m | 5.1m/s | 0°C | 0% | 0hPa | 0V | 00:00:00 | 00:00:00 | 00:00:00 | |
| EA3IBE | 2026-09-05 11:35:16 | 41.30988 | 2.22069 | 175° | 16km/h | 12913m | 6.8m/s | 0°C | 0% | 0hPa | 0V | 00:00:00 | 00:00:00 | 00:00:00 | |
| EA3IBE | 2026-09-05 11:35:10 | 41.31022 | 2.22075 | 191° | 37km/h | 12885m | 6.4m/s | 0°C | 0% | 0hPa | 0V | 00:00:00 | 00:00:00 | 00:00:00 | |
| EA3GEO | 2026-09-05 11:35:06 | 41.31053 | 2.22079 | 173° | 24km/h | 12865m | 7.4m/s | 0°C | 0% | 0hPa | 0V | 00:00:00 | 00:00:00 | 00:00:00 | |
| EA3IBE | 2026-09-05 11:35:05 | 41.31059 | 2.22080 | 195° | 18km/h | 12859m | 5.2m/s | 0°C | 0% | 0hPa | 0V | 00:00:00 | 00:00:00 | 00:00:00 | |
| EA3IBE | 2026-09-05 11:34:59 | 41.31094 | 2.22087 | 172° | 22km/h | 12833m | 4.2m/s | 0°C | 0% | 0hPa | 0V | 00:00:00 | 00:00:00 | 00:00:00 | |
| EA3GEO | 2026-09-05 11:34:55 | 41.31118 | 2.22096 | 196° | 29km/h | 12814m | 4.7m/s | 0°C | 0% | 0hPa | 0V | 00:00:00 | 00:00:00 | 00:00:00 | |
| EA3IBE | 2026-09-05 11:34:54 | 41.31125 | 2.22098 | 191° | 26km/h | 12810m | 4.7m/s | 0°C | 0% | 0hPa | 0V | 00:00:00 | 00:00:00 | 00:00:00 | |
| EA3GEO | 2026-09-05 11:34:50 | 41.31145 | 2.22103 | 193° | 20km/h | 12791m | 5.4m/s | 0°C | 0% | 0hPa | 0V | 00:00:00 | 00:00:00 | 00:00:00 | |
| EA3IBE | 2026-09-05 11:34:48 | 41.31156 | 2.22106 | 203° | 22km/h | 12783m | 5.7m/s | 0°C | 0% | 0hPa | 0V | 00:00:00 | 00:00:00 | 00:00:00 | |
| EA3GEO | 2026-09-05 11:34:44 | 41.31179 | 2.22115 | 184° | 26km/h | 12763m | 3.1m/s | 0°C | 0% | 0hPa | 0V | 00:00:00 | 00:00:00 | 00:00:00 | |
| EA3IBE | 2026-09-05 11:34:43 | 41.31186 | 2.22116 | 192° | 24km/h | 12759m | 4.6m/s | 0°C | 0% | 0hPa | 0V | 00:00:00 | 00:00:00 | 00:00:00 | |
| EA3GEO | 2026-09-05 11:34:39 | 41.31209 | 2.22125 | 175° | 24km/h | 12742m | 4.4m/s | 0°C | 0% | 0hPa | 0V | 00:00:00 | 00:00:00 | 00:00:00 | |
| EA3IBE | 2026-09-05 11:34:37 | 41.31221 | 2.22127 | 191° | 22km/h | 12732m | 5.1m/s | 0°C | 0% | 0hPa | 0V | 00:00:00 | 00:00:00 | 00:00:00 | |
| EA3GEO | 2026-09-05 11:34:34 | 41.31236 | 2.22131 | 197° | 27km/h | 12717m | 6.9m/s | 0°C | 0% | 0hPa | 0V | 00:00:00 | 00:00:00 | 00:00:00 | |
| EA3IBE | 2026-09-05 11:34:32 | 41.31249 | 2.22136 | 206° | 26km/h | 12705m | 7.3m/s | 0°C | 0% | 0hPa | 0V | 00:00:00 | 00:00:00 | 00:00:00 | |
| EA3GEO | 2026-09-05 11:34:29 | 41.31269 | 2.22140 | 175° | 24km/h | 12676m | 11.1m/s | 0°C | 0% | 0hPa | 0V | 00:00:00 | 00:00:00 | 00:00:00 | |
| EA3IBE | 2026-09-05 11:34:26 | 41.31279 | 2.22137 | 150° | 13km/h | 12661m | 4.1m/s | 0°C | 0% | 0hPa | 0V | 00:00:00 | 00:00:00 | 00:00:00 | |
| EA3GEO | 2026-09-05 11:34:22 | 41.31293 | 2.22129 | 161° | 16km/h | 12638m | 9.2m/s | 0°C | 0% | 0hPa | 0V | 00:00:00 | 00:00:00 | 00:00:00 | |
| EA3IBE | 2026-09-05 11:34:20 | 41.31302 | 2.22126 | 164° | 20km/h | 12625m | 7.0m/s | 0°C | 0% | 0hPa | 0V | 00:00:00 | 00:00:00 | 00:00:00 | |
| EA3GEO | 2026-09-05 11:34:16 | 41.31316 | 2.22116 | 175° | 13km/h | 12600m | 5.5m/s | 0°C | 0% | 0hPa | 0V | 00:00:00 | 00:00:00 | 00:00:00 | |
| EA3IBE | 2026-09-05 11:34:14 | 41.31322 | 2.22112 | 142° | 15km/h | 12585m | 4.2m/s | 0°C | 0% | 0hPa | 0V | 00:00:00 | 00:00:00 | 00:00:00 | |
| EA3IBE | 2026-09-05 11:34:09 | 41.31343 | 2.22102 | 179° | 22km/h | 12559m | 3.1m/s | 0°C | 0% | 0hPa | 0V | 00:00:00 | 00:00:00 | 00:00:00 | |
| EA3IBE | 2026-09-05 11:34:03 | 41.31369 | 2.22084 | 151° | 18km/h | 12524m | 7.5m/s | 0°C | 0% | 0hPa | 0V | 00:00:00 | 00:00:00 | 00:00:00 | |
| EA3GEO | 2026-09-05 11:33:58 | 41.31393 | 2.22080 | 147° | 24km/h | 12487m | 5.8m/s | 0°C | 0% | 0hPa | 0V | 00:00:00 | 00:00:00 | 00:00:00 | |
| EA3IBE | 2026-09-05 11:33:57 | 41.31393 | 2.22080 | 147° | 24km/h | 12487m | 5.8m/s | 0°C | 0% | 0hPa | 0V | 00:00:00 | 00:00:00 | 00:00:00 | |
| EA3GEO | 2026-09-05 11:33:51 | 41.31416 | 2.22045 | 105° | 20km/h | 12450m | 10.6m/s | 0°C | 0% | 0hPa | 0V | 00:00:00 | 00:00:00 | 00:00:00 | |
| EA3GEO | 2026-09-05 11:33:46 | 41.31442 | 2.22019 | 135° | 27km/h | 12417m | 2.3m/s | 0°C | 0% | 0hPa | 0V | 00:00:00 | 00:00:00 | 00:00:00 | |
| EA3IBE | 2026-09-05 11:33:44 | 41.31453 | 2.22006 | 130° | 33km/h | 12407m | 0.9m/s | 0°C | 0% | 0hPa | 0V | 00:00:00 | 00:00:00 | 00:00:00 | |
| EA3GEO | 2026-09-05 11:33:40 | 41.31471 | 2.21982 | 144° | 24km/h | 12381m | 4.7m/s | 0°C | 0% | 0hPa | 0V | 00:00:00 | 00:00:00 | 00:00:00 | |
| EA3IBE | 2026-09-05 11:33:39 | 41.31475 | 2.21976 | 128° | 26km/h | 12376m | 5.7m/s | 0°C | 0% | 0hPa | 0V | 00:00:00 | 00:00:00 | 00:00:00 | |
| EA3GEO | 2026-09-05 11:33:34 | 41.31494 | 2.21933 | 132° | 35km/h | 12345m | 2.8m/s | 0°C | 0% | 0hPa | 0V | 00:00:00 | 00:00:00 | 00:00:00 | |
| EA3IBE | 2026-09-05 11:33:30 | 41.31514 | 2.21899 | 119° | 35km/h | 12324m | 7.6m/s | 0°C | 0% | 0hPa | 0V | 00:00:00 | 00:00:00 | 00:00:00 | |
| EA3GEO | 2026-09-05 11:33:28 | 41.31523 | 2.21880 | 131° | 33km/h | 12312m | 6.4m/s | 0°C | 0% | 0hPa | 0V | 00:00:00 | 00:00:00 | 00:00:00 | |
| EA3IBE | 2026-09-05 11:33:24 | 41.31540 | 2.21847 | 124° | 33km/h | 12290m | 7.3m/s | 0°C | 0% | 0hPa | 0V | 00:00:00 | 00:00:00 | 00:00:00 | |
| EA3GEO | 2026-09-05 11:33:23 | 41.31545 | 2.21837 | 130° | 40km/h | 12281m | 11.1m/s | 0°C | 0% | 0hPa | 0V | 00:00:00 | 00:00:00 | 00:00:00 | |
| EA3GEO | 2026-09-05 11:33:18 | 41.31566 | 2.21785 | 123° | 27km/h | 12251m | 7.5m/s | 0°C | 0% | 0hPa | 0V | 00:00:00 | 00:00:00 | 00:00:00 | |
| EA3GEO | 2026-09-05 11:33:13 | 41.31587 | 2.21743 | 111° | 29km/h | 12225m | 9.5m/s | 0°C | 0% | 0hPa | 0V | 00:00:00 | 00:00:00 | 00:00:00 | |
| EA3IBE | 2026-09-05 11:33:07 | 41.31599 | 2.21689 | 108° | 29km/h | 12189m | 4.8m/s | 0°C | 0% | 0hPa | 0V | 00:00:00 | 00:00:00 | 00:00:00 | |
| EA3GEO | 2026-09-05 11:33:01 | 41.31610 | 2.21632 | 118° | 20km/h | 12152m | 4.3m/s | 0°C | 0% | 0hPa | 0V | 00:00:00 | 00:00:00 | 00:00:00 | |
| EA3IBE | 2026-09-05 11:33:00 | 41.31612 | 2.21625 | 97° | 24km/h | 12148m | 4.2m/s | 0°C | 0% | 0hPa | 0V | 00:00:00 | 00:00:00 | 00:00:00 | |
| EA3GEO | 2026-09-05 11:32:56 | 41.31621 | 2.21594 | 129° | 24km/h | 12124m | 10.3m/s | 0°C | 0% | 0hPa | 0V | 00:00:00 | 00:00:00 | 00:00:00 | |
| EA3IBE | 2026-09-05 11:32:53 | 41.31630 | 2.21578 | 119° | 27km/h | 12105m | 4.2m/s | 0°C | 0% | 0hPa | 0V | 00:00:00 | 00:00:00 | 00:00:00 | |
| EA3GEO | 2026-09-05 11:32:44 | 41.31642 | 2.21517 | 96° | 24km/h | 12043m | 6.5m/s | 0°C | 0% | 0hPa | 0V | 00:00:00 | 00:00:00 | 00:00:00 | |
| EA3IBE | 2026-09-05 11:32:41 | 41.31647 | 2.21496 | 123° | 24km/h | 12027m | 11.6m/s | 0°C | 0% | 0hPa | 0V | 00:00:00 | 00:00:00 | 00:00:00 | |
| EA3GEO | 2026-09-05 11:32:39 | 41.31651 | 2.21484 | 110° | 18km/h | 12013m | 1.6m/s | 0°C | 0% | 0hPa | 0V | 00:00:00 | 00:00:00 | 00:00:00 | |
| EA3IBE | 2026-09-05 11:32:36 | 41.31655 | 2.21467 | 115° | 16km/h | 11995m | 2.7m/s | 0°C | 0% | 0hPa | 0V | 00:00:00 | 00:00:00 | 00:00:00 | |
| EA3GEO | 2026-09-05 11:32:33 | 41.31660 | 2.21451 | 102° | 13km/h | 11979m | 3.6m/s | 0°C | 0% | 0hPa | 0V | 00:00:00 | 00:00:00 | 00:00:00 | |
| EA3IBE | 2026-09-05 11:32:31 | 41.31661 | 2.21442 | 91° | 16km/h | 11967m | 3.1m/s | 0°C | 0% | 0hPa | 0V | 00:00:00 | 00:00:00 | 00:00:00 | |
| EA3GEO | 2026-09-05 11:32:27 | 41.31662 | 2.21427 | 105° | 13km/h | 11941m | 10.5m/s | 0°C | 0% | 0hPa | 0V | 00:00:00 | 00:00:00 | 00:00:00 | |
| EA3IBE | 2026-09-05 11:32:25 | 41.31667 | 2.21418 | 130° | 18km/h | 11927m | 3.7m/s | 0°C | 0% | 0hPa | 0V | 00:00:00 | 00:00:00 | 00:00:00 | |
| EA3GEO | 2026-09-05 11:32:21 | 41.31674 | 2.21400 | 88° | 5km/h | 11902m | 6.5m/s | 0°C | 0% | 0hPa | 0V | 00:00:00 | 00:00:00 | 00:00:00 | |
| EA3IBE | 2026-09-05 11:32:20 | 41.31673 | 2.21398 | 53° | 7km/h | 11895m | 6.6m/s | 0°C | 0% | 0hPa | 0V | 00:00:00 | 00:00:00 | 00:00:00 | |
| EA3GEO | 2026-09-05 11:32:16 | 41.31673 | 2.21390 | 95° | 11km/h | 11873m | 5.6m/s | 0°C | 0% | 0hPa | 0V | 00:00:00 | 00:00:00 | 00:00:00 | |
| EA3GEO | 2026-09-05 11:32:10 | 41.31686 | 2.21365 | 124° | 22km/h | 11834m | 2.1m/s | 0°C | 0% | 0hPa | 0V | 00:00:00 | 00:00:00 | 00:00:00 | |
| EA3IBE | 2026-09-05 11:32:08 | 41.31689 | 2.21357 | 92° | 7km/h | 11821m | 4.8m/s | 0°C | 0% | 0hPa | 0V | 00:00:00 | 00:00:00 | 00:00:00 | |
| EA3GEO | 2026-09-05 11:32:05 | 41.31692 | 2.21349 | 123° | 13km/h | 11801m | 6.3m/s | 0°C | 0% | 0hPa | 0V | 00:00:00 | 00:00:00 | 00:00:00 | |
| EA3IBE | 2026-09-05 11:32:01 | 41.31699 | 2.21332 | 119° | 15km/h | 11781m | 1.8m/s | 0°C | 0% | 0hPa | 0V | 00:00:00 | 00:00:00 | 00:00:00 | |
| EA3GEO | 2026-09-05 11:31:59 | 41.31705 | 2.21325 | 151° | 20km/h | 11764m | 5.1m/s | 0°C | 0% | 0hPa | 0V | 00:00:00 | 00:00:00 | 00:00:00 | |
| EA3IBE | 2026-09-05 11:31:55 | 41.31718 | 2.21309 | 132° | 18km/h | 11740m | 4.8m/s | 0°C | 0% | 0hPa | 0V | 00:00:00 | 00:00:00 | 00:00:00 | |
| EA3GEO | 2026-09-05 11:31:54 | 41.31720 | 2.21305 | 116° | 13km/h | 11736m | 2.4m/s | 0°C | 0% | 0hPa | 0V | 00:00:00 | 00:00:00 | 00:00:00 | |
| EA3GEO | 2026-09-05 11:31:48 | 41.31727 | 2.21280 | 135° | 18km/h | 11696m | 13.2m/s | 0°C | 0% | 0hPa | 0V | 00:00:00 | 00:00:00 | 00:00:00 | |
| EA3IBE | 2026-09-05 11:31:47 | 41.31730 | 2.21276 | 123° | 20km/h | 11688m | 4.2m/s | 0°C | 0% | 0hPa | 0V | 00:00:00 | 00:00:00 | 00:00:00 | |
| EA3GEO | 2026-09-05 11:31:43 | 41.31738 | 2.21253 | 143° | 20km/h | 11667m | 2.7m/s | 0°C | 0% | 0hPa | 0V | 00:00:00 | 00:00:00 | 00:00:00 | |
| EA3IBE | 2026-09-05 11:31:38 | 41.31751 | 2.21236 | 112° | 26km/h | 11639m | 6.1m/s | 0°C | 0% | 0hPa | 0V | 00:00:00 | 00:00:00 | 00:00:00 | |
| EA3GEO | 2026-09-05 11:31:37 | 41.31754 | 2.21229 | 123° | 18km/h | 11634m | 5.4m/s | 0°C | 0% | 0hPa | 0V | 00:00:00 | 00:00:00 | 00:00:00 | |
| EA3IBE | 2026-09-05 11:31:32 | 41.31774 | 2.21210 | 129° | 24km/h | 11608m | 3.9m/s | 0°C | 0% | 0hPa | 0V | 00:00:00 | 00:00:00 | 00:00:00 | |
| EA3GEO | 2026-09-05 11:31:26 | 41.31788 | 2.21180 | 136° | 18km/h | 11566m | 5.9m/s | 0°C | 0% | 0hPa | 0V | 00:00:00 | 00:00:00 | 00:00:00 | |
| EA3IBE | 2026-09-05 11:31:25 | 41.31792 | 2.21175 | 131° | 18km/h | 11561m | 3.4m/s | 0°C | 0% | 0hPa | 0V | 00:00:00 | 00:00:00 | 00:00:00 | |
| EA3GEO | 2026-09-05 11:31:22 | 41.31802 | 2.21159 | 142° | 16km/h | 11535m | 2.4m/s | 0°C | 0% | 0hPa | 0V | 00:00:00 | 00:00:00 | 00:00:00 | |
| EA3IBE | 2026-09-05 11:31:21 | 41.31805 | 2.21156 | 138° | 18km/h | 11529m | 9.4m/s | 0°C | 0% | 0hPa | 0V | 00:00:00 | 00:00:00 | 00:00:00 | |
| EA3GEO | 2026-09-05 11:31:15 | 41.31827 | 2.21134 | 127° | 22km/h | 11494m | 4.0m/s | 0°C | 0% | 0hPa | 0V | 00:00:00 | 00:00:00 | 00:00:00 | |
| EA3IBE | 2026-09-05 11:31:14 | 41.31829 | 2.21129 | 132° | 18km/h | 11491m | 1.5m/s | 0°C | 0% | 0hPa | 0V | 00:00:00 | 00:00:00 | 00:00:00 | |
| EA3GEO | 2026-09-05 11:31:10 | 41.31845 | 2.21116 | 149° | 18km/h | 11466m | 2.4m/s | 0°C | 0% | 0hPa | 0V | 00:00:00 | 00:00:00 | 00:00:00 | |
| EA3IBE | 2026-09-05 11:31:07 | 41.31858 | 2.21105 | 146° | 22km/h | 11449m | 1.5m/s | 0°C | 0% | 0hPa | 0V | 00:00:00 | 00:00:00 | 00:00:00 | |
| EA3GEO | 2026-09-05 11:31:04 | 41.31868 | 2.21087 | 112° | 18km/h | 11431m | 0.9m/s | 0°C | 0% | 0hPa | 0V | 00:00:00 | 00:00:00 | 00:00:00 | |
| EA3IBE | 2026-09-05 11:31:00 | 41.31881 | 2.21067 | 158° | 27km/h | 11405m | 11.1m/s | 0°C | 0% | 0hPa | 0V | 00:00:00 | 00:00:00 | 00:00:00 | |
| EA3GEO | 2026-09-05 11:30:58 | 41.31892 | 2.21058 | 129° | 24km/h | 11388m | 5.5m/s | 0°C | 0% | 0hPa | 0V | 00:00:00 | 00:00:00 | 00:00:00 | |
| EA3IBE | 2026-09-05 11:30:52 | 41.31912 | 2.21032 | 172° | 24km/h | 11354m | 4.7m/s | 0°C | 0% | 0hPa | 0V | 00:00:00 | 00:00:00 | 00:00:00 | |
| EA3GEO | 2026-09-05 11:30:46 | 41.31947 | 2.20980 | 133° | 20km/h | 11318m | 4.2m/s | 0°C | 0% | 0hPa | 0V | 00:00:00 | 00:00:00 | 00:00:00 | |
| EA3IBE | 2026-09-05 11:30:43 | 41.31956 | 2.20964 | 122° | 26km/h | 11295m | 7.0m/s | 0°C | 0% | 0hPa | 0V | 00:00:00 | 00:00:00 | 00:00:00 | |
| EA3GEO | 2026-09-05 11:30:40 | 41.31963 | 2.20942 | 116° | 18km/h | 11272m | 5.6m/s | 0°C | 0% | 0hPa | 0V | 00:00:00 | 00:00:00 | 00:00:00 | |
| EA3IBE | 2026-09-05 11:30:37 | 41.31975 | 2.20923 | 127° | 35km/h | 11257m | 6.3m/s | 0°C | 0% | 0hPa | 0V | 00:00:00 | 00:00:00 | 00:00:00 | |
| EA3GEO | 2026-09-05 11:30:34 | 41.31991 | 2.20902 | 166° | 24km/h | 11242m | 6.8m/s | 0°C | 0% | 0hPa | 0V | 00:00:00 | 00:00:00 | 00:00:00 | |
| EA3GEO | 2026-09-05 11:30:29 | 41.32018 | 2.20883 | 111° | 29km/h | 11215m | 5.4m/s | 0°C | 0% | 0hPa | 0V | 00:00:00 | 00:00:00 | 00:00:00 | |
| EA3IBE | 2026-09-05 11:30:27 | 41.32024 | 2.20868 | 149° | 22km/h | 11200m | 7.7m/s | 0°C | 0% | 0hPa | 0V | 00:00:00 | 00:00:00 | 00:00:00 | |
| EA3GEO | 2026-09-05 11:30:23 | 41.32040 | 2.20862 | 136° | 22km/h | 11171m | 8.0m/s | 0°C | 0% | 0hPa | 0V | 00:00:00 | 00:00:00 | 00:00:00 | |
| EA3IBE | 2026-09-05 11:30:21 | 41.32050 | 2.20846 | 129° | 35km/h | 11159m | 4.4m/s | 0°C | 0% | 0hPa | 0V | 00:00:00 | 00:00:00 | 00:00:00 | |
| EA3IBE | 2026-09-05 11:30:19 | 41.32076 | 2.20810 | 146° | 35km/h | 11118m | 11.7m/s | 0°C | 0% | 0hPa | 0V | 00:00:00 | 00:00:00 | 00:00:00 | |
| EA3GEO | 2026-09-05 11:30:12 | 41.32097 | 2.20778 | 121° | 29km/h | 11090m | 9.2m/s | 0°C | 0% | 0hPa | 0V | 00:00:00 | 00:00:00 | 00:00:00 | |
| EA3GEO | 2026-09-05 11:30:06 | 41.32128 | 2.20737 | 144° | 29km/h | 11047m | 5.1m/s | 0°C | 0% | 0hPa | 0V | 00:00:00 | 00:00:00 | 00:00:00 | |
| EA3IBE | 2026-09-05 11:30:03 | 41.32146 | 2.20714 | 132° | 37km/h | 11024m | 3.0m/s | 0°C | 0% | 0hPa | 0V | 00:00:00 | 00:00:00 | 00:00:00 | |
| EA3IBE | 2026-09-05 11:29:58 | 41.32176 | 2.20673 | 119° | 26km/h | 10995m | 10.9m/s | 0°C | 0% | 0hPa | 0V | 00:00:00 | 00:00:00 | 00:00:00 | |
| EA3IBE | 2026-09-05 11:29:53 | 41.32198 | 2.20631 | 147° | 37km/h | 10959m | 10.0m/s | 0°C | 0% | 0hPa | 0V | 00:00:00 | 00:00:00 | 00:00:00 | |
| EA3GEO | 2026-09-05 11:29:49 | 41.32222 | 2.20603 | 118° | 35km/h | 10928m | 6.2m/s | 0°C | 0% | 0hPa | 0V | 00:00:00 | 00:00:00 | 00:00:00 | |
| EA3IBE | 2026-09-05 11:29:46 | 41.32233 | 2.20563 | 109° | 51km/h | 10908m | 3.6m/s | 0°C | 0% | 0hPa | 0V | 00:00:00 | 00:00:00 | 00:00:00 | |
| EA3GEO | 2026-09-05 11:29:43 | 41.32251 | 2.20522 | 136° | 42km/h | 10890m | 10.4m/s | 0°C | 0% | 0hPa | 0V | 00:00:00 | 00:00:00 | 00:00:00 | |
| EA3IBE | 2026-09-05 11:29:37 | 41.32288 | 2.20487 | 102° | 29km/h | 10852m | 8.0m/s | 0°C | 0% | 0hPa | 0V | 00:00:00 | 00:00:00 | 00:00:00 | |
| EA3GEO | 2026-09-05 11:29:32 | 41.32304 | 2.20441 | 149° | 26km/h | 10821m | 7.6m/s | 0°C | 0% | 0hPa | 0V | 00:00:00 | 00:00:00 | 00:00:00 | |
| EA3IBE | 2026-09-05 11:29:31 | 41.32309 | 2.20436 | 146° | 24km/h | 10813m | 9.6m/s | 0°C | 0% | 0hPa | 0V | 00:00:00 | 00:00:00 | 00:00:00 | |
| EA3GEO | 2026-09-05 11:29:27 | 41.32334 | 2.20411 | 145° | 35km/h | 10789m | 13.2m/s | 0°C | 0% | 0hPa | 0V | 00:00:00 | 00:00:00 | 00:00:00 | |
| EA3IBE | 2026-09-05 11:29:26 | 41.32341 | 2.20403 | 136° | 37km/h | 10779m | 7.7m/s | 0°C | 0% | 0hPa | 0V | 00:00:00 | 00:00:00 | 00:00:00 | |
| EA3IBE | 2026-09-05 11:29:21 | 41.32368 | 2.20352 | 122° | 40km/h | 10744m | 4.1m/s | 0°C | 0% | 0hPa | 0V | 00:00:00 | 00:00:00 | 00:00:00 | |
| EA3IBE | 2026-09-05 11:29:16 | 41.32385 | 2.20302 | 120° | 35km/h | 10715m | 5.9m/s | 0°C | 0% | 0hPa | 0V | 00:00:00 | 00:00:00 | 00:00:00 | |
| EA3IBE | 2026-09-05 11:29:10 | 41.32417 | 2.20240 | 117° | 37km/h | 10670m | 6.1m/s | 0°C | 0% | 0hPa | 0V | 00:00:00 | 00:00:00 | 00:00:00 | |
| EA3IBE | 2026-09-05 11:29:05 | 41.32442 | 2.20190 | 124° | 35km/h | 10640m | 3.9m/s | 0°C | 0% | 0hPa | 0V | 00:00:00 | 00:00:00 | 00:00:00 | |
| EA3GEO | 2026-09-05 11:29:04 | 41.32446 | 2.20180 | 123° | 31km/h | 10636m | 4.7m/s | 0°C | 0% | 0hPa | 0V | 00:00:00 | 00:00:00 | 00:00:00 | |
| EA3IBE | 2026-09-05 11:28:59 | 41.32471 | 2.20128 | 125° | 33km/h | 10605m | 6.9m/s | 0°C | 0% | 0hPa | 0V | 00:00:00 | 00:00:00 | 00:00:00 | |
| EA3GEO | 2026-09-05 11:28:53 | 41.32500 | 2.20071 | 117° | 37km/h | 10561m | 8.3m/s | 0°C | 0% | 0hPa | 0V | 00:00:00 | 00:00:00 | 00:00:00 | |
| EA3IBE | 2026-09-05 11:28:52 | 41.32505 | 2.20060 | 122° | 37km/h | 10554m | 4.5m/s | 0°C | 0% | 0hPa | 0V | 00:00:00 | 00:00:00 | 00:00:00 | |
| EA3IBE | 2026-09-05 11:28:47 | 41.32527 | 2.20016 | 122° | 27km/h | 10522m | 5.0m/s | 0°C | 0% | 0hPa | 0V | 00:00:00 | 00:00:00 | 00:00:00 | |
| EA3GEO | 2026-09-05 11:28:41 | 41.32547 | 2.19966 | 130° | 26km/h | 10487m | 11.1m/s | 0°C | 0% | 0hPa | 0V | 00:00:00 | 00:00:00 | 00:00:00 | |
| EA3IBE | 2026-09-05 11:28:40 | 41.32551 | 2.19959 | 130° | 27km/h | 10478m | 6.6m/s | 0°C | 0% | 0hPa | 0V | 00:00:00 | 00:00:00 | 00:00:00 | |
| EA3GEO | 2026-09-05 11:28:35 | 41.32574 | 2.19915 | 128° | 35km/h | 10442m | 2.9m/s | 0°C | 0% | 0hPa | 0V | 00:00:00 | 00:00:00 | 00:00:00 | |
| EA3IBE | 2026-09-05 11:28:34 | 41.32579 | 2.19906 | 125° | 37km/h | 10438m | 6.8m/s | 0°C | 0% | 0hPa | 0V | 00:00:00 | 00:00:00 | 00:00:00 | |
| EA3GEO | 2026-09-05 11:28:29 | 41.32604 | 2.19872 | 131° | 29km/h | 10407m | 10.1m/s | 0°C | 0% | 0hPa | 0V | 00:00:00 | 00:00:00 | 00:00:00 | |
| EA3IBE | 2026-09-05 11:28:28 | 41.32608 | 2.19864 | 120° | 27km/h | 10398m | 7.7m/s | 0°C | 0% | 0hPa | 0V | 00:00:00 | 00:00:00 | 00:00:00 | |
| EA3GEO | 2026-09-05 11:28:24 | 41.32617 | 2.19832 | 120° | 26km/h | 10373m | 8.0m/s | 0°C | 0% | 0hPa | 0V | 00:00:00 | 00:00:00 | 00:00:00 | |
| EA3IBE | 2026-09-05 11:28:22 | 41.32624 | 2.19819 | 133° | 24km/h | 10358m | 5.8m/s | 0°C | 0% | 0hPa | 0V | 00:00:00 | 00:00:00 | 00:00:00 | |
| EA3GEO | 2026-09-05 11:28:19 | 41.32633 | 2.19796 | 113° | 27km/h | 10340m | 6.6m/s | 0°C | 0% | 0hPa | 0V | 00:00:00 | 00:00:00 | 00:00:00 | |
| EA3IBE | 2026-09-05 11:28:17 | 41.32640 | 2.19780 | 130° | 27km/h | 10330m | 3.9m/s | 0°C | 0% | 0hPa | 0V | 00:00:00 | 00:00:00 | 00:00:00 | |
| EA3IBE | 2026-09-05 11:28:10 | 41.32667 | 2.19732 | 121° | 27km/h | 10284m | 5.9m/s | 0°C | 0% | 0hPa | 0V | 00:00:00 | 00:00:00 | 00:00:00 | |
| EA3GEO | 2026-09-05 11:28:07 | 41.32675 | 2.19710 | 120° | 26km/h | 10266m | 9.3m/s | 0°C | 0% | 0hPa | 0V | 00:00:00 | 00:00:00 | 00:00:00 | |
| EA3IBE | 2026-09-05 11:28:04 | 41.32685 | 2.19691 | 140° | 24km/h | 10248m | 3.5m/s | 0°C | 0% | 0hPa | 0V | 00:00:00 | 00:00:00 | 00:00:00 | |
| EA3GEO | 2026-09-05 11:28:02 | 41.32694 | 2.19679 | 123° | 22km/h | 10234m | 8.4m/s | 0°C | 0% | 0hPa | 0V | 00:00:00 | 00:00:00 | 00:00:00 | |
| EA3IBE | 2026-09-05 11:27:59 | 41.32699 | 2.19657 | 110° | 24km/h | 10214m | 5.1m/s | 0°C | 0% | 0hPa | 0V | 00:00:00 | 00:00:00 | 00:00:00 | |
| EA3GEO | 2026-09-05 11:27:56 | 41.32710 | 2.19636 | 132° | 24km/h | 10194m | 11.3m/s | 0°C | 0% | 0hPa | 0V | 00:00:00 | 00:00:00 | 00:00:00 | |
| EA3IBE | 2026-09-05 11:27:54 | 41.32717 | 2.19623 | 121° | 26km/h | 10178m | 5.2m/s | 0°C | 0% | 0hPa | 0V | 00:00:00 | 00:00:00 | 00:00:00 | |
| EA3GEO | 2026-09-05 11:27:51 | 41.32729 | 2.19604 | 131° | 27km/h | 10161m | 7.1m/s | 0°C | 0% | 0hPa | 0V | 00:00:00 | 00:00:00 | 00:00:00 | |
| EA3IBE | 2026-09-05 11:27:49 | 41.32736 | 2.19587 | 122° | 33km/h | 10150m | 3.7m/s | 0°C | 0% | 0hPa | 0V | 00:00:00 | 00:00:00 | 00:00:00 | |
| EA3GEO | 2026-09-05 11:27:45 | 41.32749 | 2.19558 | 140° | 13km/h | 10125m | 5.0m/s | 0°C | 0% | 0hPa | 0V | 00:00:00 | 00:00:00 | 00:00:00 | |
| EA3IBE | 2026-09-05 11:27:43 | 41.32756 | 2.19551 | 138° | 24km/h | 10116m | 2.6m/s | 0°C | 0% | 0hPa | 0V | 00:00:00 | 00:00:00 | 00:00:00 | |
| EA3GEO | 2026-09-05 11:27:40 | 41.32770 | 2.19529 | 123° | 31km/h | 10097m | 8.1m/s | 0°C | 0% | 0hPa | 0V | 00:00:00 | 00:00:00 | 00:00:00 | |
| EA3IBE | 2026-09-05 11:27:37 | 41.32776 | 2.19505 | 115° | 22km/h | 10081m | 6.0m/s | 0°C | 0% | 0hPa | 0V | 00:00:00 | 00:00:00 | 00:00:00 | |
| EA3GEO | 2026-09-05 11:27:35 | 41.32781 | 2.19494 | 131° | 18km/h | 10064m | 7.2m/s | 0°C | 0% | 0hPa | 0V | 00:00:00 | 00:00:00 | 00:00:00 | |
| EA3IBE | 2026-09-05 11:27:30 | 41.32793 | 2.19465 | 112° | 29km/h | 10032m | 8.3m/s | 0°C | 0% | 0hPa | 0V | 00:00:00 | 00:00:00 | 00:00:00 | |
| EA3GEO | 2026-09-05 11:27:29 | 41.32796 | 2.19456 | 117° | 26km/h | 10024m | 5.9m/s | 0°C | 0% | 0hPa | 0V | 00:00:00 | 00:00:00 | 00:00:00 | |
| EA3IBE | 2026-09-05 11:27:25 | 41.32812 | 2.19436 | 117° | 22km/h | 10004m | 3.6m/s | 0°C | 0% | 0hPa | 0V | 00:00:00 | 00:00:00 | 00:00:00 | |
| EA3GEO | 2026-09-05 11:27:23 | 41.32816 | 2.19423 | 110° | 26km/h | 9990m | 8.6m/s | 0°C | 0% | 0hPa | 0V | 00:00:00 | 00:00:00 | 00:00:00 | |
| EA3IBE | 2026-09-05 11:27:20 | 41.32822 | 2.19400 | 103° | 22km/h | 9973m | 6.1m/s | 0°C | 0% | 0hPa | 0V | 00:00:00 | 00:00:00 | 00:00:00 | |
| EA3GEO | 2026-09-05 11:27:18 | 41.32827 | 2.19386 | 123° | 26km/h | 9958m | 9.1m/s | 0°C | 0% | 0hPa | 0V | 00:00:00 | 00:00:00 | 00:00:00 | |
| EA3IBE | 2026-09-05 11:27:15 | 41.32836 | 2.19369 | 113° | 22km/h | 9940m | 8.1m/s | 0°C | 0% | 0hPa | 0V | 00:00:00 | 00:00:00 | 00:00:00 | |
| EA3GEO | 2026-09-05 11:27:12 | 41.32840 | 2.19347 | 117° | 24km/h | 9919m | 4.5m/s | 0°C | 0% | 0hPa | 0V | 00:00:00 | 00:00:00 | 00:00:00 | |
| EA3IBE | 2026-09-05 11:27:07 | 41.32852 | 2.19316 | 120° | 22km/h | 9883m | 4.3m/s | 0°C | 0% | 0hPa | 0V | 00:00:00 | 00:00:00 | 00:00:00 | |
| EA3GEO | 2026-09-05 11:27:02 | 41.32862 | 2.19288 | 104° | 18km/h | 9856m | 3.9m/s | 0°C | 0% | 0hPa | 0V | 00:00:00 | 00:00:00 | 00:00:00 | |
| EA3IBE | 2026-09-05 11:27:00 | 41.32866 | 2.19275 | 115° | 31km/h | 9841m | 8.1m/s | 0°C | 0% | 0hPa | 0V | 00:00:00 | 00:00:00 | 00:00:00 | |
| EA3GEO | 2026-09-05 11:26:57 | 41.32874 | 2.19253 | 127° | 16km/h | 9825m | 3.4m/s | 0°C | 0% | 0hPa | 0V | 00:00:00 | 00:00:00 | 00:00:00 | |
| EA3IBE | 2026-09-05 11:26:54 | 41.32883 | 2.19246 | 159° | 16km/h | 9803m | 5.2m/s | 0°C | 0% | 0hPa | 0V | 00:00:00 | 00:00:00 | 00:00:00 | |
| EA3GEO | 2026-09-05 11:26:51 | 41.32893 | 2.19235 | 133° | 22km/h | 9789m | 9.1m/s | 0°C | 0% | 0hPa | 0V | 00:00:00 | 00:00:00 | 00:00:00 | |
| EA3GEO | 2026-09-05 11:26:45 | 41.32910 | 2.19199 | 153° | 18km/h | 9748m | 11.2m/s | 0°C | 0% | 0hPa | 0V | 00:00:00 | 00:00:00 | 00:00:00 | |
| EA3IBE | 2026-09-05 11:26:44 | 41.32914 | 2.19196 | 144° | 18km/h | 9740m | 7.1m/s | 0°C | 0% | 0hPa | 0V | 00:00:00 | 00:00:00 | 00:00:00 | |
| EA3GEO | 2026-09-05 11:26:39 | 41.32928 | 2.19170 | 110° | 26km/h | 9708m | 7.6m/s | 0°C | 0% | 0hPa | 0V | 00:00:00 | 00:00:00 | 00:00:00 | |
| EA3IBE | 2026-09-05 11:26:38 | 41.32930 | 2.19163 | 127° | 20km/h | 9701m | 5.5m/s | 0°C | 0% | 0hPa | 0V | 00:00:00 | 00:00:00 | 00:00:00 | |
| EA3GEO | 2026-09-05 11:26:34 | 41.32939 | 2.19156 | 137° | 9km/h | 9676m | 6.1m/s | 0°C | 0% | 0hPa | 0V | 00:00:00 | 00:00:00 | 00:00:00 | |
| EA3IBE | 2026-09-05 11:26:32 | 41.32941 | 2.19147 | 111° | 22km/h | 9666m | 4.6m/s | 0°C | 0% | 0hPa | 0V | 00:00:00 | 00:00:00 | 00:00:00 | |
| EA3GEO | 2026-09-05 11:26:28 | 41.32951 | 2.19117 | 133° | 26km/h | 9642m | 5.8m/s | 0°C | 0% | 0hPa | 0V | 00:00:00 | 00:00:00 | 00:00:00 | |
| EA3IBE | 2026-09-05 11:26:27 | 41.32956 | 2.19111 | 139° | 29km/h | 9637m | 5.2m/s | 0°C | 0% | 0hPa | 0V | 00:00:00 | 00:00:00 | 00:00:00 | |
| EA3GEO | 2026-09-05 11:26:23 | 41.32967 | 2.19086 | 82° | 15km/h | 9611m | 5.3m/s | 0°C | 0% | 0hPa | 0V | 00:00:00 | 00:00:00 | 00:00:00 | |
| EA3IBE | 2026-09-05 11:26:21 | 41.32969 | 2.19077 | 133° | 22km/h | 9603m | 5.4m/s | 0°C | 0% | 0hPa | 0V | 00:00:00 | 00:00:00 | 00:00:00 | |
| EA3GEO | 2026-09-05 11:26:17 | 41.32990 | 2.19056 | 129° | 24km/h | 9581m | 5.4m/s | 0°C | 0% | 0hPa | 0V | 00:00:00 | 00:00:00 | 00:00:00 | |
| EA3IBE | 2026-09-05 11:26:15 | 41.32995 | 2.19045 | 112° | 16km/h | 9567m | 8.7m/s | 0°C | 0% | 0hPa | 0V | 00:00:00 | 00:00:00 | 00:00:00 | |
| EA3GEO | 2026-09-05 11:26:12 | 41.32999 | 2.19034 | 127° | 16km/h | 9548m | 3.0m/s | 0°C | 0% | 0hPa | 0V | 00:00:00 | 00:00:00 | 00:00:00 | |
| EA3GEO | 2026-09-05 11:26:06 | 41.33016 | 2.18997 | 115° | 18km/h | 9509m | 4.2m/s | 0°C | 0% | 0hPa | 0V | 00:00:00 | 00:00:00 | 00:00:00 | |
| EA3IBE | 2026-09-05 11:26:05 | 41.33018 | 2.18990 | 112° | 22km/h | 9505m | 4.8m/s | 0°C | 0% | 0hPa | 0V | 00:00:00 | 00:00:00 | 00:00:00 | |
| EA3GEO | 2026-09-05 11:26:01 | 41.33027 | 2.18968 | 137° | 24km/h | 9476m | 4.6m/s | 0°C | 0% | 0hPa | 0V | 00:00:00 | 00:00:00 | 00:00:00 | |
| EA3IBE | 2026-09-05 11:25:59 | 41.33036 | 2.18954 | 132° | 27km/h | 9465m | 11.4m/s | 0°C | 0% | 0hPa | 0V | 00:00:00 | 00:00:00 | 00:00:00 | |
| EA3GEO | 2026-09-05 11:25:55 | 41.33051 | 2.18925 | 134° | 18km/h | 9442m | 4.8m/s | 0°C | 0% | 0hPa | 0V | 00:00:00 | 00:00:00 | 00:00:00 | |
| EA3GEO | 2026-09-05 11:25:50 | 41.33060 | 2.18902 | 76° | 22km/h | 9413m | 5.7m/s | 0°C | 0% | 0hPa | 0V | 00:00:00 | 00:00:00 | 00:00:00 | |
| EA3GEO | 2026-09-05 11:25:44 | 41.33084 | 2.18867 | 159° | 15km/h | 9387m | 2.5m/s | 0°C | 0% | 0hPa | 0V | 00:00:00 | 00:00:00 | 00:00:00 | |
| EA3GEO | 2026-09-05 11:25:39 | 41.33102 | 2.18841 | 126° | 35km/h | 9349m | 8.4m/s | 0°C | 0% | 0hPa | 0V | 00:00:00 | 00:00:00 | 00:00:00 | |
| EA3IBE | 2026-09-05 11:25:37 | 41.33109 | 2.18823 | 113° | 22km/h | 9336m | 4.6m/s | 0°C | 0% | 0hPa | 0V | 00:00:00 | 00:00:00 | 00:00:00 | |
| EA3GEO | 2026-09-05 11:25:33 | 41.33123 | 2.18801 | 127° | 26km/h | 9317m | 6.7m/s | 0°C | 0% | 0hPa | 0V | 00:00:00 | 00:00:00 | 00:00:00 | |
| EA3IBE | 2026-09-05 11:25:30 | 41.33135 | 2.18780 | 118° | 24km/h | 9293m | 5.5m/s | 0°C | 0% | 0hPa | 0V | 00:00:00 | 00:00:00 | 00:00:00 | |
| EA3GEO | 2026-09-05 11:25:27 | 41.33139 | 2.18758 | 108° | 26km/h | 9278m | 10.9m/s | 0°C | 0% | 0hPa | 0V | 00:00:00 | 00:00:00 | 00:00:00 | |
| EA3IBE | 2026-09-05 11:25:25 | 41.33146 | 2.18741 | 122° | 27km/h | 9262m | 6.1m/s | 0°C | 0% | 0hPa | 0V | 00:00:00 | 00:00:00 | 00:00:00 | |
| EA3GEO | 2026-09-05 11:25:21 | 41.33157 | 2.18712 | 109° | 24km/h | 9235m | 6.8m/s | 0°C | 0% | 0hPa | 0V | 00:00:00 | 00:00:00 | 00:00:00 | |
| EA3IBE | 2026-09-05 11:25:19 | 41.33160 | 2.18695 | 102° | 27km/h | 9225m | 3.1m/s | 0°C | 0% | 0hPa | 0V | 00:00:00 | 00:00:00 | 00:00:00 | |
| EA3GEO | 2026-09-05 11:25:15 | 41.33169 | 2.18668 | 132° | 16km/h | 9201m | 6.2m/s | 0°C | 0% | 0hPa | 0V | 00:00:00 | 00:00:00 | 00:00:00 | |
| EA3IBE | 2026-09-05 11:25:11 | 41.33182 | 2.18641 | 116° | 29km/h | 9173m | 9.7m/s | 0°C | 0% | 0hPa | 0V | 00:00:00 | 00:00:00 | 00:00:00 | |
| EA3GEO | 2026-09-05 11:25:10 | 41.33184 | 2.18632 | 94° | 29km/h | 9165m | 6.4m/s | 0°C | 0% | 0hPa | 0V | 00:00:00 | 00:00:00 | 00:00:00 | |
| EA3IBE | 2026-09-05 11:25:04 | 41.33205 | 2.18586 | 135° | 29km/h | 9128m | 5.4m/s | 0°C | 0% | 0hPa | 0V | 00:00:00 | 00:00:00 | 00:00:00 | |
| EA3IBE | 2026-09-05 11:24:59 | 41.33221 | 2.18545 | 126° | 26km/h | 9096m | 6.4m/s | 0°C | 0% | 0hPa | 0V | 00:00:00 | 00:00:00 | 00:00:00 | |
| EA3GEO | 2026-09-05 11:24:54 | 41.33239 | 2.18511 | 126° | 29km/h | 9065m | 6.4m/s | 0°C | 0% | 0hPa | 0V | 00:00:00 | 00:00:00 | 00:00:00 | |
| EA3IBE | 2026-09-05 11:24:52 | 41.33249 | 2.18499 | 136° | 26km/h | 9054m | 4.0m/s | 0°C | 0% | 0hPa | 0V | 00:00:00 | 00:00:00 | 00:00:00 | |
| EA3GEO | 2026-09-05 11:24:48 | 41.33267 | 2.18469 | 124° | 27km/h | 9028m | 4.3m/s | 0°C | 0% | 0hPa | 0V | 00:00:00 | 00:00:00 | 00:00:00 | |
| EA3IBE | 2026-09-05 11:24:44 | 41.33286 | 2.18445 | 148° | 27km/h | 9003m | 7.5m/s | 0°C | 0% | 0hPa | 0V | 00:00:00 | 00:00:00 | 00:00:00 | |
| EA3GEO | 2026-09-05 11:24:43 | 41.33291 | 2.18439 | 130° | 26km/h | 8997m | 4.6m/s | 0°C | 0% | 0hPa | 0V | 00:00:00 | 00:00:00 | 00:00:00 | |
| EA3IBE | 2026-09-05 11:24:39 | 41.33303 | 2.18406 | 110° | 33km/h | 8967m | 8.6m/s | 0°C | 0% | 0hPa | 0V | 00:00:00 | 00:00:00 | 00:00:00 | |
| EA3GEO | 2026-09-05 11:24:37 | 41.33311 | 2.18388 | 132° | 29km/h | 8957m | 5.6m/s | 0°C | 0% | 0hPa | 0V | 00:00:00 | 00:00:00 | 00:00:00 | |
| EA3IBE | 2026-09-05 11:24:33 | 41.33334 | 2.18359 | 133° | 27km/h | 8928m | 4.8m/s | 0°C | 0% | 0hPa | 0V | 00:00:00 | 00:00:00 | 00:00:00 | |
| EA3GEO | 2026-09-05 11:24:32 | 41.33338 | 2.18352 | 122° | 26km/h | 8924m | 3.7m/s | 0°C | 0% | 0hPa | 0V | 00:00:00 | 00:00:00 | 00:00:00 | |
| EA3IBE | 2026-09-05 11:24:26 | 41.33363 | 2.18304 | 133° | 38km/h | 8887m | 3.5m/s | 0°C | 0% | 0hPa | 0V | 00:00:00 | 00:00:00 | 00:00:00 | |
| EA3GEO | 2026-09-05 11:24:21 | 41.33388 | 2.18263 | 130° | 27km/h | 8852m | 6.3m/s | 0°C | 0% | 0hPa | 0V | 00:00:00 | 00:00:00 | 00:00:00 | |
| EA3IBE | 2026-09-05 11:24:20 | 41.33392 | 2.18256 | 136° | 27km/h | 8846m | 4.1m/s | 0°C | 0% | 0hPa | 0V | 00:00:00 | 00:00:00 | 00:00:00 | |
| EA3GEO | 2026-09-05 11:24:16 | 41.33405 | 2.18223 | 113° | 29km/h | 8819m | 5.7m/s | 0°C | 0% | 0hPa | 0V | 00:00:00 | 00:00:00 | 00:00:00 | |
| EA3IBE | 2026-09-05 11:24:14 | 41.33413 | 2.18207 | 128° | 27km/h | 8813m | 1.9m/s | 0°C | 0% | 0hPa | 0V | 00:00:00 | 00:00:00 | 00:00:00 | |
| EA3GEO | 2026-09-05 11:24:11 | 41.33425 | 2.18187 | 130° | 24km/h | 8792m | 7.7m/s | 0°C | 0% | 0hPa | 0V | 00:00:00 | 00:00:00 | 00:00:00 | |
| EA3GEO | 2026-09-05 11:24:05 | 41.33446 | 2.18133 | 107° | 29km/h | 8756m | 2.7m/s | 0°C | 0% | 0hPa | 0V | 00:00:00 | 00:00:00 | 00:00:00 | |
| EA3IBE | 2026-09-05 11:24:02 | 41.33452 | 2.18099 | 103° | 33km/h | 8739m | 9.6m/s | 0°C | 0% | 0hPa | 0V | 00:00:00 | 00:00:00 | 00:00:00 | |
| EA3GEO | 2026-09-05 11:23:59 | 41.33461 | 2.18069 | 115° | 35km/h | 8717m | 5.3m/s | 0°C | 0% | 0hPa | 0V | 00:00:00 | 00:00:00 | 00:00:00 | |
| EA3IBE | 2026-09-05 11:23:56 | 41.33471 | 2.18042 | 126° | 27km/h | 8703m | 2.7m/s | 0°C | 0% | 0hPa | 0V | 00:00:00 | 00:00:00 | 00:00:00 | |
| EA3GEO | 2026-09-05 11:23:54 | 41.33477 | 2.18026 | 118° | 29km/h | 8691m | 9.7m/s | 0°C | 0% | 0hPa | 0V | 00:00:00 | 00:00:00 | 00:00:00 | |
| EA3IBE | 2026-09-05 11:23:51 | 41.33485 | 2.17990 | 111° | 35km/h | 8667m | 4.0m/s | 0°C | 0% | 0hPa | 0V | 00:00:00 | 00:00:00 | 00:00:00 | |
| EA3GEO | 2026-09-05 11:23:48 | 41.33494 | 2.17962 | 108° | 29km/h | 8654m | 5.5m/s | 0°C | 0% | 0hPa | 0V | 00:00:00 | 00:00:00 | 00:00:00 | |
| EA3IBE | 2026-09-05 11:23:45 | 41.33498 | 2.17929 | 101° | 35km/h | 8630m | 4.6m/s | 0°C | 0% | 0hPa | 0V | 00:00:00 | 00:00:00 | 00:00:00 | |
| EA3GEO | 2026-09-05 11:23:43 | 41.33503 | 2.17908 | 116° | 33km/h | 8622m | 3.7m/s | 0°C | 0% | 0hPa | 0V | 00:00:00 | 00:00:00 | 00:00:00 | |
| EA3IBE | 2026-09-05 11:23:39 | 41.33516 | 2.17871 | 109° | 24km/h | 8594m | 6.6m/s | 0°C | 0% | 0hPa | 0V | 00:00:00 | 00:00:00 | 00:00:00 | |
| EA3GEO | 2026-09-05 11:23:37 | 41.33518 | 2.17851 | 98° | 37km/h | 8584m | 2.1m/s | 0°C | 0% | 0hPa | 0V | 00:00:00 | 00:00:00 | 00:00:00 | |
| EA3IBE | 2026-09-05 11:23:34 | 41.33525 | 2.17814 | 117° | 33km/h | 8574m | 1.8m/s | 0°C | 0% | 0hPa | 0V | 00:00:00 | 00:00:00 | 00:00:00 | |
| EA3GEO | 2026-09-05 11:23:31 | 41.33532 | 2.17790 | 109° | 18km/h | 8551m | 4.9m/s | 0°C | 0% | 0hPa | 0V | 00:00:00 | 00:00:00 | 00:00:00 | |
| EA3IBE | 2026-09-05 11:23:27 | 41.33542 | 2.17753 | 115° | 42km/h | 8530m | 7.2m/s | 0°C | 0% | 0hPa | 0V | 00:00:00 | 00:00:00 | 00:00:00 | |
| EA3GEO | 2026-09-05 11:23:25 | 41.33553 | 2.17726 | 117° | 42km/h | 8517m | 5.8m/s | 0°C | 0% | 0hPa | 0V | 00:00:00 | 00:00:00 | 00:00:00 | |
| EA3GEO | 2026-09-05 11:23:20 | 41.33583 | 2.17675 | 101° | 33km/h | 8486m | 5.7m/s | 0°C | 0% | 0hPa | 0V | 00:00:00 | 00:00:00 | 00:00:00 | |
| EA3IBE | 2026-09-05 11:23:14 | 41.33587 | 2.17611 | 126° | 40km/h | 8449m | 5.1m/s | 0°C | 0% | 0hPa | 0V | 00:00:00 | 00:00:00 | 00:00:00 | |
| EA3GEO | 2026-09-05 11:23:08 | 41.33609 | 2.17551 | 117° | 29km/h | 8411m | 8.6m/s | 0°C | 0% | 0hPa | 0V | 00:00:00 | 00:00:00 | 00:00:00 | |
| EA3IBE | 2026-09-05 11:23:06 | 41.33617 | 2.17529 | 121° | 42km/h | 8399m | 3.2m/s | 0°C | 0% | 0hPa | 0V | 00:00:00 | 00:00:00 | 00:00:00 | |
| EA3GEO | 2026-09-05 11:23:02 | 41.33638 | 2.17481 | 122° | 35km/h | 8373m | 6.1m/s | 0°C | 0% | 0hPa | 0V | 00:00:00 | 00:00:00 | 00:00:00 | |
| EA3IBE | 2026-09-05 11:23:01 | 41.33643 | 2.17472 | 128° | 33km/h | 8367m | 5.6m/s | 0°C | 0% | 0hPa | 0V | 00:00:00 | 00:00:00 | 00:00:00 | |
| EA3GEO | 2026-09-05 11:22:57 | 41.33659 | 2.17432 | 110° | 35km/h | 8350m | 5.0m/s | 0°C | 0% | 0hPa | 0V | 00:00:00 | 00:00:00 | 00:00:00 | |
| EA3IBE | 2026-09-05 11:22:56 | 41.33662 | 2.17421 | 117° | 35km/h | 8344m | 8.3m/s | 0°C | 0% | 0hPa | 0V | 00:00:00 | 00:00:00 | 00:00:00 | |
| EA3GEO | 2026-09-05 11:22:51 | 41.33682 | 2.17355 | 123° | 38km/h | 8315m | 3.4m/s | 0°C | 0% | 0hPa | 0V | 00:00:00 | 00:00:00 | 00:00:00 | |
| EA3IBE | 2026-09-05 11:22:49 | 41.33690 | 2.17334 | 118° | 37km/h | 8303m | 8.2m/s | 0°C | 0% | 0hPa | 0V | 00:00:00 | 00:00:00 | 00:00:00 | |
| EA3IBE | 2026-09-05 11:22:43 | 41.33713 | 2.17265 | 130° | 38km/h | 8270m | 3.8m/s | 0°C | 0% | 0hPa | 0V | 00:00:00 | 00:00:00 | 00:00:00 | |
| EA3GEO | 2026-09-05 11:22:40 | 41.33727 | 2.17233 | 104° | 33km/h | 8248m | 5.6m/s | 0°C | 0% | 0hPa | 0V | 00:00:00 | 00:00:00 | 00:00:00 | |
| EA3IBE | 2026-09-05 11:22:38 | 41.33731 | 2.17210 | 112° | 40km/h | 8239m | 2.9m/s | 0°C | 0% | 0hPa | 0V | 00:00:00 | 00:00:00 | 00:00:00 | |
| EA3GEO | 2026-09-05 11:22:34 | 41.33754 | 2.17158 | 123° | 42km/h | 8215m | 7.5m/s | 0°C | 0% | 0hPa | 0V | 00:00:00 | 00:00:00 | 00:00:00 | |
| EA3IBE | 2026-09-05 11:22:32 | 41.33764 | 2.17136 | 124° | 35km/h | 8205m | 3.6m/s | 0°C | 0% | 0hPa | 0V | 00:00:00 | 00:00:00 | 00:00:00 | |
| EA3GEO | 2026-09-05 11:22:29 | 41.33781 | 2.17108 | 135° | 37km/h | 8191m | 7.0m/s | 0°C | 0% | 0hPa | 0V | 00:00:00 | 00:00:00 | 00:00:00 | |
| EA3IBE | 2026-09-05 11:22:26 | 41.33799 | 2.17080 | 126° | 37km/h | 8167m | 6.2m/s | 0°C | 0% | 0hPa | 0V | 00:00:00 | 00:00:00 | 00:00:00 | |
| EA3GEO | 2026-09-05 11:22:23 | 41.33817 | 2.17052 | 125° | 33km/h | 8153m | 10.6m/s | 0°C | 0% | 0hPa | 0V | 00:00:00 | 00:00:00 | 00:00:00 | |
| EA3IBE | 2026-09-05 11:22:21 | 41.33829 | 2.17036 | 137° | 37km/h | 8138m | 5.2m/s | 0°C | 0% | 0hPa | 0V | 00:00:00 | 00:00:00 | 00:00:00 | |
| EA3GEO | 2026-09-05 11:22:17 | 41.33855 | 2.16995 | 130° | 47km/h | 8117m | 8.6m/s | 0°C | 0% | 0hPa | 0V | 00:00:00 | 00:00:00 | 00:00:00 | |
| EA3IBE | 2026-09-05 11:22:15 | 41.33869 | 2.16972 | 130° | 42km/h | 8099m | 7.4m/s | 0°C | 0% | 0hPa | 0V | 00:00:00 | 00:00:00 | 00:00:00 | |
| EA3GEO | 2026-09-05 11:22:12 | 41.33890 | 2.16948 | 148° | 33km/h | 8083m | 2.8m/s | 0°C | 0% | 0hPa | 0V | 00:00:00 | 00:00:00 | 00:00:00 | |
| EA3IBE | 2026-09-05 11:22:10 | 41.33903 | 2.16937 | 145° | 37km/h | 8068m | 8.0m/s | 0°C | 0% | 0hPa | 0V | 00:00:00 | 00:00:00 | 00:00:00 | |
| EA3GEO | 2026-09-05 11:22:07 | 41.33924 | 2.16902 | 127° | 44km/h | 8052m | 3.0m/s | 0°C | 0% | 0hPa | 0V | 00:00:00 | 00:00:00 | 00:00:00 | |
| EA3IBE | 2026-09-05 11:22:04 | 41.33947 | 2.16878 | 146° | 37km/h | 8040m | 3.9m/s | 0°C | 0% | 0hPa | 0V | 00:00:00 | 00:00:00 | 00:00:00 | |
| EA3GEO | 2026-09-05 11:22:01 | 41.33969 | 2.16856 | 144° | 37km/h | 8018m | 7.5m/s | 0°C | 0% | 0hPa | 0V | 00:00:00 | 00:00:00 | 00:00:00 | |
| EA3IBE | 2026-09-05 11:21:58 | 41.33990 | 2.16833 | 136° | 40km/h | 7999m | 4.5m/s | 0°C | 0% | 0hPa | 0V | 00:00:00 | 00:00:00 | 00:00:00 | |
| EA3GEO | 2026-09-05 11:21:56 | 41.34005 | 2.16814 | 143° | 40km/h | 7990m | 4.7m/s | 0°C | 0% | 0hPa | 0V | 00:00:00 | 00:00:00 | 00:00:00 | |
| EA3IBE | 2026-09-05 11:21:52 | 41.34031 | 2.16780 | 131° | 38km/h | 7971m | 6.6m/s | 0°C | 0% | 0hPa | 0V | 00:00:00 | 00:00:00 | 00:00:00 | |
| EA3GEO | 2026-09-05 11:21:51 | 41.34038 | 2.16771 | 143° | 37km/h | 7964m | 8.9m/s | 0°C | 0% | 0hPa | 0V | 00:00:00 | 00:00:00 | 00:00:00 | |
| EA3IBE | 2026-09-05 11:21:47 | 41.34068 | 2.16747 | 149° | 29km/h | 7944m | 2.8m/s | 0°C | 0% | 0hPa | 0V | 00:00:00 | 00:00:00 | 00:00:00 | |
| EA3GEO | 2026-09-05 11:21:45 | 41.34078 | 2.16735 | 144° | 29km/h | 7933m | 8.9m/s | 0°C | 0% | 0hPa | 0V | 00:00:00 | 00:00:00 | 00:00:00 | |
| EA3IBE | 2026-09-05 11:21:41 | 41.34101 | 2.16705 | 149° | 29km/h | 7906m | 3.9m/s | 0°C | 0% | 0hPa | 0V | 00:00:00 | 00:00:00 | 00:00:00 | |
| EA3GEO | 2026-09-05 11:21:39 | 41.34114 | 2.16695 | 148° | 26km/h | 7897m | 11.2m/s | 0°C | 0% | 0hPa | 0V | 00:00:00 | 00:00:00 | 00:00:00 | |
| EA3IBE | 2026-09-05 11:21:36 | 41.34133 | 2.16675 | 140° | 37km/h | 7873m | 4.2m/s | 0°C | 0% | 0hPa | 0V | 00:00:00 | 00:00:00 | 00:00:00 | |
| EA3GEO | 2026-09-05 11:21:34 | 41.34145 | 2.16662 | 147° | 27km/h | 7864m | 7.2m/s | 0°C | 0% | 0hPa | 0V | 00:00:00 | 00:00:00 | 00:00:00 | |
| EA3IBE | 2026-09-05 11:21:30 | 41.34175 | 2.16639 | 148° | 42km/h | 7835m | 3.8m/s | 0°C | 0% | 0hPa | 0V | 00:00:00 | 00:00:00 | 00:00:00 | |
| EA3GEO | 2026-09-05 11:21:29 | 41.34184 | 2.16630 | 146° | 46km/h | 7832m | 3.1m/s | 0°C | 0% | 0hPa | 0V | 00:00:00 | 00:00:00 | 00:00:00 | |
| EA3IBE | 2026-09-05 11:21:25 | 41.34219 | 2.16598 | 145° | 33km/h | 7808m | 7.1m/s | 0°C | 0% | 0hPa | 0V | 00:00:00 | 00:00:00 | 00:00:00 | |
| EA3GEO | 2026-09-05 11:21:23 | 41.34233 | 2.16585 | 148° | 35km/h | 7795m | 5.5m/s | 0°C | 0% | 0hPa | 0V | 00:00:00 | 00:00:00 | 00:00:00 | |
| EA3IBE | 2026-09-05 11:21:20 | 41.34256 | 2.16560 | 141° | 40km/h | 7779m | 5.5m/s | 0°C | 0% | 0hPa | 0V | 00:00:00 | 00:00:00 | 00:00:00 | |
| EA3GEO | 2026-09-05 11:21:17 | 41.34277 | 2.16541 | 147° | 31km/h | 7758m | 7.3m/s | 0°C | 0% | 0hPa | 0V | 00:00:00 | 00:00:00 | 00:00:00 | |
| EA3IBE | 2026-09-05 11:21:13 | 41.34304 | 2.16506 | 145° | 37km/h | 7739m | 3.3m/s | 0°C | 0% | 0hPa | 0V | 00:00:00 | 00:00:00 | 00:00:00 | |
| EA3GEO | 2026-09-05 11:21:12 | 41.34312 | 2.16498 | 140° | 37km/h | 7736m | 5.5m/s | 0°C | 0% | 0hPa | 0V | 00:00:00 | 00:00:00 | 00:00:00 | |
| EA3GEO | 2026-09-05 11:21:06 | 41.34356 | 2.16457 | 140° | 31km/h | 7693m | 3.8m/s | 0°C | 0% | 0hPa | 0V | 00:00:00 | 00:00:00 | 00:00:00 | |
| EA3IBE | 2026-09-05 11:21:05 | 41.34362 | 2.16449 | 141° | 33km/h | 7689m | 2.3m/s | 0°C | 0% | 0hPa | 0V | 00:00:00 | 00:00:00 | 00:00:00 | |
| EA3GEO | 2026-09-05 11:21:01 | 41.34385 | 2.16419 | 132° | 29km/h | 7668m | 7.8m/s | 0°C | 0% | 0hPa | 0V | 00:00:00 | 00:00:00 | 00:00:00 | |
| EA3IBE | 2026-09-05 11:20:58 | 41.34404 | 2.16400 | 148° | 37km/h | 7642m | 7.5m/s | 0°C | 0% | 0hPa | 0V | 00:00:00 | 00:00:00 | 00:00:00 | |
| EA3GEO | 2026-09-05 11:20:55 | 41.34423 | 2.16380 | 142° | 33km/h | 7623m | 2.1m/s | 0°C | 0% | 0hPa | 0V | 00:00:00 | 00:00:00 | 00:00:00 | |
| EA3IBE | 2026-09-05 11:20:52 | 41.34440 | 2.16356 | 129° | 31km/h | 7608m | 6.1m/s | 0°C | 0% | 0hPa | 0V | 00:00:00 | 00:00:00 | 00:00:00 | |
| EA3GEO | 2026-09-05 11:20:49 | 41.34456 | 2.16332 | 140° | 31km/h | 7586m | 5.9m/s | 0°C | 0% | 0hPa | 0V | 00:00:00 | 00:00:00 | 00:00:00 | |
| EA3IBE | 2026-09-05 11:20:47 | 41.34473 | 2.16314 | 142° | 26km/h | 7568m | 2.0m/s | 0°C | 0% | 0hPa | 0V | 00:00:00 | 00:00:00 | 00:00:00 | |
| EA3GEO | 2026-09-05 11:20:43 | 41.34489 | 2.16301 | 150° | 26km/h | 7557m | 2.7m/s | 0°C | 0% | 0hPa | 0V | 00:00:00 | 00:00:00 | 00:00:00 | |
| EA3IBE | 2026-09-05 11:20:39 | 41.34510 | 2.16276 | 134° | 35km/h | 7533m | 8.2m/s | 0°C | 0% | 0hPa | 0V | 00:00:00 | 00:00:00 | 00:00:00 | |
| EA3GEO | 2026-09-05 11:20:38 | 41.34516 | 2.16268 | 138° | 38km/h | 7525m | 6.5m/s | 0°C | 0% | 0hPa | 0V | 00:00:00 | 00:00:00 | 00:00:00 | |
| EA3IBE | 2026-09-05 11:20:33 | 41.34554 | 2.16237 | 136° | 29km/h | 7492m | 5.1m/s | 0°C | 0% | 0hPa | 0V | 00:00:00 | 00:00:00 | 00:00:00 | |
| EA3GEO | 2026-09-05 11:20:32 | 41.34559 | 2.16229 | 133° | 33km/h | 7487m | 2.3m/s | 0°C | 0% | 0hPa | 0V | 00:00:00 | 00:00:00 | 00:00:00 | |
| EA3IBE | 2026-09-05 11:20:27 | 41.34586 | 2.16200 | 159° | 26km/h | 7462m | 7.7m/s | 0°C | 0% | 0hPa | 0V | 00:00:00 | 00:00:00 | 00:00:00 | |
| EA3GEO | 2026-09-05 11:20:26 | 41.34591 | 2.16198 | 163° | 24km/h | 7454m | 7.3m/s | 0°C | 0% | 0hPa | 0V | 00:00:00 | 00:00:00 | 00:00:00 | |
| EA3IBE | 2026-09-05 11:20:21 | 41.34630 | 2.16168 | 158° | 33km/h | 7428m | 3.2m/s | 0°C | 0% | 0hPa | 0V | 00:00:00 | 00:00:00 | 00:00:00 | |
| EA3GEO | 2026-09-05 11:20:20 | 41.34639 | 2.16163 | 153° | 38km/h | 7423m | 4.1m/s | 0°C | 0% | 0hPa | 0V | 00:00:00 | 00:00:00 | 00:00:00 | |
| EA3IBE | 2026-09-05 11:20:15 | 41.34682 | 2.16130 | 130° | 31km/h | 7398m | 8.4m/s | 0°C | 0% | 0hPa | 0V | 00:00:00 | 00:00:00 | 00:00:00 | |
| EA3GEO | 2026-09-05 11:20:14 | 41.34687 | 2.16123 | 141° | 31km/h | 7390m | 7.8m/s | 0°C | 0% | 0hPa | 0V | 00:00:00 | 00:00:00 | 00:00:00 | |
| EA3IBE | 2026-09-05 11:20:08 | 41.34740 | 2.16102 | 170° | 40km/h | 7355m | 5.8m/s | 0°C | 0% | 0hPa | 0V | 00:00:00 | 00:00:00 | 00:00:00 | |
| EA3GEO | 2026-09-05 11:20:04 | 41.34772 | 2.16094 | 164° | 26km/h | 7321m | 6.1m/s | 0°C | 0% | 0hPa | 0V | 00:00:00 | 00:00:00 | 00:00:00 | |
| EA3IBE | 2026-09-05 11:20:03 | 41.34779 | 2.16090 | 150° | 31km/h | 7314m | 6.5m/s | 0°C | 0% | 0hPa | 0V | 00:00:00 | 00:00:00 | 00:00:00 | |
| EA3GEO | 2026-09-05 11:19:58 | 41.34814 | 2.16066 | 165° | 31km/h | 7276m | 5.1m/s | 0°C | 0% | 0hPa | 0V | 00:00:00 | 00:00:00 | 00:00:00 | |
| EA3IBE | 2026-09-05 11:19:55 | 41.34834 | 2.16060 | 167° | 29km/h | 7262m | 4.5m/s | 0°C | 0% | 0hPa | 0V | 00:00:00 | 00:00:00 | 00:00:00 | |
| EA3GEO | 2026-09-05 11:19:53 | 41.34847 | 2.16052 | 151° | 35km/h | 7251m | 6.4m/s | 0°C | 0% | 0hPa | 0V | 00:00:00 | 00:00:00 | 00:00:00 | |
| EA3IBE | 2026-09-05 11:19:47 | 41.34877 | 2.16022 | 147° | 27km/h | 7213m | 4.3m/s | 0°C | 0% | 0hPa | 0V | 00:00:00 | 00:00:00 | 00:00:00 | |
| EA3GEO | 2026-09-05 11:19:46 | 41.34883 | 2.16018 | 159° | 31km/h | 7208m | 3.3m/s | 0°C | 0% | 0hPa | 0V | 00:00:00 | 00:00:00 | 00:00:00 | |
| EA3GEO | 2026-09-05 11:19:41 | 41.34917 | 2.15994 | 123° | 31km/h | 7174m | 6.8m/s | 0°C | 0% | 0hPa | 0V | 00:00:00 | 00:00:00 | 00:00:00 | |
| EA3IBE | 2026-09-05 11:19:39 | 41.34923 | 2.15976 | 105° | 26km/h | 7163m | 1.7m/s | 0°C | 0% | 0hPa | 0V | 00:00:00 | 00:00:00 | 00:00:00 | |
| EA3GEO | 2026-09-05 11:19:36 | 41.34925 | 2.15962 | 125° | 11km/h | 7151m | 5.8m/s | 0°C | 0% | 0hPa | 0V | 00:00:00 | 00:00:00 | 00:00:00 | |
| EA3IBE | 2026-09-05 11:19:33 | 41.34939 | 2.15937 | 129° | 42km/h | 7127m | 5.8m/s | 0°C | 0% | 0hPa | 0V | 00:00:00 | 00:00:00 | 00:00:00 | |
| EA3GEO | 2026-09-05 11:19:31 | 41.34948 | 2.15916 | 128° | 24km/h | 7110m | 7.3m/s | 0°C | 0% | 0hPa | 0V | 00:00:00 | 00:00:00 | 00:00:00 | |
| EA3IBE | 2026-09-05 11:19:25 | 41.34976 | 2.15884 | 128° | 46km/h | 7073m | 4.2m/s | 0°C | 0% | 0hPa | 0V | 00:00:00 | 00:00:00 | 00:00:00 | |
| EA3GEO | 2026-09-05 11:19:20 | 41.35015 | 2.15833 | 131° | 26km/h | 7046m | 7.1m/s | 0°C | 0% | 0hPa | 0V | 00:00:00 | 00:00:00 | 00:00:00 | |
| EA3IBE | 2026-09-05 11:19:15 | 41.35040 | 2.15806 | 133° | 42km/h | 7008m | 3.3m/s | 0°C | 0% | 0hPa | 0V | 00:00:00 | 00:00:00 | 00:00:00 | |
| EA3GEO | 2026-09-05 11:19:14 | 41.35047 | 2.15795 | 133° | 44km/h | 7003m | 2.5m/s | 0°C | 0% | 0hPa | 0V | 00:00:00 | 00:00:00 | 00:00:00 | |
| EA3GEO | 2026-09-05 11:19:09 | 41.35073 | 2.15744 | 124° | 35km/h | 6975m | 6.9m/s | 0°C | 0% | 0hPa | 0V | 00:00:00 | 00:00:00 | 00:00:00 | |
| EA3GEO | 2026-09-05 11:19:03 | 41.35104 | 2.15699 | 124° | 33km/h | 6934m | 2.9m/s | 0°C | 0% | 0hPa | 0V | 00:00:00 | 00:00:00 | 00:00:00 | |
| EA3IBE | 2026-09-05 11:19:00 | 41.35114 | 2.15670 | 110° | 31km/h | 6918m | 7.4m/s | 0°C | 0% | 0hPa | 0V | 00:00:00 | 00:00:00 | 00:00:00 | |
| EA3GEO | 2026-09-05 11:18:57 | 41.35126 | 2.15642 | 128° | 29km/h | 6897m | 3.8m/s | 0°C | 0% | 0hPa | 0V | 00:00:00 | 00:00:00 | 00:00:00 | |
| EA3IBE | 2026-09-05 11:18:54 | 41.35136 | 2.15620 | 126° | 26km/h | 6878m | 8.1m/s | 0°C | 0% | 0hPa | 0V | 00:00:00 | 00:00:00 | 00:00:00 | |
| EA3GEO | 2026-09-05 11:18:51 | 41.35150 | 2.15596 | 146° | 33km/h | 6853m | 6.0m/s | 0°C | 0% | 0hPa | 0V | 00:00:00 | 00:00:00 | 00:00:00 | |
| EA3IBE | 2026-09-05 11:18:48 | 41.35168 | 2.15571 | 125° | 35km/h | 6831m | 3.3m/s | 0°C | 0% | 0hPa | 0V | 00:00:00 | 00:00:00 | 00:00:00 | |
| EA3GEO | 2026-09-05 11:18:46 | 41.35177 | 2.15553 | 121° | 29km/h | 6821m | 4.3m/s | 0°C | 0% | 0hPa | 0V | 00:00:00 | 00:00:00 | 00:00:00 | |
| EA3IBE | 2026-09-05 11:18:41 | 41.35192 | 2.15504 | 120° | 35km/h | 6793m | 3.8m/s | 0°C | 0% | 0hPa | 0V | 00:00:00 | 00:00:00 | 00:00:00 | |
| EA3GEO | 2026-09-05 11:18:40 | 41.35196 | 2.15494 | 118° | 33km/h | 6788m | 6.3m/s | 0°C | 0% | 0hPa | 0V | 00:00:00 | 00:00:00 | 00:00:00 | |
| EA3GEO | 2026-09-05 11:18:36 | 41.35208 | 2.15449 | 124° | 31km/h | 6751m | 3.8m/s | 0°C | 0% | 0hPa | 0V | 00:00:00 | 00:00:00 | 00:00:00 | |
| EA3GEO | 2026-09-05 11:18:31 | 41.35232 | 2.15409 | 122° | 18km/h | 6721m | 5.3m/s | 0°C | 0% | 0hPa | 0V | 00:00:00 | 00:00:00 | 00:00:00 | |
| EA3GEO | 2026-09-05 11:18:25 | 41.35252 | 2.15382 | 126° | 27km/h | 6693m | 4.5m/s | 0°C | 0% | 0hPa | 0V | 00:00:00 | 00:00:00 | 00:00:00 | |
| EA3IBE | 2026-09-05 11:18:24 | 41.35256 | 2.15375 | 127° | 26km/h | 6687m | 5.4m/s | 0°C | 0% | 0hPa | 0V | 00:00:00 | 00:00:00 | 00:00:00 | |
| EA3IBE | 2026-09-05 11:18:19 | 41.35273 | 2.15345 | 119° | 33km/h | 6654m | 3.8m/s | 0°C | 0% | 0hPa | 0V | 00:00:00 | 00:00:00 | 00:00:00 | |
| EA3GEO | 2026-09-05 11:18:14 | 41.35290 | 2.15297 | 102° | 26km/h | 6618m | 5.2m/s | 0°C | 0% | 0hPa | 0V | 00:00:00 | 00:00:00 | 00:00:00 | |
| EA3IBE | 2026-09-05 11:18:13 | 41.35292 | 2.15288 | 96° | 29km/h | 6612m | 4.2m/s | 0°C | 0% | 0hPa | 0V | 00:00:00 | 00:00:00 | 00:00:00 | |
| EA3GEO | 2026-09-05 11:18:09 | 41.35303 | 2.15247 | 114° | 31km/h | 6590m | 6.1m/s | 0°C | 0% | 0hPa | 0V | 00:00:00 | 00:00:00 | 00:00:00 | |
| EA3IBE | 2026-09-05 11:18:07 | 41.35307 | 2.15230 | 101° | 24km/h | 6575m | 7.1m/s | 0°C | 0% | 0hPa | 0V | 00:00:00 | 00:00:00 | 00:00:00 | |
| EA3GEO | 2026-09-05 11:18:04 | 41.35310 | 2.15202 | 104° | 31km/h | 6554m | 7.0m/s | 0°C | 0% | 0hPa | 0V | 00:00:00 | 00:00:00 | 00:00:00 | |
| EA3IBE | 2026-09-05 11:17:58 | 41.35318 | 2.15158 | 106° | 18km/h | 6511m | 6.1m/s | 0°C | 0% | 0hPa | 0V | 00:00:00 | 00:00:00 | 00:00:00 | |
| EA3IBE | 2026-09-05 11:17:52 | 41.35337 | 2.15123 | 108° | 27km/h | 6472m | 4.4m/s | 0°C | 0% | 0hPa | 0V | 00:00:00 | 00:00:00 | 00:00:00 | |
| EA3GEO | 2026-09-05 11:17:45 | 41.35358 | 2.15060 | 114° | 33km/h | 6425m | 5.2m/s | 0°C | 0% | 0hPa | 0V | 00:00:00 | 00:00:00 | 00:00:00 | |
| EA3IBE | 2026-09-05 11:17:44 | 41.35360 | 2.15051 | 112° | 27km/h | 6420m | 3.3m/s | 0°C | 0% | 0hPa | 0V | 00:00:00 | 00:00:00 | 00:00:00 | |
| EA3GEO | 2026-09-05 11:17:40 | 41.35369 | 2.15018 | 117° | 27km/h | 6393m | 6.9m/s | 0°C | 0% | 0hPa | 0V | 00:00:00 | 00:00:00 | 00:00:00 | |
| EA3IBE | 2026-09-05 11:17:39 | 41.35371 | 2.15008 | 104° | 29km/h | 6385m | 7.4m/s | 0°C | 0% | 0hPa | 0V | 00:00:00 | 00:00:00 | 00:00:00 | |
| EA3GEO | 2026-09-05 11:17:35 | 41.35380 | 2.14970 | 115° | 35km/h | 6359m | 2.9m/s | 0°C | 0% | 0hPa | 0V | 00:00:00 | 00:00:00 | 00:00:00 | |
| EA3IBE | 2026-09-05 11:17:34 | 41.35384 | 2.14960 | 115° | 31km/h | 6354m | 3.8m/s | 0°C | 0% | 0hPa | 0V | 00:00:00 | 00:00:00 | 00:00:00 | |
| EA3IBE | 2026-09-05 11:17:28 | 41.35391 | 2.14911 | 100° | 35km/h | 6315m | 2.6m/s | 0°C | 0% | 0hPa | 0V | 00:00:00 | 00:00:00 | 00:00:00 | |
| EA3IBE | 2026-09-05 11:17:22 | 41.35404 | 2.14845 | 94° | 35km/h | 6277m | 3.6m/s | 0°C | 0% | 0hPa | 0V | 00:00:00 | 00:00:00 | 00:00:00 | |
| EA3IBE | 2026-09-05 11:17:16 | 41.35403 | 2.14778 | 106° | 31km/h | 6240m | 4.4m/s | 0°C | 0% | 0hPa | 0V | 00:00:00 | 00:00:00 | 00:00:00 | |
| EA3GEO | 2026-09-05 11:17:14 | 41.35406 | 2.14759 | 90° | 26km/h | 6227m | 8.0m/s | 0°C | 0% | 0hPa | 0V | 00:00:00 | 00:00:00 | 00:00:00 | |
| EA3IBE | 2026-09-05 11:17:10 | 41.35401 | 2.14718 | 82° | 37km/h | 6197m | 3.5m/s | 0°C | 0% | 0hPa | 0V | 00:00:00 | 00:00:00 | 00:00:00 | |
| EA3GEO | 2026-09-05 11:17:08 | 41.35398 | 2.14692 | 88° | 38km/h | 6187m | 6.5m/s | 0°C | 0% | 0hPa | 0V | 00:00:00 | 00:00:00 | 00:00:00 | |
| EA3IBE | 2026-09-05 11:17:04 | 41.35396 | 2.14653 | 90° | 33km/h | 6154m | 6.0m/s | 0°C | 0% | 0hPa | 0V | 00:00:00 | 00:00:00 | 00:00:00 | |
| EA3GEO | 2026-09-05 11:17:02 | 41.35397 | 2.14626 | 91° | 42km/h | 6145m | 2.1m/s | 0°C | 0% | 0hPa | 0V | 00:00:00 | 00:00:00 | 00:00:00 | |
| EA3IBE | 2026-09-05 11:16:58 | 41.35396 | 2.14572 | 90° | 40km/h | 6118m | 4.4m/s | 0°C | 0% | 0hPa | 0V | 00:00:00 | 00:00:00 | 00:00:00 | |
| EA3GEO | 2026-09-05 11:16:56 | 41.35396 | 2.14545 | 94° | 40km/h | 6107m | 6.6m/s | 0°C | 0% | 0hPa | 0V | 00:00:00 | 00:00:00 | 00:00:00 | |
| EA3IBE | 2026-09-05 11:16:52 | 41.35390 | 2.14497 | 76° | 33km/h | 6080m | 3.2m/s | 0°C | 0% | 0hPa | 0V | 00:00:00 | 00:00:00 | 00:00:00 | |
| EA3GEO | 2026-09-05 11:16:51 | 41.35388 | 2.14486 | 82° | 35km/h | 6074m | 5.5m/s | 0°C | 0% | 0hPa | 0V | 00:00:00 | 00:00:00 | 00:00:00 | |
| EA3GEO | 2026-09-05 11:16:45 | 41.35375 | 2.14407 | 88° | 37km/h | 6035m | 3.1m/s | 0°C | 0% | 0hPa | 0V | 00:00:00 | 00:00:00 | 00:00:00 | |
| EA3IBE | 2026-09-05 11:16:40 | 41.35375 | 2.14352 | 76° | 33km/h | 6002m | 2.3m/s | 0°C | 0% | 0hPa | 0V | 00:00:00 | 00:00:00 | 00:00:00 | |
| EA3GEO | 2026-09-05 11:16:38 | 41.35373 | 2.14330 | 85° | 33km/h | 5991m | 9.0m/s | 0°C | 0% | 0hPa | 0V | 00:00:00 | 00:00:00 | 00:00:00 | |
| EA3IBE | 2026-09-05 11:16:32 | 41.35369 | 2.14263 | 82° | 31km/h | 5951m | 8.5m/s | 0°C | 0% | 0hPa | 0V | 00:00:00 | 00:00:00 | 00:00:00 | |
| EA3IBE | 2026-09-05 11:16:27 | 41.35357 | 2.14213 | 82° | 33km/h | 5913m | 4.6m/s | 0°C | 0% | 0hPa | 0V | 00:00:00 | 00:00:00 | 00:00:00 | |
| EA3GEO | 2026-09-05 11:16:26 | 41.35356 | 2.14201 | 91° | 38km/h | 5907m | 3.3m/s | 0°C | 0% | 0hPa | 0V | 00:00:00 | 00:00:00 | 00:00:00 | |
| EA3GEO | 2026-09-05 11:16:21 | 41.35363 | 2.14143 | 95° | 20km/h | 5873m | 3.5m/s | 0°C | 0% | 0hPa | 0V | 00:00:00 | 00:00:00 | 00:00:00 | |
| EA3IBE | 2026-09-05 11:16:18 | 41.35364 | 2.14126 | 105° | 22km/h | 5861m | 2.7m/s | 0°C | 0% | 0hPa | 0V | 00:00:00 | 00:00:00 | 00:00:00 | |
| EA3GEO | 2026-09-05 11:16:15 | 41.35363 | 2.14093 | 67° | 38km/h | 5840m | 6.8m/s | 0°C | 0% | 0hPa | 0V | 00:00:00 | 00:00:00 | 00:00:00 | |
| EA3GEO | 2026-09-05 11:16:10 | 41.35362 | 2.14053 | 123° | 33km/h | 5804m | 2.8m/s | 0°C | 0% | 0hPa | 0V | 00:00:00 | 00:00:00 | 00:00:00 | |
| EA3IBE | 2026-09-05 11:16:08 | 41.35371 | 2.14034 | 118° | 31km/h | 5790m | 6.3m/s | 0°C | 0% | 0hPa | 0V | 00:00:00 | 00:00:00 | 00:00:00 | |
| EA3GEO | 2026-09-05 11:16:04 | 41.35370 | 2.13991 | 77° | 35km/h | 5759m | 4.9m/s | 0°C | 0% | 0hPa | 0V | 00:00:00 | 00:00:00 | 00:00:00 | |
| EA3IBE | 2026-09-05 11:16:00 | 41.35367 | 2.13950 | 99° | 26km/h | 5731m | 4.3m/s | 0°C | 0% | 0hPa | 0V | 00:00:00 | 00:00:00 | 00:00:00 | |
| EA3GEO | 2026-09-05 11:15:59 | 41.35368 | 2.13941 | 100° | 27km/h | 5725m | 3.8m/s | 0°C | 0% | 0hPa | 0V | 00:00:00 | 00:00:00 | 00:00:00 | |
| EA3GEO | 2026-09-05 11:15:53 | 41.35367 | 2.13892 | 106° | 27km/h | 5683m | 4.8m/s | 0°C | 0% | 0hPa | 0V | 00:00:00 | 00:00:00 | 00:00:00 | |
| EA3IBE | 2026-09-05 11:15:52 | 41.35369 | 2.13883 | 115° | 26km/h | 5677m | 6.6m/s | 0°C | 0% | 0hPa | 0V | 00:00:00 | 00:00:00 | 00:00:00 | |
| EA3GEO | 2026-09-05 11:15:47 | 41.35373 | 2.13843 | 90° | 24km/h | 5641m | 4.6m/s | 0°C | 0% | 0hPa | 0V | 00:00:00 | 00:00:00 | 00:00:00 | |
| EA3IBE | 2026-09-05 11:15:46 | 41.35373 | 2.13834 | 105° | 26km/h | 5636m | 2.4m/s | 0°C | 0% | 0hPa | 0V | 00:00:00 | 00:00:00 | 00:00:00 | |
| EA3GEO | 2026-09-05 11:15:42 | 41.35380 | 2.13795 | 85° | 33km/h | 5603m | 7.0m/s | 0°C | 0% | 0hPa | 0V | 00:00:00 | 00:00:00 | 00:00:00 | |
| EA3IBE | 2026-09-05 11:15:40 | 41.35375 | 2.13777 | 56° | 26km/h | 5589m | 4.0m/s | 0°C | 0% | 0hPa | 0V | 00:00:00 | 00:00:00 | 00:00:00 | |
| EA3GEO | 2026-09-05 11:15:36 | 41.35370 | 2.13748 | 110° | 27km/h | 5564m | 7.2m/s | 0°C | 0% | 0hPa | 0V | 00:00:00 | 00:00:00 | 00:00:00 | |
| EA3GEO | 2026-09-05 11:15:30 | 41.35380 | 2.13694 | 125° | 20km/h | 5516m | 5.2m/s | 0°C | 0% | 0hPa | 0V | 00:00:00 | 00:00:00 | 00:00:00 | |
| EA3IBE | 2026-09-05 11:15:29 | 41.35384 | 2.13687 | 129° | 27km/h | 5509m | 6.1m/s | 0°C | 0% | 0hPa | 0V | 00:00:00 | 00:00:00 | 00:00:00 | |
| EA3GEO | 2026-09-05 11:15:25 | 41.35411 | 2.13647 | 124° | 44km/h | 5491m | 2.8m/s | 0°C | 0% | 0hPa | 0V | 00:00:00 | 00:00:00 | 00:00:00 | |
| EA3IBE | 2026-09-05 11:15:23 | 41.35419 | 2.13622 | 107° | 33km/h | 5480m | 4.8m/s | 0°C | 0% | 0hPa | 0V | 00:00:00 | 00:00:00 | 00:00:00 | |
| EA3GEO | 2026-09-05 11:15:20 | 41.35430 | 2.13593 | 147° | 29km/h | 5449m | 3.8m/s | 0°C | 0% | 0hPa | 0V | 00:00:00 | 00:00:00 | 00:00:00 | |
| EA3IBE | 2026-09-05 11:15:17 | 41.35443 | 2.13581 | 151° | 35km/h | 5435m | 5.8m/s | 0°C | 0% | 0hPa | 0V | 00:00:00 | 00:00:00 | 00:00:00 | |
| EA3GEO | 2026-09-05 11:15:14 | 41.35458 | 2.13560 | 124° | 33km/h | 5413m | 7.2m/s | 0°C | 0% | 0hPa | 0V | 00:00:00 | 00:00:00 | 00:00:00 | |
| EA3IBE | 2026-09-05 11:15:12 | 41.35469 | 2.13537 | 122° | 42km/h | 5400m | 1.9m/s | 0°C | 0% | 0hPa | 0V | 00:00:00 | 00:00:00 | 00:00:00 | |
| EA3GEO | 2026-09-05 11:15:09 | 41.35486 | 2.13509 | 140° | 31km/h | 5384m | 7.3m/s | 0°C | 0% | 0hPa | 0V | 00:00:00 | 00:00:00 | 00:00:00 | |
| EA3IBE | 2026-09-05 11:15:03 | 41.35514 | 2.13478 | 128° | 18km/h | 5346m | 3.1m/s | 0°C | 0% | 0hPa | 0V | 00:00:00 | 00:00:00 | 00:00:00 | |
| EA3GEO | 2026-09-05 11:14:57 | 41.35537 | 2.13464 | 150° | 27km/h | 5311m | 6.0m/s | 0°C | 0% | 0hPa | 0V | 00:00:00 | 00:00:00 | 00:00:00 | |
| EA3IBE | 2026-09-05 11:14:56 | 41.35542 | 2.13459 | 143° | 26km/h | 5305m | 4.7m/s | 0°C | 0% | 0hPa | 0V | 00:00:00 | 00:00:00 | 00:00:00 | |
| EA3GEO | 2026-09-05 11:14:51 | 41.35567 | 2.13446 | 168° | 33km/h | 5269m | 7.3m/s | 0°C | 0% | 0hPa | 0V | 00:00:00 | 00:00:00 | 00:00:00 | |
| EA3IBE | 2026-09-05 11:14:48 | 41.35590 | 2.13432 | 142° | 33km/h | 5249m | 7.8m/s | 0°C | 0% | 0hPa | 0V | 00:00:00 | 00:00:00 | 00:00:00 | |
| EA3GEO | 2026-09-05 11:14:46 | 41.35601 | 2.13419 | 138° | 24km/h | 5235m | 4.9m/s | 0°C | 0% | 0hPa | 0V | 00:00:00 | 00:00:00 | 00:00:00 | |
| EA3IBE | 2026-09-05 11:14:41 | 41.35618 | 2.13404 | 137° | 18km/h | 5217m | 2.4m/s | 0°C | 0% | 0hPa | 0V | 00:00:00 | 00:00:00 | 00:00:00 | |
| EA3GEO | 2026-09-05 11:14:40 | 41.35621 | 2.13400 | 132° | 22km/h | 5211m | 7.7m/s | 0°C | 0% | 0hPa | 0V | 00:00:00 | 00:00:00 | 00:00:00 | |
| EA3IBE | 2026-09-05 11:14:34 | 41.35649 | 2.13368 | 159° | 26km/h | 5169m | 8.3m/s | 0°C | 0% | 0hPa | 0V | 00:00:00 | 00:00:00 | 00:00:00 | |
| EA3GEO | 2026-09-05 11:14:29 | 41.35679 | 2.13341 | 141° | 33km/h | 5138m | 5.0m/s | 0°C | 0% | 0hPa | 0V | 00:00:00 | 00:00:00 | 00:00:00 | |
| EA3IBE | 2026-09-05 11:14:26 | 41.35697 | 2.13325 | 138° | 20km/h | 5117m | 5.9m/s | 0°C | 0% | 0hPa | 0V | 00:00:00 | 00:00:00 | 00:00:00 | |
| EA3GEO | 2026-09-05 11:14:24 | 41.35705 | 2.13316 | 141° | 27km/h | 5106m | 3.4m/s | 0°C | 0% | 0hPa | 0V | 00:00:00 | 00:00:00 | 00:00:00 | |
| EA3GEO | 2026-09-05 11:14:19 | 41.35747 | 2.13284 | 156° | 35km/h | 5077m | 4.7m/s | 0°C | 0% | 0hPa | 0V | 00:00:00 | 00:00:00 | 00:00:00 | |
| EA3GEO | 2026-09-05 11:14:13 | 41.35792 | 2.13249 | 160° | 44km/h | 5038m | 2.8m/s | 0°C | 0% | 0hPa | 0V | 00:00:00 | 00:00:00 | 00:00:00 | |
| EA3IBE | 2026-09-05 11:14:11 | 41.35811 | 2.13238 | 150° | 37km/h | 5028m | 5.4m/s | 0°C | 0% | 0hPa | 0V | 00:00:00 | 00:00:00 | 00:00:00 | |
| EA3GEO | 2026-09-05 11:14:08 | 41.35832 | 2.13218 | 146° | 29km/h | 5009m | 5.7m/s | 0°C | 0% | 0hPa | 0V | 00:00:00 | 00:00:00 | 00:00:00 | |
| EA3GEO | 2026-09-05 11:14:03 | 41.35867 | 2.13215 | 185° | 22km/h | 4989m | 2.3m/s | 0°C | 0% | 0hPa | 0V | 00:00:00 | 00:00:00 | 00:00:00 | |
| EA3IBE | 2026-09-05 11:14:02 | 41.35872 | 2.13215 | 169° | 20km/h | 4984m | 3.2m/s | 0°C | 0% | 0hPa | 0V | 00:00:00 | 00:00:00 | 00:00:00 | |
| EA3GEO | 2026-09-05 11:13:57 | 41.35906 | 2.13177 | 129° | 27km/h | 4951m | 3.7m/s | 0°C | 0% | 0hPa | 0V | 00:00:00 | 00:00:00 | 00:00:00 | |
| EA3GEO | 2026-09-05 11:13:52 | 41.35932 | 2.13151 | 166° | 37km/h | 4916m | 6.3m/s | 0°C | 0% | 0hPa | 0V | 00:00:00 | 00:00:00 | 00:00:00 | |
| EA3GEO | 2026-09-05 11:13:46 | 41.35968 | 2.13114 | 142° | 37km/h | 4873m | 4.9m/s | 0°C | 0% | 0hPa | 0V | 00:00:00 | 00:00:00 | 00:00:00 | |
| EA3GEO | 2026-09-05 11:13:41 | 41.36004 | 2.13078 | 136° | 29km/h | 4844m | 3.5m/s | 0°C | 0% | 0hPa | 0V | 00:00:00 | 00:00:00 | 00:00:00 | |
| EA3GEO | 2026-09-05 11:13:36 | 41.36043 | 2.13068 | 170° | 26km/h | 4817m | 5.7m/s | 0°C | 0% | 0hPa | 0V | 00:00:00 | 00:00:00 | 00:00:00 | |
| EA3GEO | 2026-09-05 11:13:29 | 41.36068 | 2.13029 | 123° | 22km/h | 4775m | 2.9m/s | 0°C | 0% | 0hPa | 0V | 00:00:00 | 00:00:00 | 00:00:00 | |
| EA3GEO | 2026-09-05 11:13:23 | 41.36092 | 2.13014 | 168° | 24km/h | 4734m | 5.9m/s | 0°C | 0% | 0hPa | 0V | 00:00:00 | 00:00:00 | 00:00:00 | |
| EA3IBE | 2026-09-05 11:13:19 | 41.36111 | 2.12991 | 137° | 24km/h | 4705m | 4.4m/s | 0°C | 0% | 0hPa | 0V | 00:00:00 | 00:00:00 | 00:00:00 | |
| EA3GEO | 2026-09-05 11:13:18 | 41.36115 | 2.12986 | 135° | 16km/h | 4700m | 2.0m/s | 0°C | 0% | 0hPa | 0V | 00:00:00 | 00:00:00 | 00:00:00 | |
| EA3GEO | 2026-09-05 11:13:12 | 41.36130 | 2.12952 | 151° | 24km/h | 4667m | 4.3m/s | 0°C | 0% | 0hPa | 0V | 00:00:00 | 00:00:00 | 00:00:00 | |
| EA3GEO | 2026-09-05 11:13:06 | 41.36171 | 2.12938 | 161° | 16km/h | 4628m | 3.8m/s | 0°C | 0% | 0hPa | 0V | 00:00:00 | 00:00:00 | 00:00:00 | |
| EA3GEO | 2026-09-05 11:13:01 | 41.36195 | 2.12926 | 162° | 29km/h | 4600m | 6.9m/s | 0°C | 0% | 0hPa | 0V | 00:00:00 | 00:00:00 | 00:00:00 | |
| EA3GEO | 2026-09-05 11:12:55 | 41.36227 | 2.12910 | 167° | 20km/h | 4562m | 7.6m/s | 0°C | 0% | 0hPa | 0V | 00:00:00 | 00:00:00 | 00:00:00 | |
| EA3GEO | 2026-09-05 11:12:49 | 41.36263 | 2.12899 | 160° | 24km/h | 4523m | 7.9m/s | 0°C | 0% | 0hPa | 0V | 00:00:00 | 00:00:00 | 00:00:00 | |
| EA3GEO | 2026-09-05 11:12:43 | 41.36299 | 2.12869 | 168° | 31km/h | 4488m | 2.5m/s | 0°C | 0% | 0hPa | 0V | 00:00:00 | 00:00:00 | 00:00:00 | |
| EA3IBE | 2026-09-05 11:12:42 | 41.36306 | 2.12867 | 171° | 29km/h | 4484m | 1.1m/s | 0°C | 0% | 0hPa | 0V | 00:00:00 | 00:00:00 | 00:00:00 | |
| EA3GEO | 2026-09-05 11:12:38 | 41.36335 | 2.12842 | 134° | 38km/h | 4468m | 1.8m/s | 0°C | 0% | 0hPa | 0V | 00:00:00 | 00:00:00 | 00:00:00 | |
| EA3IBE | 2026-09-05 11:12:36 | 41.36351 | 2.12828 | 159° | 38km/h | 4461m | 3.7m/s | 0°C | 0% | 0hPa | 0V | 00:00:00 | 00:00:00 | 00:00:00 | |
| EA3GEO | 2026-09-05 11:12:32 | 41.36385 | 2.12819 | 164° | 37km/h | 4436m | 4.3m/s | 0°C | 0% | 0hPa | 0V | 00:00:00 | 00:00:00 | 00:00:00 | |
| EA3IBE | 2026-09-05 11:12:27 | 41.36427 | 2.12812 | 178° | 29km/h | 4411m | 3.1m/s | 0°C | 0% | 0hPa | 0V | 00:00:00 | 00:00:00 | 00:00:00 | |
| EA3GEO | 2026-09-05 11:12:26 | 41.36435 | 2.12812 | 175° | 35km/h | 4405m | 7.1m/s | 0°C | 0% | 0hPa | 0V | 00:00:00 | 00:00:00 | 00:00:00 | |
| EA3GEO | 2026-09-05 11:12:20 | 41.36473 | 2.12781 | 131° | 29km/h | 4367m | -0.6m/s | 0°C | 0% | 0hPa | 0V | 00:00:00 | 00:00:00 | 00:00:00 | |
| EA3IBE | 2026-09-05 11:12:18 | 41.36483 | 2.12770 | 157° | 22km/h | 4361m | 3.5m/s | 0°C | 0% | 0hPa | 0V | 00:00:00 | 00:00:00 | 00:00:00 | |
| EA3GEO | 2026-09-05 11:12:15 | 41.36506 | 2.12765 | 167° | 40km/h | 4344m | 6.0m/s | 0°C | 0% | 0hPa | 0V | 00:00:00 | 00:00:00 | 00:00:00 | |
| EA3IBE | 2026-09-05 11:12:12 | 41.36534 | 2.12756 | 160° | 37km/h | 4324m | 3.2m/s | 0°C | 0% | 0hPa | 0V | 00:00:00 | 00:00:00 | 00:00:00 | |
| EA3GEO | 2026-09-05 11:12:09 | 41.36561 | 2.12737 | 148° | 46km/h | 4304m | 7.4m/s | 0°C | 0% | 0hPa | 0V | 00:00:00 | 00:00:00 | 00:00:00 | |
| EA3GEO | 2026-09-05 11:12:04 | 41.36605 | 2.12726 | 172° | 26km/h | 4271m | 2.4m/s | 0°C | 0% | 0hPa | 0V | 00:00:00 | 00:00:00 | 00:00:00 | |
| EA3GEO | 2026-09-05 11:11:58 | 41.36648 | 2.12705 | 173° | 37km/h | 4234m | 7.7m/s | 0°C | 0% | 0hPa | 0V | 00:00:00 | 00:00:00 | 00:00:00 | |
| EA3IBE | 2026-09-05 11:11:57 | 41.36657 | 2.12704 | 173° | 35km/h | 4227m | 3.9m/s | 0°C | 0% | 0hPa | 0V | 00:00:00 | 00:00:00 | 00:00:00 | |
| EA3IBE | 2026-09-05 11:11:52 | 41.36700 | 2.12703 | 173° | 35km/h | 4203m | 3.7m/s | 0°C | 0% | 0hPa | 0V | 00:00:00 | 00:00:00 | 00:00:00 | |
| EA3GEO | 2026-09-05 11:11:46 | 41.36761 | 2.12668 | 160° | 35km/h | 4164m | 6.2m/s | 0°C | 0% | 0hPa | 0V | 00:00:00 | 00:00:00 | 00:00:00 | |
| EA3IBE | 2026-09-05 11:11:45 | 41.36769 | 2.12665 | 169° | 38km/h | 4156m | 6.2m/s | 0°C | 0% | 0hPa | 0V | 00:00:00 | 00:00:00 | 00:00:00 | |
| EA3GEO | 2026-09-05 11:11:40 | 41.36810 | 2.12656 | 151° | 38km/h | 4127m | 2.1m/s | 0°C | 0% | 0hPa | 0V | 00:00:00 | 00:00:00 | 00:00:00 | |
| EA3IBE | 2026-09-05 11:11:39 | 41.36819 | 2.12649 | 148° | 42km/h | 4124m | 1.4m/s | 0°C | 0% | 0hPa | 0V | 00:00:00 | 00:00:00 | 00:00:00 | |
| EA3IBE | 2026-09-05 11:11:34 | 41.36856 | 2.12625 | 160° | 33km/h | 4098m | 6.9m/s | 0°C | 0% | 0hPa | 0V | 00:00:00 | 00:00:00 | 00:00:00 | |
| EA3GEO | 2026-09-05 11:11:29 | 41.36910 | 2.12604 | 168° | 35km/h | 4063m | 6.9m/s | 0°C | 0% | 0hPa | 0V | 00:00:00 | 00:00:00 | 00:00:00 | |
| EA3IBE | 2026-09-05 11:11:28 | 41.36919 | 2.12602 | 175° | 38km/h | 4055m | 6.2m/s | 0°C | 0% | 0hPa | 0V | 00:00:00 | 00:00:00 | 00:00:00 | |
| EA3GEO | 2026-09-05 11:11:24 | 41.36962 | 2.12610 | 198° | 42km/h | 4032m | 3.5m/s | 0°C | 0% | 0hPa | 0V | 00:00:00 | 00:00:00 | 00:00:00 | |
| EA3IBE | 2026-09-05 11:11:22 | 41.36981 | 2.12617 | 198° | 35km/h | 4021m | 4.5m/s | 0°C | 0% | 0hPa | 0V | 00:00:00 | 00:00:00 | 00:00:00 | |
| EA3GEO | 2026-09-05 11:11:18 | 41.37010 | 2.12617 | 169° | 44km/h | 3997m | 5.0m/s | 0°C | 0% | 0hPa | 0V | 00:00:00 | 00:00:00 | 00:00:00 | |
| EA3IBE | 2026-09-05 11:11:14 | 41.37057 | 2.12615 | 184° | 51km/h | 3972m | 1.7m/s | 0°C | 0% | 0hPa | 0V | 00:00:00 | 00:00:00 | 00:00:00 | |
| EA3GEO | 2026-09-05 11:11:12 | 41.37081 | 2.12614 | 172° | 46km/h | 3963m | 4.8m/s | 0°C | 0% | 0hPa | 0V | 00:00:00 | 00:00:00 | 00:00:00 | |
| EA3IBE | 2026-09-05 11:11:09 | 41.37106 | 2.12611 | 180° | 26km/h | 3944m | 2.6m/s | 0°C | 0% | 0hPa | 0V | 00:00:00 | 00:00:00 | 00:00:00 | |
| EA3GEO | 2026-09-05 11:11:06 | 41.37129 | 2.12605 | 169° | 42km/h | 3925m | 5.5m/s | 0°C | 0% | 0hPa | 0V | 00:00:00 | 00:00:00 | 00:00:00 | |
| EA3IBE | 2026-09-05 11:11:03 | 41.37157 | 2.12603 | 189° | 31km/h | 3902m | 5.6m/s | 0°C | 0% | 0hPa | 0V | 00:00:00 | 00:00:00 | 00:00:00 | |
| EA3GEO | 2026-09-05 11:11:01 | 41.37170 | 2.12605 | 179° | 24km/h | 3891m | 4.1m/s | 0°C | 0% | 0hPa | 0V | 00:00:00 | 00:00:00 | 00:00:00 | |
| EA3IBE | 2026-09-05 11:10:58 | 41.37193 | 2.12599 | 174° | 37km/h | 3876m | 2.2m/s | 0°C | 0% | 0hPa | 0V | 00:00:00 | 00:00:00 | 00:00:00 | |
| EA3GEO | 2026-09-05 11:10:56 | 41.37213 | 2.12600 | 183° | 40km/h | 3863m | 7.2m/s | 0°C | 0% | 0hPa | 0V | 00:00:00 | 00:00:00 | 00:00:00 | |
| EA3IBE | 2026-09-05 11:10:51 | 41.37257 | 2.12603 | 185° | 29km/h | 3829m | 3.8m/s | 0°C | 0% | 0hPa | 0V | 00:00:00 | 00:00:00 | 00:00:00 | |
| EA3GEO | 2026-09-05 11:10:50 | 41.37264 | 2.12604 | 184° | 29km/h | 3823m | 6.4m/s | 0°C | 0% | 0hPa | 0V | 00:00:00 | 00:00:00 | 00:00:00 | |
| EA3IBE | 2026-09-05 11:10:45 | 41.37306 | 2.12596 | 163° | 31km/h | 3787m | 3.9m/s | 0°C | 0% | 0hPa | 0V | 00:00:00 | 00:00:00 | 00:00:00 | |
| EA3GEO | 2026-09-05 11:10:37 | 41.37363 | 2.12563 | 159° | 31km/h | 3744m | 3.5m/s | 0°C | 0% | 0hPa | 0V | 00:00:00 | 00:00:00 | 00:00:00 | |
| EA3IBE | 2026-09-05 11:10:31 | 41.37412 | 2.12567 | 190° | 29km/h | 3713m | 3.0m/s | 0°C | 0% | 0hPa | 0V | 00:00:00 | 00:00:00 | 00:00:00 | |
| EA3IBE | 2026-09-05 11:10:25 | 41.37459 | 2.12569 | 190° | 29km/h | 3680m | 3.7m/s | 0°C | 0% | 0hPa | 0V | 00:00:00 | 00:00:00 | 00:00:00 | |
| EA3IBE | 2026-09-05 11:10:19 | 41.37510 | 2.12562 | 190° | 33km/h | 3640m | 2.1m/s | 0°C | 0% | 0hPa | 0V | 00:00:00 | 00:00:00 | 00:00:00 | |
| EA3GEO | 2026-09-05 11:10:13 | 41.37552 | 2.12554 | 177° | 40km/h | 3609m | 4.6m/s | 0°C | 0% | 0hPa | 0V | 00:00:00 | 00:00:00 | 00:00:00 | |
| EA3IBE | 2026-09-05 11:10:12 | 41.37562 | 2.12553 | 174° | 46km/h | 3604m | 2.7m/s | 0°C | 0% | 0hPa | 0V | 00:00:00 | 00:00:00 | 00:00:00 | |
| EA3GEO | 2026-09-05 11:10:08 | 41.37594 | 2.12554 | 201° | 26km/h | 3582m | 4.4m/s | 0°C | 0% | 0hPa | 0V | 00:00:00 | 00:00:00 | 00:00:00 | |
| EA3IBE | 2026-09-05 11:10:04 | 41.37630 | 2.12550 | 169° | 47km/h | 3557m | 5.1m/s | 0°C | 0% | 0hPa | 0V | 00:00:00 | 00:00:00 | 00:00:00 | |
| EA3GEO | 2026-09-05 11:10:03 | 41.37641 | 2.12548 | 182° | 42km/h | 3550m | 4.8m/s | 0°C | 0% | 0hPa | 0V | 00:00:00 | 00:00:00 | 00:00:00 | |
| EA3GEO | 2026-09-05 11:09:56 | 41.37704 | 2.12548 | 189° | 42km/h | 3507m | 6.2m/s | 0°C | 0% | 0hPa | 0V | 00:00:00 | 00:00:00 | 00:00:00 | |
| EA3IBE | 2026-09-05 11:09:51 | 41.37745 | 2.12561 | 193° | 27km/h | 3479m | 6.5m/s | 0°C | 0% | 0hPa | 0V | 00:00:00 | 00:00:00 | 00:00:00 | |
| EA3GEO | 2026-09-05 11:09:50 | 41.37753 | 2.12564 | 193° | 40km/h | 3472m | 5.8m/s | 0°C | 0% | 0hPa | 0V | 00:00:00 | 00:00:00 | 00:00:00 | |
| EA3IBE | 2026-09-05 11:09:45 | 41.37794 | 2.12571 | 183° | 20km/h | 3441m | 6.8m/s | 0°C | 0% | 0hPa | 0V | 00:00:00 | 00:00:00 | 00:00:00 | |
| EA3GEO | 2026-09-05 11:09:44 | 41.37799 | 2.12572 | 210° | 16km/h | 3435m | 4.1m/s | 0°C | 0% | 0hPa | 0V | 00:00:00 | 00:00:00 | 00:00:00 | |
| EA3IBE | 2026-09-05 11:09:39 | 41.37829 | 2.12567 | 155° | 29km/h | 3414m | 3.2m/s | 0°C | 0% | 0hPa | 0V | 00:00:00 | 00:00:00 | 00:00:00 | |
| EA3GEO | 2026-09-05 11:09:38 | 41.37835 | 2.12564 | 155° | 22km/h | 3409m | 6.0m/s | 0°C | 0% | 0hPa | 0V | 00:00:00 | 00:00:00 | 00:00:00 | |
| EA3GEO | 2026-09-05 11:09:33 | 41.37862 | 2.12570 | 192° | 33km/h | 3377m | 3.3m/s | 0°C | 0% | 0hPa | 0V | 00:00:00 | 00:00:00 | 00:00:00 | |
| EA3IBE | 2026-09-05 11:09:30 | 41.37891 | 2.12568 | 167° | 38km/h | 3356m | 4.0m/s | 0°C | 0% | 0hPa | 0V | 00:00:00 | 00:00:00 | 00:00:00 | |
| EA3GEO | 2026-09-05 11:09:27 | 41.37908 | 2.12562 | 188° | 15km/h | 3341m | 5.9m/s | 0°C | 0% | 0hPa | 0V | 00:00:00 | 00:00:00 | 00:00:00 | |
| EA3IBE | 2026-09-05 11:09:25 | 41.37919 | 2.12569 | 211° | 35km/h | 3331m | 2.1m/s | 0°C | 0% | 0hPa | 0V | 00:00:00 | 00:00:00 | 00:00:00 | |
| EA3GEO | 2026-09-05 11:09:21 | 41.37960 | 2.12564 | 151° | 38km/h | 3311m | 4.1m/s | 0°C | 0% | 0hPa | 0V | 00:00:00 | 00:00:00 | 00:00:00 | |
| EA3IBE | 2026-09-05 11:09:18 | 41.37975 | 2.12553 | 182° | 15km/h | 3295m | 4.4m/s | 0°C | 0% | 0hPa | 0V | 00:00:00 | 00:00:00 | 00:00:00 | |
| EA3GEO | 2026-09-05 11:09:15 | 41.37995 | 2.12554 | 173° | 38km/h | 3278m | 1.8m/s | 0°C | 0% | 0hPa | 0V | 00:00:00 | 00:00:00 | 00:00:00 | |
| EA3GEO | 2026-09-05 11:09:09 | 41.38038 | 2.12556 | 182° | 24km/h | 3242m | 3.4m/s | 0°C | 0% | 0hPa | 0V | 00:00:00 | 00:00:00 | 00:00:00 | |
| EA3GEO | 2026-09-05 11:09:03 | 41.38076 | 2.12540 | 173° | 33km/h | 3204m | 6.2m/s | 0°C | 0% | 0hPa | 0V | 00:00:00 | 00:00:00 | 00:00:00 | |
| EA3IBE | 2026-09-05 11:09:00 | 41.38104 | 2.12532 | 168° | 37km/h | 3187m | 1.2m/s | 0°C | 0% | 0hPa | 0V | 00:00:00 | 00:00:00 | 00:00:00 | |
| EA3GEO | 2026-09-05 11:08:58 | 41.38119 | 2.12528 | 172° | 29km/h | 3180m | 3.8m/s | 0°C | 0% | 0hPa | 0V | 00:00:00 | 00:00:00 | 00:00:00 | |
| EA3IBE | 2026-09-05 11:08:54 | 41.38149 | 2.12526 | 156° | 29km/h | 3160m | 3.0m/s | 0°C | 0% | 0hPa | 0V | 00:00:00 | 00:00:00 | 00:00:00 | |
| EA3GEO | 2026-09-05 11:08:53 | 41.38156 | 2.12521 | 144° | 35km/h | 3155m | 5.0m/s | 0°C | 0% | 0hPa | 0V | 00:00:00 | 00:00:00 | 00:00:00 | |
| EA3GEO | 2026-09-05 11:08:47 | 41.38191 | 2.12515 | 210° | 15km/h | 3121m | 3.3m/s | 0°C | 0% | 0hPa | 0V | 00:00:00 | 00:00:00 | 00:00:00 | |
| EA3IBE | 2026-09-05 11:08:45 | 41.38196 | 2.12516 | 148° | 11km/h | 3110m | 6.5m/s | 0°C | 0% | 0hPa | 0V | 00:00:00 | 00:00:00 | 00:00:00 | |
| EA3GEO | 2026-09-05 11:08:42 | 41.38204 | 2.12506 | 148° | 16km/h | 3094m | 6.0m/s | 0°C | 0% | 0hPa | 0V | 00:00:00 | 00:00:00 | 00:00:00 | |
| EA3IBE | 2026-09-05 11:08:40 | 41.38213 | 2.12502 | 176° | 22km/h | 3079m | 6.7m/s | 0°C | 0% | 0hPa | 0V | 00:00:00 | 00:00:00 | 00:00:00 | |
| EA3GEO | 2026-09-05 11:08:37 | 41.38233 | 2.12508 | 196° | 29km/h | 3064m | 0.7m/s | 0°C | 0% | 0hPa | 0V | 00:00:00 | 00:00:00 | 00:00:00 | |
| EA3IBE | 2026-09-05 11:08:34 | 41.38256 | 2.12506 | 151° | 29km/h | 3047m | 5.6m/s | 0°C | 0% | 0hPa | 0V | 00:00:00 | 00:00:00 | 00:00:00 | |
| EA3GEO | 2026-09-05 11:08:31 | 41.38269 | 2.12493 | 158° | 16km/h | 3033m | 3.7m/s | 0°C | 0% | 0hPa | 0V | 00:00:00 | 00:00:00 | 00:00:00 | |
| EA3IBE | 2026-09-05 11:08:28 | 41.38286 | 2.12493 | 180° | 24km/h | 3016m | 6.3m/s | 0°C | 0% | 0hPa | 0V | 00:00:00 | 00:00:00 | 00:00:00 | |
| EA3GEO | 2026-09-05 11:08:26 | 41.38298 | 2.12498 | 202° | 27km/h | 3001m | 5.7m/s | 0°C | 0% | 0hPa | 0V | 00:00:00 | 00:00:00 | 00:00:00 | |
| EA3IBE | 2026-09-05 11:08:20 | 41.38330 | 2.12482 | 154° | 24km/h | 2961m | 4.7m/s | 0°C | 0% | 0hPa | 0V | 00:00:00 | 00:00:00 | 00:00:00 | |
| EA3GEO | 2026-09-05 11:08:15 | 41.38359 | 2.12458 | 134° | 33km/h | 2937m | -0.3m/s | 0°C | 0% | 0hPa | 0V | 00:00:00 | 00:00:00 | 00:00:00 | |
| EA3GEO | 2026-09-05 11:08:09 | 41.38390 | 2.12445 | 201° | 24km/h | 2911m | 3.3m/s | 0°C | 0% | 0hPa | 0V | 00:00:00 | 00:00:00 | 00:00:00 | |
| EA3IBE | 2026-09-05 11:08:01 | 41.38424 | 2.12403 | 121° | 29km/h | 2867m | 5.1m/s | 0°C | 0% | 0hPa | 0V | 00:00:00 | 00:00:00 | 00:00:00 | |
| EA3GEO | 2026-09-05 11:07:57 | 41.38449 | 2.12387 | 157° | 26km/h | 2844m | 4.3m/s | 0°C | 0% | 0hPa | 0V | 00:00:00 | 00:00:00 | 00:00:00 | |
| EA3IBE | 2026-09-05 11:07:52 | 41.38467 | 2.12348 | 119° | 27km/h | 2814m | 3.8m/s | 0°C | 0% | 0hPa | 0V | 00:00:00 | 00:00:00 | 00:00:00 | |
| EA3GEO | 2026-09-05 11:07:46 | 41.38486 | 2.12322 | 94° | 16km/h | 2776m | 3.7m/s | 0°C | 0% | 0hPa | 0V | 00:00:00 | 00:00:00 | 00:00:00 | |
| EA3IBE | 2026-09-05 11:07:43 | 41.38495 | 2.12298 | 136° | 29km/h | 2759m | 3.9m/s | 0°C | 0% | 0hPa | 0V | 00:00:00 | 00:00:00 | 00:00:00 | |
| EA3GEO | 2026-09-05 11:07:40 | 41.38512 | 2.12277 | 129° | 22km/h | 2744m | 2.1m/s | 0°C | 0% | 0hPa | 0V | 00:00:00 | 00:00:00 | 00:00:00 | |
| EA3IBE | 2026-09-05 11:07:37 | 41.38523 | 2.12266 | 142° | 18km/h | 2727m | 2.4m/s | 0°C | 0% | 0hPa | 0V | 00:00:00 | 00:00:00 | 00:00:00 | |
| EA3GEO | 2026-09-05 11:07:34 | 41.38532 | 2.12246 | 107° | 20km/h | 2707m | 5.7m/s | 0°C | 0% | 0hPa | 0V | 00:00:00 | 00:00:00 | 00:00:00 | |
| EA3IBE | 2026-09-05 11:07:30 | 41.38543 | 2.12234 | 155° | 18km/h | 2686m | 0.4m/s | 0°C | 0% | 0hPa | 0V | 00:00:00 | 00:00:00 | 00:00:00 | |
| EA3GEO | 2026-09-05 11:07:29 | 41.38548 | 2.12232 | 168° | 22km/h | 2681m | 6.8m/s | 0°C | 0% | 0hPa | 0V | 00:00:00 | 00:00:00 | 00:00:00 | |
| EA3GEO | 2026-09-05 11:07:24 | 41.38560 | 2.12223 | 132° | 11km/h | 2649m | 6.6m/s | 0°C | 0% | 0hPa | 0V | 00:00:00 | 00:00:00 | 00:00:00 | |
| EA3GEO | 2026-09-05 11:07:18 | 41.38583 | 2.12190 | 156° | 24km/h | 2614m | 1.5m/s | 0°C | 0% | 0hPa | 0V | 00:00:00 | 00:00:00 | 00:00:00 | |
| EA3GEO | 2026-09-05 11:07:11 | 41.38595 | 2.12167 | 126° | 16km/h | 2573m | 2.1m/s | 0°C | 0% | 0hPa | 0V | 00:00:00 | 00:00:00 | 00:00:00 | |
| EA3IBE | 2026-09-05 11:07:06 | 41.38623 | 2.12140 | 143° | 29km/h | 2546m | 2.7m/s | 0°C | 0% | 0hPa | 0V | 00:00:00 | 00:00:00 | 00:00:00 | |
| EA3GEO | 2026-09-05 11:07:00 | 41.38638 | 2.12116 | 163° | 24km/h | 2512m | 4.1m/s | 0°C | 0% | 0hPa | 0V | 00:00:00 | 00:00:00 | 00:00:00 | |
| EA3IBE | 2026-09-05 11:06:58 | 41.38651 | 2.12112 | 167° | 27km/h | 2500m | 4.0m/s | 0°C | 0% | 0hPa | 0V | 00:00:00 | 00:00:00 | 00:00:00 | |
| EA3GEO | 2026-09-05 11:06:55 | 41.38662 | 2.12096 | 90° | 15km/h | 2483m | 4.2m/s | 0°C | 0% | 0hPa | 0V | 00:00:00 | 00:00:00 | 00:00:00 | |
| EA3IBE | 2026-09-05 11:06:53 | 41.38661 | 2.12091 | 355° | 4km/h | 2471m | 2.4m/s | 0°C | 0% | 0hPa | 0V | 00:00:00 | 00:00:00 | 00:00:00 | |
| EA3GEO | 2026-09-05 11:06:49 | 41.38669 | 2.12073 | 118° | 26km/h | 2444m | 6.3m/s | 0°C | 0% | 0hPa | 0V | 00:00:00 | 00:00:00 | 00:00:00 | |
| EA3GEO | 2026-09-05 11:06:44 | 41.38673 | 2.12048 | 164° | 11km/h | 2417m | 3.3m/s | 0°C | 0% | 0hPa | 0V | 00:00:00 | 00:00:00 | 00:00:00 | |
| EA3IBE | 2026-09-05 11:06:39 | 41.38688 | 2.12034 | 120° | 7km/h | 2389m | 3.5m/s | 0°C | 0% | 0hPa | 0V | 00:00:00 | 00:00:00 | 00:00:00 | |
| EA3GEO | 2026-09-05 11:06:38 | 41.38689 | 2.12033 | 164° | 11km/h | 2384m | 4.7m/s | 0°C | 0% | 0hPa | 0V | 00:00:00 | 00:00:00 | 00:00:00 | |
| EA3IBE | 2026-09-05 11:06:33 | 41.38700 | 2.12008 | 65° | 22km/h | 2361m | 4.9m/s | 0°C | 0% | 0hPa | 0V | 00:00:00 | 00:00:00 | 00:00:00 | |
| EA3GEO | 2026-09-05 11:06:32 | 41.38698 | 2.12001 | 71° | 20km/h | 2356m | 4.2m/s | 0°C | 0% | 0hPa | 0V | 00:00:00 | 00:00:00 | 00:00:00 | |
| EA3IBE | 2026-09-05 11:06:28 | 41.38701 | 2.11977 | 117° | 16km/h | 2332m | 4.3m/s | 0°C | 0% | 0hPa | 0V | 00:00:00 | 00:00:00 | 00:00:00 | |
| EA3IBE | 2026-09-05 11:06:21 | 41.38703 | 2.11948 | 149° | 11km/h | 2289m | 4.0m/s | 0°C | 0% | 0hPa | 0V | 00:00:00 | 00:00:00 | 00:00:00 | |
| EA3IBE | 2026-09-05 11:06:15 | 41.38697 | 2.11923 | 42° | 11km/h | 2252m | 4.3m/s | 0°C | 0% | 0hPa | 0V | 00:00:00 | 00:00:00 | 00:00:00 | |
| EA3GEO | 2026-09-05 11:06:10 | 41.38707 | 2.11912 | 149° | 7km/h | 2221m | 5.8m/s | 0°C | 0% | 0hPa | 0V | 00:00:00 | 00:00:00 | 00:00:00 | |
| EA3IBE | 2026-09-05 11:06:08 | 41.38707 | 2.11907 | 58° | 15km/h | 2209m | 3.8m/s | 0°C | 0% | 0hPa | 0V | 00:00:00 | 00:00:00 | 00:00:00 | |
| EA3IBE | 2026-09-05 11:06:01 | 41.38704 | 2.11882 | 20° | 4km/h | 2167m | 2.5m/s | 0°C | 0% | 0hPa | 0V | 00:00:00 | 00:00:00 | 00:00:00 | |
| EA3GEO | 2026-09-05 11:05:57 | 41.38704 | 2.11876 | 128° | 9km/h | 2144m | 4.5m/s | 0°C | 0% | 0hPa | 0V | 00:00:00 | 00:00:00 | 00:00:00 | |
| EA3GEO | 2026-09-05 11:05:50 | 41.38710 | 2.11840 | 111° | 22km/h | 2103m | 4.7m/s | 0°C | 0% | 0hPa | 0V | 00:00:00 | 00:00:00 | 00:00:00 | |
| EA3GEO | 2026-09-05 11:05:44 | 41.38719 | 2.11819 | 118° | 22km/h | 2067m | 3.4m/s | 0°C | 0% | 0hPa | 0V | 00:00:00 | 00:00:00 | 00:00:00 | |
| EA3GEO | 2026-09-05 11:05:38 | 41.38717 | 2.11803 | 113° | 18km/h | 2031m | 4.2m/s | 0°C | 0% | 0hPa | 0V | 00:00:00 | 00:00:00 | 00:00:00 | |
| EA3IBE | 2026-09-05 11:05:36 | 41.38721 | 2.11787 | 107° | 27km/h | 2021m | 2.6m/s | 0°C | 0% | 0hPa | 0V | 00:00:00 | 00:00:00 | 00:00:00 | |
| EA3GEO | 2026-09-05 11:05:33 | 41.38728 | 2.11767 | 131° | 15km/h | 2005m | 2.7m/s | 0°C | 0% | 0hPa | 0V | 00:00:00 | 00:00:00 | 00:00:00 | |
| EA3GEO | 2026-09-05 11:05:28 | 41.38742 | 2.11738 | 85° | 16km/h | 1968m | 4.4m/s | 0°C | 0% | 0hPa | 0V | 00:00:00 | 00:00:00 | 00:00:00 | |
| EA3IBE | 2026-09-05 11:05:26 | 41.38740 | 2.11726 | 86° | 20km/h | 1958m | 4.8m/s | 0°C | 0% | 0hPa | 0V | 00:00:00 | 00:00:00 | 00:00:00 | |
| EA3GEO | 2026-09-05 11:05:23 | 41.38742 | 2.11710 | 97° | 9km/h | 1940m | 4.1m/s | 0°C | 0% | 0hPa | 0V | 00:00:00 | 00:00:00 | 00:00:00 | |
| EA3IBE | 2026-09-05 11:05:20 | 41.38740 | 2.11695 | 88° | 20km/h | 1923m | 4.5m/s | 0°C | 0% | 0hPa | 0V | 00:00:00 | 00:00:00 | 00:00:00 | |
| EA3GEO | 2026-09-05 11:05:17 | 41.38741 | 2.11680 | 79° | 13km/h | 1906m | 4.7m/s | 0°C | 0% | 0hPa | 0V | 00:00:00 | 00:00:00 | 00:00:00 | |
| EA3IBE | 2026-09-05 11:05:14 | 41.38740 | 2.11663 | 98° | 18km/h | 1889m | 4.6m/s | 0°C | 0% | 0hPa | 0V | 00:00:00 | 00:00:00 | 00:00:00 | |
| EA3GEO | 2026-09-05 11:05:11 | 41.38740 | 2.11651 | 62° | 16km/h | 1872m | 3.4m/s | 0°C | 0% | 0hPa | 0V | 00:00:00 | 00:00:00 | 00:00:00 | |
| EA3IBE | 2026-09-05 11:05:08 | 41.38735 | 2.11623 | 94° | 35km/h | 1853m | 6.5m/s | 0°C | 0% | 0hPa | 0V | 00:00:00 | 00:00:00 | 00:00:00 | |
| EA3GEO | 2026-09-05 11:05:00 | 41.38744 | 2.11560 | 96° | 31km/h | 1807m | 3.9m/s | 0°C | 0% | 0hPa | 0V | 00:00:00 | 00:00:00 | 00:00:00 | |
| EA3IBE | 2026-09-05 11:04:56 | 41.38743 | 2.11529 | 84° | 22km/h | 1785m | 4.4m/s | 0°C | 0% | 0hPa | 0V | 00:00:00 | 00:00:00 | 00:00:00 | |
| EA3GEO | 2026-09-05 11:04:55 | 41.38742 | 2.11520 | 73° | 31km/h | 1780m | 3.8m/s | 0°C | 0% | 0hPa | 0V | 00:00:00 | 00:00:00 | 00:00:00 | |
| EA3GEO | 2026-09-05 11:04:50 | 41.38734 | 2.11485 | 105° | 24km/h | 1748m | 2.7m/s | 0°C | 0% | 0hPa | 0V | 00:00:00 | 00:00:00 | 00:00:00 | |
| EA3IBE | 2026-09-05 11:04:48 | 41.38736 | 2.11469 | 86° | 18km/h | 1738m | 4.7m/s | 0°C | 0% | 0hPa | 0V | 00:00:00 | 00:00:00 | 00:00:00 | |
| EA3GEO | 2026-09-05 11:04:44 | 41.38729 | 2.11447 | 55° | 15km/h | 1711m | 5.4m/s | 0°C | 0% | 0hPa | 0V | 00:00:00 | 00:00:00 | 00:00:00 | |
| EA3IBE | 2026-09-05 11:04:42 | 41.38724 | 2.11440 | 35° | 16km/h | 1698m | 3.9m/s | 0°C | 0% | 0hPa | 0V | 00:00:00 | 00:00:00 | 00:00:00 | |
| EA3GEO | 2026-09-05 11:04:39 | 41.38716 | 2.11428 | 83° | 16km/h | 1684m | 3.3m/s | 0°C | 0% | 0hPa | 0V | 00:00:00 | 00:00:00 | 00:00:00 | |
| EA3IBE | 2026-09-05 11:04:37 | 41.38714 | 2.11413 | 84° | 27km/h | 1673m | 6.2m/s | 0°C | 0% | 0hPa | 0V | 00:00:00 | 00:00:00 | 00:00:00 | |
| EA3GEO | 2026-09-05 11:04:34 | 41.38708 | 2.11383 | 84° | 29km/h | 1655m | 2.2m/s | 0°C | 0% | 0hPa | 0V | 00:00:00 | 00:00:00 | 00:00:00 | |
| EA3IBE | 2026-09-05 11:04:31 | 41.38699 | 2.11357 | 46° | 24km/h | 1638m | 5.4m/s | 0°C | 0% | 0hPa | 0V | 00:00:00 | 00:00:00 | 00:00:00 | |
| EA3GEO | 2026-09-05 11:04:28 | 41.38695 | 2.11344 | 120° | 20km/h | 1618m | 5.5m/s | 0°C | 0% | 0hPa | 0V | 00:00:00 | 00:00:00 | 00:00:00 | |
| EA3IBE | 2026-09-05 11:04:26 | 41.38699 | 2.11330 | 98° | 24km/h | 1604m | 4.4m/s | 0°C | 0% | 0hPa | 0V | 00:00:00 | 00:00:00 | 00:00:00 | |
| EA3GEO | 2026-09-05 11:04:22 | 41.38700 | 2.11304 | 98° | 16km/h | 1581m | 2.3m/s | 0°C | 0% | 0hPa | 0V | 00:00:00 | 00:00:00 | 00:00:00 | |
| EA3IBE | 2026-09-05 11:04:21 | 41.38701 | 2.11297 | 103° | 22km/h | 1575m | 6.7m/s | 0°C | 0% | 0hPa | 0V | 00:00:00 | 00:00:00 | 00:00:00 | |
| EA3GEO | 2026-09-05 11:04:17 | 41.38697 | 2.11273 | 93° | 13km/h | 1550m | 6.2m/s | 0°C | 0% | 0hPa | 0V | 00:00:00 | 00:00:00 | 00:00:00 | |
| EA3IBE | 2026-09-05 11:04:15 | 41.38698 | 2.11262 | 85° | 20km/h | 1538m | 4.9m/s | 0°C | 0% | 0hPa | 0V | 00:00:00 | 00:00:00 | 00:00:00 | |
| EA3GEO | 2026-09-05 11:04:11 | 41.38692 | 2.11240 | 90° | 16km/h | 1516m | 5.7m/s | 0°C | 0% | 0hPa | 0V | 00:00:00 | 00:00:00 | 00:00:00 | |
| EA3IBE | 2026-09-05 11:04:10 | 41.38691 | 2.11233 | 91° | 26km/h | 1511m | 3.9m/s | 0°C | 0% | 0hPa | 0V | 00:00:00 | 00:00:00 | 00:00:00 | |
| EA3GEO | 2026-09-05 11:04:05 | 41.38689 | 2.11198 | 103° | 24km/h | 1480m | 4.6m/s | 0°C | 0% | 0hPa | 0V | 00:00:00 | 00:00:00 | 00:00:00 | |
| EA3IBE | 2026-09-05 11:04:04 | 41.38688 | 2.11190 | 83° | 26km/h | 1474m | 5.7m/s | 0°C | 0% | 0hPa | 0V | 00:00:00 | 00:00:00 | 00:00:00 | |
| EA3GEO | 2026-09-05 11:04:00 | 41.38686 | 2.11167 | 98° | 20km/h | 1450m | 4.5m/s | 0°C | 0% | 0hPa | 0V | 00:00:00 | 00:00:00 | 00:00:00 | |
| EA3IBE | 2026-09-05 11:03:59 | 41.38686 | 2.11159 | 86° | 26km/h | 1445m | 4.7m/s | 0°C | 0% | 0hPa | 0V | 00:00:00 | 00:00:00 | 00:00:00 | |
| EA3GEO | 2026-09-05 11:03:55 | 41.38682 | 2.11136 | 93° | 18km/h | 1421m | 5.0m/s | 0°C | 0% | 0hPa | 0V | 00:00:00 | 00:00:00 | 00:00:00 | |
| EA3IBE | 2026-09-05 11:03:54 | 41.38682 | 2.11128 | 95° | 24km/h | 1416m | 3.2m/s | 0°C | 0% | 0hPa | 0V | 00:00:00 | 00:00:00 | 00:00:00 | |
| EA3GEO | 2026-09-05 11:03:49 | 41.38681 | 2.11097 | 65° | 7km/h | 1385m | 5.4m/s | 0°C | 0% | 0hPa | 0V | 00:00:00 | 00:00:00 | 00:00:00 | |
| EA3IBE | 2026-09-05 11:03:48 | 41.38682 | 2.11094 | 112° | 9km/h | 1379m | 5.4m/s | 0°C | 0% | 0hPa | 0V | 00:00:00 | 00:00:00 | 00:00:00 | |
| EA3GEO | 2026-09-05 11:03:43 | 41.38683 | 2.11070 | 75° | 11km/h | 1349m | 5.3m/s | 0°C | 0% | 0hPa | 0V | 00:00:00 | 00:00:00 | 00:00:00 | |
| EA3IBE | 2026-09-05 11:03:43 | 41.38683 | 2.11070 | 75° | 11km/h | 1349m | 5.3m/s | 0°C | 0% | 0hPa | 0V | 00:00:00 | 00:00:00 | 00:00:00 | |
| EA3GEO | 2026-09-05 11:03:38 | 41.38685 | 2.11047 | 70° | 9km/h | 1319m | 4.5m/s | 0°C | 0% | 0hPa | 0V | 00:00:00 | 00:00:00 | 00:00:00 | |
| EA3IBE | 2026-09-05 11:03:37 | 41.38684 | 2.11045 | 75° | 9km/h | 1313m | 4.3m/s | 0°C | 0% | 0hPa | 0V | 00:00:00 | 00:00:00 | 00:00:00 | |
| EA3GEO | 2026-09-05 11:03:32 | 41.38684 | 2.11034 | 152° | 9km/h | 1283m | 4.8m/s | 0°C | 0% | 0hPa | 0V | 00:00:00 | 00:00:00 | 00:00:00 | |
| EA3IBE | 2026-09-05 11:03:32 | 41.38684 | 2.11034 | 152° | 9km/h | 1283m | 4.8m/s | 0°C | 0% | 0hPa | 0V | 00:00:00 | 00:00:00 | 00:00:00 | |
| EA3GEO | 2026-09-05 11:03:27 | 41.38686 | 2.11018 | 141° | 7km/h | 1254m | 6.3m/s | 0°C | 0% | 0hPa | 0V | 00:00:00 | 00:00:00 | 00:00:00 | |
| EA3IBE | 2026-09-05 11:03:26 | 41.38688 | 2.11017 | 128° | 4km/h | 1247m | 4.9m/s | 0°C | 0% | 0hPa | 0V | 00:00:00 | 00:00:00 | 00:00:00 | |
| EA3GEO | 2026-09-05 11:03:21 | 41.38684 | 2.11017 | 107° | 9km/h | 1219m | 2.9m/s | 0°C | 0% | 0hPa | 0V | 00:00:00 | 00:00:00 | 00:00:00 | |
| EA3IBE | 2026-09-05 11:03:21 | 41.38684 | 2.11017 | 107° | 9km/h | 1219m | 2.9m/s | 0°C | 0% | 0hPa | 0V | 00:00:00 | 00:00:00 | 00:00:00 | |
| EA3GEO | 2026-09-05 11:03:15 | 41.38684 | 2.11010 | 43° | 2km/h | 1184m | 7.2m/s | 0°C | 0% | 0hPa | 0V | 00:00:00 | 00:00:00 | 00:00:00 | |
| EA3IBE | 2026-09-05 11:03:14 | 41.38682 | 2.11009 | 29° | 5km/h | 1177m | 3.5m/s | 0°C | 0% | 0hPa | 0V | 00:00:00 | 00:00:00 | 00:00:00 | |
| EA3GEO | 2026-09-05 11:03:09 | 41.38684 | 2.11003 | 97° | 5km/h | 1149m | 6.3m/s | 0°C | 0% | 0hPa | 0V | 00:00:00 | 00:00:00 | 00:00:00 | |
| EA3IBE | 2026-09-05 11:03:08 | 41.38684 | 2.11002 | 173° | 4km/h | 1143m | 3.1m/s | 0°C | 0% | 0hPa | 0V | 00:00:00 | 00:00:00 | 00:00:00 | |
| EA3GEO | 2026-09-05 11:03:03 | 41.38680 | 2.11011 | 215° | 5km/h | 1115m | 5.0m/s | 0°C | 0% | 0hPa | 0V | 00:00:00 | 00:00:00 | 00:00:00 | |
| EA3IBE | 2026-09-05 11:03:02 | 41.38680 | 2.11011 | 98° | 5km/h | 1110m | 4.2m/s | 0°C | 0% | 0hPa | 0V | 00:00:00 | 00:00:00 | 00:00:00 | |
| EA3GEO | 2026-09-05 11:02:57 | 41.38672 | 2.11012 | 208° | 4km/h | 1082m | 6.2m/s | 0°C | 0% | 0hPa | 0V | 00:00:00 | 00:00:00 | 00:00:00 | |
| EA3IBE | 2026-09-05 11:02:57 | 41.38672 | 2.11012 | 208° | 4km/h | 1082m | 6.2m/s | 0°C | 0% | 0hPa | 0V | 00:00:00 | 00:00:00 | 00:00:00 | |
| EA3IBE | 2026-09-05 11:02:52 | 41.38671 | 2.11008 | 236° | 7km/h | 1052m | 5.7m/s | 0°C | 0% | 0hPa | 0V | 00:00:00 | 00:00:00 | 00:00:00 | |
| EA3GEO | 2026-09-05 11:02:51 | 41.38671 | 2.11010 | 269° | 7km/h | 1045m | 4.4m/s | 0°C | 0% | 0hPa | 0V | 00:00:00 | 00:00:00 | 00:00:00 | |
| EA3IBE | 2026-09-05 11:02:46 | 41.38664 | 2.11026 | 211° | 5km/h | 1017m | 3.7m/s | 0°C | 0% | 0hPa | 0V | 00:00:00 | 00:00:00 | 00:00:00 | |
| EA3GEO | 2026-09-05 11:02:45 | 41.38665 | 2.11027 | 0° | 0km/h | 1013m | 5.4m/s | 0°C | 0% | 0hPa | 0V | 00:00:00 | 00:00:00 | 00:00:00 | |
| EA3IBE | 2026-09-05 11:02:40 | 41.38646 | 2.11036 | 334° | 15km/h | 985m | 4.1m/s | 0°C | 0% | 0hPa | 0V | 00:00:00 | 00:00:00 | 00:00:00 | |
| EA3IBE | 2026-09-05 11:02:35 | 41.38645 | 2.11042 | 312° | 9km/h | 956m | 4.0m/s | 0°C | 0% | 0hPa | 0V | 00:00:00 | 00:00:00 | 00:00:00 | |
| EA3GEO | 2026-09-05 11:02:34 | 41.38643 | 2.11044 | 309° | 11km/h | 951m | 4.7m/s | 0°C | 0% | 0hPa | 0V | 00:00:00 | 00:00:00 | 00:00:00 | |
| EA3IBE | 2026-09-05 11:02:30 | 41.38633 | 2.11057 | 345° | 9km/h | 928m | 5.0m/s | 0°C | 0% | 0hPa | 0V | 00:00:00 | 00:00:00 | 00:00:00 | |
| EA3GEO | 2026-09-05 11:02:28 | 41.38632 | 2.11060 | 269° | 13km/h | 915m | 6.2m/s | 0°C | 0% | 0hPa | 0V | 00:00:00 | 00:00:00 | 00:00:00 | |
| EA3IBE | 2026-09-05 11:02:25 | 41.38626 | 2.11074 | 319° | 13km/h | 896m | 5.0m/s | 0°C | 0% | 0hPa | 0V | 00:00:00 | 00:00:00 | 00:00:00 | |
| EA3GEO | 2026-09-05 11:02:22 | 41.38621 | 2.11087 | 303° | 22km/h | 878m | 3.5m/s | 0°C | 0% | 0hPa | 0V | 00:00:00 | 00:00:00 | 00:00:00 | |
| EA3IBE | 2026-09-05 11:02:20 | 41.38614 | 2.11097 | 323° | 16km/h | 867m | 4.3m/s | 0°C | 0% | 0hPa | 0V | 00:00:00 | 00:00:00 | 00:00:00 | |
| EA3GEO | 2026-09-05 11:02:16 | 41.38604 | 2.11117 | 318° | 24km/h | 846m | 3.1m/s | 0°C | 0% | 0hPa | 0V | 00:00:00 | 00:00:00 | 00:00:00 | |
| EA3IBE | 2026-09-05 11:02:15 | 41.38600 | 2.11122 | 316° | 20km/h | 841m | 4.3m/s | 0°C | 0% | 0hPa | 0V | 00:00:00 | 00:00:00 | 00:00:00 | |
| EA3GEO | 2026-09-05 11:02:11 | 41.38584 | 2.11157 | 312° | 35km/h | 821m | 3.0m/s | 0°C | 0% | 0hPa | 0V | 00:00:00 | 00:00:00 | 00:00:00 | |
| EA3IBE | 2026-09-05 11:02:09 | 41.38575 | 2.11172 | 308° | 24km/h | 813m | 2.7m/s | 0°C | 0% | 0hPa | 0V | 00:00:00 | 00:00:00 | 00:00:00 | |
| EA3GEO | 2026-09-05 11:02:05 | 41.38565 | 2.11201 | 300° | 27km/h | 796m | 4.5m/s | 0°C | 0% | 0hPa | 0V | 00:00:00 | 00:00:00 | 00:00:00 | |
| EA3IBE | 2026-09-05 11:02:03 | 41.38557 | 2.11216 | 310° | 27km/h | 785m | 5.3m/s | 0°C | 0% | 0hPa | 0V | 00:00:00 | 00:00:00 | 00:00:00 | |
| EA3GEO | 2026-09-05 11:01:59 | 41.38542 | 2.11246 | 300° | 26km/h | 763m | 3.1m/s | 0°C | 0% | 0hPa | 0V | 00:00:00 | 00:00:00 | 00:00:00 | |
| EA3IBE | 2026-09-05 11:01:58 | 41.38539 | 2.11253 | 297° | 26km/h | 758m | 4.9m/s | 0°C | 0% | 0hPa | 0V | 00:00:00 | 00:00:00 | 00:00:00 | |
| EA3GEO | 2026-09-05 11:01:53 | 41.38525 | 2.11288 | 284° | 24km/h | 734m | 2.6m/s | 0°C | 0% | 0hPa | 0V | 00:00:00 | 00:00:00 | 00:00:00 | |
| EA3IBE | 2026-09-05 11:01:52 | 41.38523 | 2.11298 | 278° | 31km/h | 730m | 4.5m/s | 0°C | 0% | 0hPa | 0V | 00:00:00 | 00:00:00 | 00:00:00 | |
| EA3IBE | 2026-09-05 11:01:47 | 41.38514 | 2.11344 | 297° | 24km/h | 704m | 4.6m/s | 0°C | 0% | 0hPa | 0V | 00:00:00 | 00:00:00 | 00:00:00 | |
| EA3GEO | 2026-09-05 11:01:47 | 41.38514 | 2.11344 | 297° | 24km/h | 704m | 4.6m/s | 0°C | 0% | 0hPa | 0V | 00:00:00 | 00:00:00 | 00:00:00 | |
| EA3IBE | 2026-09-05 11:01:41 | 41.38505 | 2.11388 | 298° | 22km/h | 674m | 4.3m/s | 0°C | 0% | 0hPa | 0V | 00:00:00 | 00:00:00 | 00:00:00 | |
| EA3GEO | 2026-09-05 11:01:40 | 41.38502 | 2.11395 | 310° | 26km/h | 670m | 2.7m/s | 0°C | 0% | 0hPa | 0V | 00:00:00 | 00:00:00 | 00:00:00 | |
| EA3IBE | 2026-09-05 11:01:36 | 41.38495 | 2.11424 | 271° | 20km/h | 647m | 4.0m/s | 0°C | 0% | 0hPa | 0V | 00:00:00 | 00:00:00 | 00:00:00 | |
| EA3GEO | 2026-09-05 11:01:34 | 41.38498 | 2.11441 | 259° | 27km/h | 633m | 3.3m/s | 0°C | 0% | 0hPa | 0V | 00:00:00 | 00:00:00 | 00:00:00 | |
| EA3IBE | 2026-09-05 11:01:31 | 41.38499 | 2.11456 | 297° | 9km/h | 617m | 6.8m/s | 0°C | 0% | 0hPa | 0V | 00:00:00 | 00:00:00 | 00:00:00 | |
| EA3GEO | 2026-09-05 11:01:26 | 41.38488 | 2.11478 | 279° | 4km/h | 581m | 5.6m/s | 0°C | 0% | 0hPa | 0V | 00:00:00 | 00:00:00 | 00:00:00 | |
| EA3IBE | 2026-09-05 11:01:25 | 41.38489 | 2.11480 | 216° | 4km/h | 574m | 5.4m/s | 0°C | 0% | 0hPa | 0V | 00:00:00 | 00:00:00 | 00:00:00 | |
| EA3GEO | 2026-09-05 11:01:21 | 41.38480 | 2.11485 | 345° | 20km/h | 541m | 6.9m/s | 0°C | 0% | 0hPa | 0V | 00:00:00 | 00:00:00 | 00:00:00 | |
| EA3GEO | 2026-09-05 11:01:06 | 41.38455 | 2.11531 | 280° | 11km/h | 434m | 5.3m/s | 0°C | 0% | 0hPa | 0V | 00:00:00 | 00:00:00 | 00:00:00 | |
| EA3GEO | 2026-09-05 11:01:00 | 41.38461 | 2.11553 | 212° | 13km/h | 393m | 5.1m/s | 0°C | 0% | 0hPa | 0V | 00:00:00 | 00:00:00 | 00:00:00 | |
| EA3GEO | 2026-09-05 11:00:59 | 41.38462 | 2.11598 | 283° | 31km/h | 346m | 4.8m/s | 0°C | 0% | 0hPa | 0V | 00:00:00 | 00:00:00 | 00:00:00 |